Wetterdaten: Donnerstag, 27.04.2017
Datum Zeit Temp. A. Pool Temp. Feuchte A. Luftdruck Regen Wind Richtung Richtung Sonnenschein ET UV Solar Taupunkt Windchill Windben Empfang
27.04.2017 00:00 5,3 C 10,0 C 96 % 1010,8 hPa 0,0 l/m 3,6 km/h (1 Bft) O-NO 69 0 min 0,000 mm 0,0 UV-I 0 W/m 4,7 C 5,3 C 6,4 km/h (2 Bft) 98,00 %
27.04.2017 00:02 5,3 C 10,0 C 95 % 1010,8 hPa 0,0 l/m 1,8 km/h (1 Bft) O-NO 69 0 min 0,000 mm 0,0 UV-I 0 W/m 4,6 C 5,3 C 3,2 km/h (1 Bft) 97,73 %
27.04.2017 00:04 5,3 C 10,0 C 95 % 1010,7 hPa 0,0 l/m 2,8 km/h (1 Bft) O-NO 67 0 min 0,000 mm 0,0 UV-I 0 W/m 4,6 C 5,3 C 4,8 km/h (1 Bft) 97,87 %
27.04.2017 00:06 5,3 C 10,0 C 95 % 1010,7 hPa 0,2 l/m 3,8 km/h (1 Bft) O-NO 67 0 min 0,000 mm 0,0 UV-I 0 W/m 4,6 C 5,3 C 4,8 km/h (1 Bft) 97,44 %
27.04.2017 00:08 5,3 C 10,0 C 95 % 1010,7 hPa 0,0 l/m 3,1 km/h (1 Bft) O-NO 67 0 min 0,000 mm 0,0 UV-I 0 W/m 4,6 C 5,3 C 6,4 km/h (2 Bft) 100,00 %
27.04.2017 00:10 5,3 C 10,0 C 95 % 1010,8 hPa 0,0 l/m 3,5 km/h (1 Bft) O-NO 67 0 min 0,000 mm 0,0 UV-I 0 W/m 4,6 C 5,3 C 6,4 km/h (2 Bft) 97,87 %
27.04.2017 00:12 5,3 C 10,0 C 95 % 1010,7 hPa 0,0 l/m 4,0 km/h (1 Bft) O-NO 69 0 min 0,000 mm 0,0 UV-I 0 W/m 4,6 C 5,3 C 6,4 km/h (2 Bft) 97,56 %
27.04.2017 00:14 5,3 C 10,0 C 95 % 1010,7 hPa 0,0 l/m 4,7 km/h (1 Bft) O-NO 69 0 min 0,000 mm 0,0 UV-I 0 W/m 4,6 C 5,3 C 6,4 km/h (2 Bft) 98,00 %
27.04.2017 00:16 5,3 C 10,0 C 95 % 1010,7 hPa 0,0 l/m 4,1 km/h (1 Bft) O-NO 69 0 min 0,000 mm 0,0 UV-I 0 W/m 4,6 C 5,3 C 6,4 km/h (2 Bft) 98,00 %
27.04.2017 00:18 5,2 C 10,0 C 95 % 1010,8 hPa 0,0 l/m 4,2 km/h (1 Bft) O-NO 69 0 min 0,000 mm 0,0 UV-I 0 W/m 4,5 C 5,2 C 6,4 km/h (2 Bft) 97,14 %
27.04.2017 00:20 5,2 C 10,0 C 95 % 1010,8 hPa 0,0 l/m 3,4 km/h (1 Bft) O-NO 69 0 min 0,000 mm 0,0 UV-I 0 W/m 4,5 C 5,2 C 4,8 km/h (1 Bft) 98,21 %
27.04.2017 00:22 5,2 C 10,0 C 95 % 1010,8 hPa 0,2 l/m 4,3 km/h (1 Bft) O-NO 68 0 min 0,000 mm 0,0 UV-I 0 W/m 4,5 C 5,2 C 4,8 km/h (1 Bft) 97,56 %
27.04.2017 00:24 5,2 C 10,0 C 95 % 1010,6 hPa 0,0 l/m 3,9 km/h (1 Bft) O-NO 67 0 min 0,000 mm 0,0 UV-I 0 W/m 4,5 C 5,2 C 6,4 km/h (2 Bft) 100,00 %
27.04.2017 00:26 5,2 C 10,0 C 95 % 1010,6 hPa 0,0 l/m 4,7 km/h (1 Bft) O-NO 65 0 min 0,000 mm 0,0 UV-I 0 W/m 4,5 C 5,2 C 6,4 km/h (2 Bft) 95,12 %
27.04.2017 00:28 5,2 C 10,0 C 95 % 1010,6 hPa 0,0 l/m 5,6 km/h (1 Bft) O-NO 67 0 min 0,000 mm 0,0 UV-I 0 W/m 4,5 C 5,2 C 8,0 km/h (2 Bft) 98,00 %
27.04.2017 00:30 5,2 C 10,0 C 95 % 1010,6 hPa 0,0 l/m 4,7 km/h (1 Bft) O-NO 64 0 min 0,000 mm 0,0 UV-I 0 W/m 4,5 C 5,2 C 8,0 km/h (2 Bft) 100,00 %
27.04.2017 00:32 5,2 C 10,0 C 95 % 1010,6 hPa 0,0 l/m 4,1 km/h (1 Bft) O-NO 64 0 min 0,000 mm 0,0 UV-I 0 W/m 4,5 C 5,2 C 6,4 km/h (2 Bft) 97,87 %
27.04.2017 00:34 5,2 C 10,0 C 95 % 1010,6 hPa 0,0 l/m 3,4 km/h (1 Bft) O-NO 64 0 min 0,000 mm 0,0 UV-I 0 W/m 4,5 C 5,2 C 4,8 km/h (1 Bft) 98,00 %
27.04.2017 00:36 5,2 C 10,0 C 95 % 1010,6 hPa 0,0 l/m 2,7 km/h (1 Bft) O-NO 64 0 min 0,000 mm 0,0 UV-I 0 W/m 4,5 C 5,2 C 4,8 km/h (1 Bft) 100,00 %
27.04.2017 00:38 5,3 C 10,0 C 96 % 1010,6 hPa 0,0 l/m 1,2 km/h (1 Bft) O-NO 64 0 min 0,000 mm 0,0 UV-I 0 W/m 4,7 C 5,3 C 3,2 km/h (1 Bft) 100,00 %
27.04.2017 00:40 5,3 C 10,0 C 96 % 1010,6 hPa 0,0 l/m 1,1 km/h (1 Bft) O-NO 64 0 min 0,000 mm 0,0 UV-I 0 W/m 4,7 C 5,3 C 1,6 km/h (1 Bft) 100,00 %
27.04.2017 00:42 5,3 C 10,0 C 96 % 1010,6 hPa 0,0 l/m 1,5 km/h (1 Bft) O-NO 64 0 min 0,000 mm 0,0 UV-I 0 W/m 4,7 C 5,3 C 3,2 km/h (1 Bft) 100,00 %
27.04.2017 00:44 5,2 C 10,0 C 95 % 1010,7 hPa 0,0 l/m 1,6 km/h (1 Bft) O-NO 64 0 min 0,000 mm 0,0 UV-I 0 W/m 4,5 C 5,2 C 3,2 km/h (1 Bft) 98,00 %
27.04.2017 00:46 5,3 C 10,0 C 96 % 1010,7 hPa 0,0 l/m 2,0 km/h (1 Bft) O-NO 64 0 min 0,000 mm 0,0 UV-I 0 W/m 4,7 C 5,3 C 3,2 km/h (1 Bft) 100,00 %
27.04.2017 00:48 5,2 C 10,0 C 96 % 1010,7 hPa 0,0 l/m 2,2 km/h (1 Bft) O-NO 64 0 min 0,000 mm 0,0 UV-I 0 W/m 4,6 C 5,2 C 4,8 km/h (1 Bft) 100,00 %
27.04.2017 00:50 5,3 C 10,0 C 96 % 1010,8 hPa 0,0 l/m 1,4 km/h (1 Bft) O-NO 64 0 min 0,000 mm 0,0 UV-I 0 W/m 4,7 C 5,3 C 3,2 km/h (1 Bft) 100,00 %
27.04.2017 00:52 5,2 C 10,0 C 96 % 1010,8 hPa 0,2 l/m 0,1 km/h (0 Bft) O-NO 64 0 min 0,000 mm 0,0 UV-I 0 W/m 4,6 C 5,2 C 1,6 km/h (1 Bft) 100,00 %
27.04.2017 00:54 5,2 C 10,0 C 96 % 1010,8 hPa 0,0 l/m 0,8 km/h (0 Bft) O-NO 64 0 min 0,000 mm 0,0 UV-I 0 W/m 4,6 C 5,2 C 3,2 km/h (1 Bft) 97,56 %
27.04.2017 00:56 5,2 C 10,0 C 96 % 1010,7 hPa 0,0 l/m 1,1 km/h (1 Bft) O-NO 64 0 min 0,000 mm 0,0 UV-I 0 W/m 4,6 C 5,2 C 3,2 km/h (1 Bft) 100,00 %
27.04.2017 00:58 5,2 C 10,0 C 96 % 1010,7 hPa 0,0 l/m 1,0 km/h (0 Bft) O-NO 64 0 min 0,000 mm 0,0 UV-I 0 W/m 4,6 C 5,2 C 3,2 km/h (1 Bft) 100,00 %
27.04.2017 01:00 5,2 C 10,0 C 96 % 1010,7 hPa 0,0 l/m 2,1 km/h (1 Bft) O-NO 64 0 min 0,000 mm 0,0 UV-I 0 W/m 4,6 C 5,2 C 3,2 km/h (1 Bft) 97,87 %
27.04.2017 01:02 5,2 C 10,0 C 96 % 1010,7 hPa 0,2 l/m 2,6 km/h (1 Bft) O-NO 64 0 min 0,000 mm 0,0 UV-I 0 W/m 4,6 C 5,2 C 3,2 km/h (1 Bft) 95,74 %
27.04.2017 01:04 5,2 C 10,0 C 96 % 1010,6 hPa 0,0 l/m 1,2 km/h (1 Bft) O-NO 64 0 min 0,000 mm 0,0 UV-I 0 W/m 4,6 C 5,2 C 3,2 km/h (1 Bft) 98,00 %
27.04.2017 01:06 5,2 C 10,0 C 96 % 1010,6 hPa 0,0 l/m 0,0 km/h (0 Bft) O-NO 64 0 min 0,000 mm 0,0 UV-I 0 W/m 4,6 C 5,2 C 0,0 km/h (0 Bft) 95,74 %
27.04.2017 01:08 5,1 C 10,0 C 96 % 1010,6 hPa 0,0 l/m 0,8 km/h (0 Bft) O-NO 64 0 min 0,000 mm 0,0 UV-I 0 W/m 4,5 C 5,1 C 3,2 km/h (1 Bft) 98,00 %
27.04.2017 01:10 5,2 C 10,0 C 96 % 1010,7 hPa 0,0 l/m 1,9 km/h (1 Bft) O-NO 64 0 min 0,000 mm 0,0 UV-I 0 W/m 4,6 C 5,2 C 3,2 km/h (1 Bft) 94,00 %
27.04.2017 01:12 5,2 C 10,0 C 96 % 1010,6 hPa 0,2 l/m 2,0 km/h (1 Bft) O-NO 64 0 min 0,000 mm 0,0 UV-I 0 W/m 4,6 C 5,2 C 3,2 km/h (1 Bft) 97,87 %
27.04.2017 01:14 5,2 C 10,0 C 96 % 1010,6 hPa 0,0 l/m 2,2 km/h (1 Bft) O-NO 64 0 min 0,000 mm 0,0 UV-I 0 W/m 4,6 C 5,2 C 3,2 km/h (1 Bft) 97,37 %
27.04.2017 01:16 5,2 C 10,0 C 96 % 1010,7 hPa 0,0 l/m 2,0 km/h (1 Bft) O-NO 64 0 min 0,000 mm 0,0 UV-I 0 W/m 4,6 C 5,2 C 3,2 km/h (1 Bft) 98,11 %
27.04.2017 01:18 5,1 C 10,0 C 96 % 1010,7 hPa 0,2 l/m 2,7 km/h (1 Bft) O-NO 64 0 min 0,000 mm 0,0 UV-I 0 W/m 4,5 C 5,1 C 4,8 km/h (1 Bft) 97,37 %
27.04.2017 01:20 5,1 C 10,0 C 96 % 1010,6 hPa 0,0 l/m 2,7 km/h (1 Bft) O-NO 69 0 min 0,000 mm 0,0 UV-I 0 W/m 4,5 C 5,1 C 4,8 km/h (1 Bft) 96,23 %
27.04.2017 01:22 5,1 C 10,0 C 96 % 1010,6 hPa 0,0 l/m 2,5 km/h (1 Bft) O-NO 69 0 min 0,000 mm 0,0 UV-I 0 W/m 4,5 C 5,1 C 4,8 km/h (1 Bft) 94,00 %
27.04.2017 01:24 5,1 C 10,0 C 96 % 1010,6 hPa 0,0 l/m 1,8 km/h (1 Bft) O-NO 69 0 min 0,000 mm 0,0 UV-I 0 W/m 4,5 C 5,1 C 3,2 km/h (1 Bft) 93,62 %
27.04.2017 01:26 5,1 C 10,0 C 96 % 1010,6 hPa 0,0 l/m 1,6 km/h (1 Bft) O-NO 69 0 min 0,000 mm 0,0 UV-I 0 W/m 4,5 C 5,1 C 3,2 km/h (1 Bft) 97,50 %
27.04.2017 01:28 5,0 C 10,0 C 96 % 1010,5 hPa 0,0 l/m 2,3 km/h (1 Bft) O-NO 69 0 min 0,000 mm 0,0 UV-I 0 W/m 4,4 C 5,0 C 4,8 km/h (1 Bft) 97,73 %
27.04.2017 01:30 5,1 C 10,0 C 96 % 1010,5 hPa 0,0 l/m 2,2 km/h (1 Bft) O-NO 69 0 min 0,000 mm 0,0 UV-I 0 W/m 4,5 C 5,1 C 4,8 km/h (1 Bft) 96,43 %
27.04.2017 01:32 5,1 C 10,0 C 96 % 1010,5 hPa 0,0 l/m 3,4 km/h (1 Bft) O-NO 69 0 min 0,000 mm 0,0 UV-I 0 W/m 4,5 C 5,1 C 4,8 km/h (1 Bft) 95,74 %
27.04.2017 01:34 5,1 C 10,0 C 96 % 1010,4 hPa 0,0 l/m 2,2 km/h (1 Bft) O-NO 69 0 min 0,000 mm 0,0 UV-I 0 W/m 4,5 C 5,1 C 4,8 km/h (1 Bft) 97,37 %
27.04.2017 01:36 5,1 C 10,0 C 96 % 1010,4 hPa 0,2 l/m 2,4 km/h (1 Bft) O-NO 69 0 min 0,000 mm 0,0 UV-I 0 W/m 4,5 C 5,1 C 4,8 km/h (1 Bft) 96,00 %
27.04.2017 01:38 5,1 C 10,0 C 96 % 1010,4 hPa 0,0 l/m 2,3 km/h (1 Bft) O-NO 69 0 min 0,000 mm 0,0 UV-I 0 W/m 4,5 C 5,1 C 3,2 km/h (1 Bft) 98,00 %
27.04.2017 01:40 5,1 C 10,0 C 96 % 1010,4 hPa 0,0 l/m 1,1 km/h (1 Bft) O-NO 69 0 min 0,000 mm 0,0 UV-I 0 W/m 4,5 C 5,1 C 3,2 km/h (1 Bft) 96,00 %
27.04.2017 01:42 5,1 C 10,0 C 96 % 1010,4 hPa 0,0 l/m 1,3 km/h (1 Bft) O-NO 69 0 min 0,000 mm 0,0 UV-I 0 W/m 4,5 C 5,1 C 3,2 km/h (1 Bft) 97,73 %
27.04.2017 01:44 5,1 C 10,0 C 96 % 1010,4 hPa 0,0 l/m 0,8 km/h (0 Bft) O-NO 69 0 min 0,000 mm 0,0 UV-I 0 W/m 4,5 C 5,1 C 3,2 km/h (1 Bft) 93,62 %
27.04.2017 01:46 5,1 C 10,0 C 96 % 1010,3 hPa 0,0 l/m 1,0 km/h (0 Bft) O-NO 69 0 min 0,000 mm 0,0 UV-I 0 W/m 4,5 C 5,1 C 3,2 km/h (1 Bft) 95,74 %
27.04.2017 01:48 5,2 C 10,0 C 96 % 1010,4 hPa 0,2 l/m 2,2 km/h (1 Bft) O-NO 69 0 min 0,000 mm 0,0 UV-I 0 W/m 4,6 C 5,2 C 4,8 km/h (1 Bft) 95,12 %
27.04.2017 01:50 5,2 C 10,0 C 96 % 1010,4 hPa 0,0 l/m 1,6 km/h (1 Bft) O-NO 69 0 min 0,000 mm 0,0 UV-I 0 W/m 4,6 C 5,2 C 3,2 km/h (1 Bft) 96,23 %
27.04.2017 01:52 5,2 C 10,0 C 96 % 1010,5 hPa 0,0 l/m 0,6 km/h (0 Bft) O-NO 69 0 min 0,000 mm 0,0 UV-I 0 W/m 4,6 C 5,2 C 1,6 km/h (1 Bft) 95,12 %
27.04.2017 01:54 5,2 C 10,0 C 96 % 1010,5 hPa 0,0 l/m 0,1 km/h (0 Bft) O-NO 69 0 min 0,000 mm 0,0 UV-I 0 W/m 4,6 C 5,2 C 1,6 km/h (1 Bft) 98,00 %
27.04.2017 01:56 5,2 C 10,0 C 96 % 1010,5 hPa 0,0 l/m 0,5 km/h (0 Bft) O-NO 69 0 min 0,000 mm 0,0 UV-I 0 W/m 4,6 C 5,2 C 3,2 km/h (1 Bft) 92,59 %
27.04.2017 01:58 5,1 C 10,0 C 96 % 1010,5 hPa 0,0 l/m 0,9 km/h (0 Bft) O-NO 69 0 min 0,000 mm 0,0 UV-I 0 W/m 4,5 C 5,1 C 3,2 km/h (1 Bft) 93,75 %
27.04.2017 02:00 5,1 C 10,0 C 96 % 1010,5 hPa 0,0 l/m 2,1 km/h (1 Bft) O-NO 69 0 min 0,000 mm 0,0 UV-I 0 W/m 4,5 C 5,1 C 4,8 km/h (1 Bft) 98,21 %
27.04.2017 02:02 5,1 C 10,0 C 96 % 1010,4 hPa 0,0 l/m 0,0 km/h (0 Bft) O-NO 69 0 min 0,000 mm 0,0 UV-I 0 W/m 4,5 C 5,1 C 1,6 km/h (1 Bft) 92,31 %
27.04.2017 02:04 5,1 C 10,0 C 96 % 1010,5 hPa 0,0 l/m 0,0 km/h (0 Bft) O-NO 69 0 min 0,000 mm 0,0 UV-I 0 W/m 4,5 C 5,1 C 0,0 km/h (0 Bft) 97,87 %
27.04.2017 02:06 5,1 C 10,0 C 96 % 1010,5 hPa 0,0 l/m 0,0 km/h (0 Bft) O-NO 69 0 min 0,000 mm 0,0 UV-I 0 W/m 4,5 C 5,1 C 0,0 km/h (0 Bft) 96,00 %
27.04.2017 02:08 5,1 C 10,0 C 96 % 1010,5 hPa 0,2 l/m 0,0 km/h (0 Bft) O-NO 69 0 min 0,000 mm 0,0 UV-I 0 W/m 4,5 C 5,1 C 0,0 km/h (0 Bft) 97,56 %
27.04.2017 02:10 5,1 C 10,0 C 96 % 1010,4 hPa 0,0 l/m 0,0 km/h (0 Bft) O-NO 69 0 min 0,000 mm 0,0 UV-I 0 W/m 4,5 C 5,1 C 0,0 km/h (0 Bft) 96,23 %
27.04.2017 02:12 5,1 C 10,0 C 96 % 1010,3 hPa 0,0 l/m 0,0 km/h (0 Bft) O-NO 69 0 min 0,000 mm 0,0 UV-I 0 W/m 4,5 C 5,1 C 0,0 km/h (0 Bft) 93,62 %
27.04.2017 02:14 5,1 C 10,0 C 96 % 1010,4 hPa 0,0 l/m 0,0 km/h (0 Bft) O-NO 69 0 min 0,000 mm 0,0 UV-I 0 W/m 4,5 C 5,1 C 1,6 km/h (1 Bft) 96,00 %
27.04.2017 02:16 5,1 C 10,0 C 96 % 1010,3 hPa 0,2 l/m 0,1 km/h (0 Bft) O-NO 69 0 min 0,000 mm 0,0 UV-I 0 W/m 4,5 C 5,1 C 1,6 km/h (1 Bft) 97,37 %
27.04.2017 02:18 5,1 C 10,0 C 96 % 1010,2 hPa 0,0 l/m 0,0 km/h (0 Bft) O-NO 69 0 min 0,000 mm 0,0 UV-I 0 W/m 4,5 C 5,1 C 1,6 km/h (1 Bft) 97,87 %
27.04.2017 02:20 5,1 C 10,0 C 96 % 1010,4 hPa 0,0 l/m 0,0 km/h (0 Bft) O-NO 69 0 min 0,000 mm 0,0 UV-I 0 W/m 4,5 C 5,1 C 1,6 km/h (1 Bft) 94,00 %
27.04.2017 02:22 5,1 C 10,0 C 96 % 1010,5 hPa 0,0 l/m 0,0 km/h (0 Bft) O-NO 69 0 min 0,000 mm 0,0 UV-I 0 W/m 4,5 C 5,1 C 0,0 km/h (0 Bft) 95,74 %
27.04.2017 02:24 5,1 C 10,0 C 96 % 1010,4 hPa 0,2 l/m 0,0 km/h (0 Bft) O-NO 69 0 min 0,000 mm 0,0 UV-I 0 W/m 4,5 C 5,1 C 1,6 km/h (1 Bft) 98,00 %
27.04.2017 02:26 5,1 C 10,0 C 97 % 1010,4 hPa 0,0 l/m 0,1 km/h (0 Bft) O-NO 69 0 min 0,000 mm 0,0 UV-I 0 W/m 4,7 C 5,1 C 1,6 km/h (1 Bft) 98,00 %
27.04.2017 02:28 5,1 C 10,0 C 97 % 1010,3 hPa 0,0 l/m 0,1 km/h (0 Bft) O-NO 69 0 min 0,000 mm 0,0 UV-I 0 W/m 4,7 C 5,1 C 1,6 km/h (1 Bft) 97,14 %
27.04.2017 02:30 5,1 C 10,0 C 97 % 1010,4 hPa 0,0 l/m 0,1 km/h (0 Bft) O-NO 69 0 min 0,000 mm 0,0 UV-I 0 W/m 4,7 C 5,1 C 1,6 km/h (1 Bft) 96,00 %
27.04.2017 02:32 5,1 C 10,0 C 97 % 1010,3 hPa 0,2 l/m 0,0 km/h (0 Bft) O-NO 69 0 min 0,000 mm 0,0 UV-I 0 W/m 4,7 C 5,1 C 0,0 km/h (0 Bft) 98,00 %
27.04.2017 02:34 5,1 C 10,0 C 97 % 1010,3 hPa 0,0 l/m 1,0 km/h (0 Bft) O-NO 69 0 min 0,000 mm 0,0 UV-I 0 W/m 4,7 C 5,1 C 3,2 km/h (1 Bft) 96,00 %
27.04.2017 02:36 5,1 C 10,0 C 97 % 1010,1 hPa 0,0 l/m 4,1 km/h (1 Bft) NO 49 0 min 0,000 mm 0,0 UV-I 0 W/m 4,7 C 5,1 C 6,4 km/h (2 Bft) 97,56 %
27.04.2017 02:38 5,1 C 10,0 C 97 % 1010,2 hPa 0,0 l/m 4,5 km/h (1 Bft) NO 49 0 min 0,000 mm 0,0 UV-I 0 W/m 4,7 C 5,1 C 6,4 km/h (2 Bft) 94,34 %
27.04.2017 02:40 5,0 C 10,0 C 97 % 1010,3 hPa 0,0 l/m 1,9 km/h (1 Bft) NO 49 0 min 0,000 mm 0,0 UV-I 0 W/m 4,6 C 5,0 C 4,8 km/h (1 Bft) 97,22 %
27.04.2017 02:42 5,0 C 10,0 C 97 % 1010,4 hPa 0,0 l/m 0,0 km/h (0 Bft) NO 49 0 min 0,000 mm 0,0 UV-I 0 W/m 4,6 C 5,0 C 0,0 km/h (0 Bft) 100,00 %
27.04.2017 02:44 5,0 C 10,0 C 97 % 1010,4 hPa 0,0 l/m 0,3 km/h (0 Bft) NO 49 0 min 0,000 mm 0,0 UV-I 0 W/m 4,6 C 5,0 C 1,6 km/h (1 Bft) 96,00 %
27.04.2017 02:46 5,0 C 10,0 C 96 % 1010,3 hPa 0,0 l/m 0,1 km/h (0 Bft) NO 49 0 min 0,000 mm 0,0 UV-I 0 W/m 4,4 C 5,0 C 1,6 km/h (1 Bft) 98,00 %
27.04.2017 02:48 5,0 C 10,0 C 96 % 1010,5 hPa 0,0 l/m 0,5 km/h (0 Bft) NO 46 0 min 0,000 mm 0,0 UV-I 0 W/m 4,4 C 5,0 C 3,2 km/h (1 Bft) 100,00 %
27.04.2017 02:50 5,0 C 10,0 C 96 % 1010,6 hPa 0,0 l/m 0,6 km/h (0 Bft) NO 46 0 min 0,000 mm 0,0 UV-I 0 W/m 4,4 C 5,0 C 3,2 km/h (1 Bft) 98,21 %
27.04.2017 02:52 4,9 C 10,0 C 96 % 1010,5 hPa 0,0 l/m 0,9 km/h (0 Bft) NO 45 0 min 0,000 mm 0,0 UV-I 0 W/m 4,3 C 4,9 C 3,2 km/h (1 Bft) 100,00 %
27.04.2017 02:54 4,9 C 10,0 C 96 % 1010,5 hPa 0,0 l/m 0,0 km/h (0 Bft) NO 45 0 min 0,000 mm 0,0 UV-I 0 W/m 4,3 C 4,9 C 0,0 km/h (0 Bft) 97,56 %
27.04.2017 02:56 4,9 C 10,0 C 96 % 1010,5 hPa 0,0 l/m 0,0 km/h (0 Bft) NO 45 0 min 0,000 mm 0,0 UV-I 0 W/m 4,3 C 4,9 C 1,6 km/h (1 Bft) 100,00 %
27.04.2017 02:58 4,9 C 10,0 C 97 % 1010,4 hPa 0,0 l/m 1,0 km/h (0 Bft) NO 44 0 min 0,000 mm 0,0 UV-I 0 W/m 4,5 C 4,9 C 4,8 km/h (1 Bft) 96,00 %
27.04.2017 03:00 4,9 C 10,0 C 96 % 1010,3 hPa 0,0 l/m 1,3 km/h (1 Bft) N-NO 32 0 min 0,000 mm 0,0 UV-I 0 W/m 4,3 C 4,9 C 3,2 km/h (1 Bft) 97,37 %
27.04.2017 03:02 4,8 C 10,0 C 96 % 1010,2 hPa 0,0 l/m 0,8 km/h (0 Bft) N-NO 12 0 min 0,000 mm 0,0 UV-I 0 W/m 4,2 C 4,8 C 3,2 km/h (1 Bft) 100,00 %
27.04.2017 03:04 4,8 C 10,0 C 96 % 1010,2 hPa 0,0 l/m 1,1 km/h (1 Bft) NW 325 0 min 0,000 mm 0,0 UV-I 0 W/m 4,2 C 4,8 C 3,2 km/h (1 Bft) 96,43 %
27.04.2017 03:06 4,8 C 10,0 C 97 % 1010,2 hPa 0,0 l/m 0,5 km/h (0 Bft) N-NW 331 0 min 0,000 mm 0,0 UV-I 0 W/m 4,4 C 4,8 C 3,2 km/h (1 Bft) 100,00 %
27.04.2017 03:08 4,8 C 10,0 C 97 % 1010,4 hPa 0,0 l/m 0,1 km/h (0 Bft) N-NW 331 0 min 0,000 mm 0,0 UV-I 0 W/m 4,4 C 4,8 C 1,6 km/h (1 Bft) 96,00 %
27.04.2017 03:10 4,7 C 10,0 C 97 % 1010,4 hPa 0,0 l/m 0,0 km/h (0 Bft) N-NW 331 0 min 0,000 mm 0,0 UV-I 0 W/m 4,3 C 4,7 C 1,6 km/h (1 Bft) 95,74 %
27.04.2017 03:12 4,8 C 10,0 C 97 % 1010,4 hPa 0,0 l/m 0,2 km/h (0 Bft) N-NW 331 0 min 0,000 mm 0,0 UV-I 0 W/m 4,4 C 4,8 C 1,6 km/h (1 Bft) 97,56 %
27.04.2017 03:14 4,7 C 10,0 C 97 % 1010,5 hPa 0,2 l/m 0,8 km/h (0 Bft) N-NW 331 0 min 0,000 mm 0,0 UV-I 0 W/m 4,3 C 4,7 C 3,2 km/h (1 Bft) 98,11 %
27.04.2017 03:16 4,7 C 10,0 C 97 % 1010,5 hPa 0,0 l/m 0,0 km/h (0 Bft) N-NW 331 0 min 0,000 mm 0,0 UV-I 0 W/m 4,3 C 4,7 C 0,0 km/h (0 Bft) 98,00 %
27.04.2017 03:18 4,8 C 10,0 C 97 % 1010,6 hPa 0,0 l/m 0,0 km/h (0 Bft) N-NW 331 0 min 0,000 mm 0,0 UV-I 0 W/m 4,4 C 4,8 C 0,0 km/h (0 Bft) 96,30 %
27.04.2017 03:20 4,7 C 10,0 C 97 % 1010,5 hPa 0,0 l/m 0,4 km/h (0 Bft) N-NW 331 0 min 0,000 mm 0,0 UV-I 0 W/m 4,3 C 4,7 C 1,6 km/h (1 Bft) 96,88 %
27.04.2017 03:22 4,7 C 10,0 C 97 % 1010,4 hPa 0,0 l/m 0,1 km/h (0 Bft) N-NW 331 0 min 0,000 mm 0,0 UV-I 0 W/m 4,3 C 4,7 C 1,6 km/h (1 Bft) 95,74 %
27.04.2017 03:24 4,7 C 10,0 C 97 % 1010,3 hPa 0,0 l/m 0,0 km/h (0 Bft) N-NW 331 0 min 0,000 mm 0,0 UV-I 0 W/m 4,3 C 4,7 C 0,0 km/h (0 Bft) 97,22 %
27.04.2017 03:26 4,7 C 10,0 C 97 % 1010,3 hPa 0,0 l/m 0,6 km/h (0 Bft) N-NW 331 0 min 0,000 mm 0,0 UV-I 0 W/m 4,3 C 4,7 C 3,2 km/h (1 Bft) 96,23 %
27.04.2017 03:28 4,7 C 10,0 C 97 % 1010,3 hPa 0,2 l/m 0,0 km/h (0 Bft) N-NW 331 0 min 0,000 mm 0,0 UV-I 0 W/m 4,3 C 4,7 C 1,6 km/h (1 Bft) 96,00 %
27.04.2017 03:30 4,7 C 10,0 C 97 % 1010,3 hPa 0,0 l/m 0,1 km/h (0 Bft) N-NW 331 0 min 0,000 mm 0,0 UV-I 0 W/m 4,3 C 4,7 C 1,6 km/h (1 Bft) 94,00 %
27.04.2017 03:32 4,7 C 10,0 C 97 % 1010,3 hPa 0,0 l/m 0,2 km/h (0 Bft) N-NW 331 0 min 0,000 mm 0,0 UV-I 0 W/m 4,3 C 4,7 C 1,6 km/h (1 Bft) 97,56 %
27.04.2017 03:34 4,7 C 10,0 C 97 % 1010,3 hPa 0,0 l/m 0,2 km/h (0 Bft) N-NW 331 0 min 0,000 mm 0,0 UV-I 0 W/m 4,3 C 4,7 C 1,6 km/h (1 Bft) 95,74 %
27.04.2017 03:36 4,7 C 10,0 C 96 % 1010,3 hPa 0,0 l/m 0,1 km/h (0 Bft) N-NW 331 0 min 0,000 mm 0,0 UV-I 0 W/m 4,1 C 4,7 C 1,6 km/h (1 Bft) 94,00 %
27.04.2017 03:38 4,7 C 10,0 C 97 % 1010,3 hPa 0,0 l/m 0,7 km/h (0 Bft) N-NW 331 0 min 0,000 mm 0,0 UV-I 0 W/m 4,3 C 4,7 C 3,2 km/h (1 Bft) 97,56 %
27.04.2017 03:40 4,7 C 10,0 C 97 % 1010,3 hPa 0,0 l/m 0,3 km/h (0 Bft) N-NW 331 0 min 0,000 mm 0,0 UV-I 0 W/m 4,3 C 4,7 C 1,6 km/h (1 Bft) 96,00 %
27.04.2017 03:42 4,6 C 10,0 C 96 % 1010,4 hPa 0,2 l/m 0,1 km/h (0 Bft) N-NW 331 0 min 0,000 mm 0,0 UV-I 0 W/m 4,0 C 4,6 C 1,6 km/h (1 Bft) 100,00 %
27.04.2017 03:44 4,6 C 10,0 C 96 % 1010,3 hPa 0,0 l/m 0,3 km/h (0 Bft) N-NW 331 0 min 0,000 mm 0,0 UV-I 0 W/m 4,0 C 4,6 C 1,6 km/h (1 Bft) 100,00 %
27.04.2017 03:46 4,6 C 10,0 C 96 % 1010,3 hPa 0,0 l/m 0,3 km/h (0 Bft) N-NW 331 0 min 0,000 mm 0,0 UV-I 0 W/m 4,0 C 4,6 C 1,6 km/h (1 Bft) 97,37 %
27.04.2017 03:48 4,4 C 10,0 C 96 % 1010,3 hPa 0,0 l/m 1,0 km/h (0 Bft) N-NW 331 0 min 0,000 mm 0,0 UV-I 0 W/m 3,8 C 4,4 C 3,2 km/h (1 Bft) 98,00 %
27.04.2017 03:50 4,4 C 10,0 C 96 % 1010,3 hPa 0,0 l/m 0,2 km/h (0 Bft) N-NW 331 0 min 0,000 mm 0,0 UV-I 0 W/m 3,8 C 4,4 C 1,6 km/h (1 Bft) 100,00 %
27.04.2017 03:52 4,3 C 10,0 C 96 % 1010,2 hPa 0,0 l/m 0,3 km/h (0 Bft) N-NW 331 0 min 0,000 mm 0,0 UV-I 0 W/m 3,7 C 4,3 C 1,6 km/h (1 Bft) 96,23 %
27.04.2017 03:54 4,3 C 10,0 C 96 % 1010,3 hPa 0,0 l/m 0,0 km/h (0 Bft) N-NW 331 0 min 0,000 mm 0,0 UV-I 0 W/m 3,7 C 4,3 C 0,0 km/h (0 Bft) 97,87 %
27.04.2017 03:56 4,3 C 10,0 C 96 % 1010,4 hPa 0,0 l/m 0,5 km/h (0 Bft) N-NW 331 0 min 0,000 mm 0,0 UV-I 0 W/m 3,7 C 4,3 C 1,6 km/h (1 Bft) 97,22 %
27.04.2017 03:58 4,3 C 10,0 C 97 % 1010,3 hPa 0,0 l/m 0,6 km/h (0 Bft) N-NW 331 0 min 0,000 mm 0,0 UV-I 0 W/m 3,9 C 4,3 C 3,2 km/h (1 Bft) 96,00 %
27.04.2017 04:00 4,3 C 10,0 C 96 % 1010,2 hPa 0,0 l/m 0,2 km/h (0 Bft) N-NW 331 0 min 0,000 mm 0,0 UV-I 0 W/m 3,7 C 4,3 C 1,6 km/h (1 Bft) 100,00 %
27.04.2017 04:02 4,3 C 10,0 C 96 % 1010,3 hPa 0,0 l/m 0,0 km/h (0 Bft) N-NW 331 0 min 0,000 mm 0,0 UV-I 0 W/m 3,7 C 4,3 C 0,0 km/h (0 Bft) 100,00 %
27.04.2017 04:04 4,3 C 10,0 C 96 % 1010,2 hPa 0,0 l/m 0,0 km/h (0 Bft) N-NW 331 0 min 0,000 mm 0,0 UV-I 0 W/m 3,7 C 4,3 C 1,6 km/h (1 Bft) 97,73 %
27.04.2017 04:06 4,3 C 10,0 C 97 % 1010,1 hPa 0,0 l/m 1,4 km/h (1 Bft) N-NW 332 0 min 0,000 mm 0,0 UV-I 0 W/m 3,9 C 4,3 C 3,2 km/h (1 Bft) 100,00 %
27.04.2017 04:08 4,4 C 10,0 C 96 % 1010,1 hPa 0,0 l/m 1,6 km/h (1 Bft) N-NW 334 0 min 0,000 mm 0,0 UV-I 0 W/m 3,8 C 4,4 C 3,2 km/h (1 Bft) 97,87 %
27.04.2017 04:10 4,3 C 10,0 C 97 % 1010,0 hPa 0,0 l/m 3,2 km/h (1 Bft) N 350 0 min 0,000 mm 0,0 UV-I 0 W/m 3,9 C 4,3 C 4,8 km/h (1 Bft) 97,87 %
27.04.2017 04:12 4,3 C 10,0 C 96 % 1010,0 hPa 0,0 l/m 1,7 km/h (1 Bft) N 355 0 min 0,000 mm 0,0 UV-I 0 W/m 3,7 C 4,3 C 4,8 km/h (1 Bft) 98,00 %
27.04.2017 04:14 4,3 C 10,0 C 96 % 1009,9 hPa 0,0 l/m 1,3 km/h (1 Bft) N 5 0 min 0,000 mm 0,0 UV-I 0 W/m 3,7 C 4,3 C 4,8 km/h (1 Bft) 97,87 %
27.04.2017 04:16 4,3 C 10,0 C 96 % 1010,0 hPa 0,0 l/m 2,1 km/h (1 Bft) N 5 0 min 0,000 mm 0,0 UV-I 0 W/m 3,7 C 4,3 C 3,2 km/h (1 Bft) 97,14 %
27.04.2017 04:18 4,3 C 10,0 C 96 % 1010,0 hPa 0,0 l/m 0,4 km/h (0 Bft) N 5 0 min 0,000 mm 0,0 UV-I 0 W/m 3,7 C 4,3 C 1,6 km/h (1 Bft) 97,56 %
27.04.2017 04:20 4,3 C 10,0 C 96 % 1010,0 hPa 0,0 l/m 0,0 km/h (0 Bft) N 5 0 min 0,000 mm 0,0 UV-I 0 W/m 3,7 C 4,3 C 0,0 km/h (0 Bft) 98,39 %
27.04.2017 04:22 4,3 C 10,0 C 96 % 1009,9 hPa 0,2 l/m 0,9 km/h (0 Bft) N 5 0 min 0,000 mm 0,0 UV-I 0 W/m 3,7 C 4,3 C 3,2 km/h (1 Bft) 94,74 %
27.04.2017 04:24 4,3 C 10,0 C 96 % 1009,9 hPa 0,0 l/m 2,1 km/h (1 Bft) N 5 0 min 0,000 mm 0,0 UV-I 0 W/m 3,7 C 4,3 C 3,2 km/h (1 Bft) 97,87 %
27.04.2017 04:26 4,3 C 10,0 C 96 % 1009,9 hPa 0,0 l/m 3,3 km/h (1 Bft) N-NO 15 0 min 0,000 mm 0,0 UV-I 0 W/m 3,7 C 4,3 C 4,8 km/h (1 Bft) 100,00 %
27.04.2017 04:28 4,3 C 10,0 C 96 % 1009,9 hPa 0,0 l/m 2,0 km/h (1 Bft) N-NO 15 0 min 0,000 mm 0,0 UV-I 0 W/m 3,7 C 4,3 C 4,8 km/h (1 Bft) 97,73 %
27.04.2017 04:30 4,3 C 10,0 C 96 % 1010,1 hPa 0,0 l/m 0,7 km/h (0 Bft) N-NO 15 0 min 0,000 mm 0,0 UV-I 0 W/m 3,7 C 4,3 C 3,2 km/h (1 Bft) 100,00 %
27.04.2017 04:32 4,2 C 10,0 C 96 % 1010,2 hPa 0,0 l/m 0,0 km/h (0 Bft) N-NO 15 0 min 0,000 mm 0,0 UV-I 0 W/m 3,6 C 4,2 C 0,0 km/h (0 Bft) 98,00 %
27.04.2017 04:34 4,3 C 10,0 C 96 % 1010,1 hPa 0,0 l/m 0,0 km/h (0 Bft) N-NO 15 0 min 0,000 mm 0,0 UV-I 0 W/m 3,7 C 4,3 C 0,0 km/h (0 Bft) 100,00 %
27.04.2017 04:36 4,3 C 10,0 C 96 % 1010,2 hPa 0,0 l/m 0,0 km/h (0 Bft) N-NO 15 0 min 0,000 mm 0,0 UV-I 0 W/m 3,7 C 4,3 C 0,0 km/h (0 Bft) 97,87 %
27.04.2017 04:38 4,3 C 10,0 C 96 % 1010,1 hPa 0,0 l/m 0,0 km/h (0 Bft) N-NO 15 0 min 0,000 mm 0,0 UV-I 0 W/m 3,7 C 4,3 C 0,0 km/h (0 Bft) 98,00 %
27.04.2017 04:40 4,3 C 10,0 C 96 % 1010,1 hPa 0,0 l/m 0,0 km/h (0 Bft) N-NO 15 0 min 0,000 mm 0,0 UV-I 0 W/m 3,7 C 4,3 C 0,0 km/h (0 Bft) 100,00 %
27.04.2017 04:42 4,3 C 10,0 C 96 % 1010,1 hPa 0,0 l/m 0,0 km/h (0 Bft) N-NO 15 0 min 0,000 mm 0,0 UV-I 0 W/m 3,7 C 4,3 C 0,0 km/h (0 Bft) 97,87 %
27.04.2017 04:44 4,3 C 10,0 C 96 % 1010,2 hPa 0,0 l/m 0,0 km/h (0 Bft) N-NO 15 0 min 0,000 mm 0,0 UV-I 0 W/m 3,7 C 4,3 C 0,0 km/h (0 Bft) 100,00 %
27.04.2017 04:46 4,3 C 10,0 C 96 % 1010,4 hPa 0,0 l/m 0,0 km/h (0 Bft) N-NO 15 0 min 0,000 mm 0,0 UV-I 0 W/m 3,7 C 4,3 C 1,6 km/h (1 Bft) 98,11 %
27.04.2017 04:48 4,3 C 10,0 C 96 % 1010,3 hPa 0,0 l/m 0,0 km/h (0 Bft) N-NO 15 0 min 0,000 mm 0,0 UV-I 0 W/m 3,7 C 4,3 C 0,0 km/h (0 Bft) 98,00 %
27.04.2017 04:50 4,3 C 10,0 C 96 % 1010,3 hPa 0,0 l/m 0,0 km/h (0 Bft) N-NO 15 0 min 0,000 mm 0,0 UV-I 0 W/m 3,7 C 4,3 C 0,0 km/h (0 Bft) 100,00 %
27.04.2017 04:52 4,3 C 10,0 C 96 % 1010,2 hPa 0,0 l/m 0,0 km/h (0 Bft) N-NO 15 0 min 0,000 mm 0,0 UV-I 0 W/m 3,7 C 4,3 C 0,0 km/h (0 Bft) 97,87 %
27.04.2017 04:54 4,3 C 10,0 C 96 % 1010,2 hPa 0,0 l/m 0,0 km/h (0 Bft) N-NO 15 0 min 0,000 mm 0,0 UV-I 0 W/m 3,7 C 4,3 C 0,0 km/h (0 Bft) 100,00 %
27.04.2017 04:56 4,3 C 10,0 C 96 % 1010,3 hPa 0,0 l/m 0,0 km/h (0 Bft) N-NO 15 0 min 0,000 mm 0,0 UV-I 0 W/m 3,7 C 4,3 C 0,0 km/h (0 Bft) 100,00 %
27.04.2017 04:58 4,4 C 10,0 C 97 % 1010,3 hPa 0,0 l/m 0,0 km/h (0 Bft) N-NO 15 0 min 0,000 mm 0,0 UV-I 0 W/m 4,0 C 4,4 C 0,0 km/h (0 Bft) 100,00 %
27.04.2017 05:00 4,4 C 10,0 C 97 % 1010,3 hPa 0,0 l/m 0,0 km/h (0 Bft) N-NO 15 0 min 0,000 mm 0,0 UV-I 0 W/m 4,0 C 4,4 C 0,0 km/h (0 Bft) 100,00 %
27.04.2017 05:02 4,4 C 10,0 C 97 % 1010,4 hPa 0,0 l/m 0,2 km/h (0 Bft) N-NO 15 0 min 0,000 mm 0,0 UV-I 0 W/m 4,0 C 4,4 C 1,6 km/h (1 Bft) 98,21 %
27.04.2017 05:04 4,4 C 10,0 C 97 % 1010,4 hPa 0,2 l/m 0,8 km/h (0 Bft) N-NO 15 0 min 0,000 mm 0,0 UV-I 0 W/m 4,0 C 4,4 C 3,2 km/h (1 Bft) 100,00 %
27.04.2017 05:06 4,3 C 10,0 C 96 % 1010,3 hPa 0,0 l/m 0,4 km/h (0 Bft) N-NO 15 0 min 0,000 mm 0,0 UV-I 0 W/m 3,7 C 4,3 C 3,2 km/h (1 Bft) 100,00 %
27.04.2017 05:08 4,3 C 10,0 C 96 % 1010,3 hPa 0,0 l/m 0,0 km/h (0 Bft) N-NO 15 0 min 0,000 mm 0,0 UV-I 0 W/m 3,7 C 4,3 C 1,6 km/h (1 Bft) 91,49 %
27.04.2017 05:10 4,3 C 10,0 C 97 % 1010,4 hPa 0,0 l/m 0,0 km/h (0 Bft) N-NO 15 0 min 0,000 mm 0,0 UV-I 0 W/m 3,9 C 4,3 C 0,0 km/h (0 Bft) 91,49 %
27.04.2017 05:12 4,4 C 10,0 C 97 % 1010,4 hPa 0,0 l/m 0,0 km/h (0 Bft) N-NO 15 0 min 0,000 mm 0,0 UV-I 0 W/m 4,0 C 4,4 C 0,0 km/h (0 Bft) 95,74 %
27.04.2017 05:14 4,4 C 10,0 C 97 % 1010,4 hPa 0,2 l/m 0,1 km/h (0 Bft) N-NO 15 0 min 0,000 mm 0,0 UV-I 0 W/m 4,0 C 4,4 C 1,6 km/h (1 Bft) 94,00 %
27.04.2017 05:16 4,3 C 10,0 C 97 % 1010,3 hPa 0,0 l/m 0,1 km/h (0 Bft) N-NO 15 0 min 0,000 mm 0,0 UV-I 0 W/m 3,9 C 4,3 C 1,6 km/h (1 Bft) 94,74 %
27.04.2017 05:18 4,3 C 10,0 C 96 % 1010,3 hPa 0,0 l/m 0,0 km/h (0 Bft) N-NO 15 0 min 0,000 mm 0,0 UV-I 0 W/m 3,7 C 4,3 C 0,0 km/h (0 Bft) 94,34 %
27.04.2017 05:20 4,3 C 10,0 C 97 % 1010,4 hPa 0,0 l/m 0,0 km/h (0 Bft) N-NO 15 0 min 0,000 mm 0,0 UV-I 0 W/m 3,9 C 4,3 C 0,0 km/h (0 Bft) 93,62 %
27.04.2017 05:22 4,3 C 10,0 C 97 % 1010,3 hPa 0,0 l/m 0,0 km/h (0 Bft) N-NO 15 0 min 0,000 mm 0,0 UV-I 0 W/m 3,9 C 4,3 C 1,6 km/h (1 Bft) 94,87 %
27.04.2017 05:24 4,3 C 10,0 C 97 % 1010,2 hPa 0,0 l/m 0,0 km/h (0 Bft) N-NO 15 0 min 0,000 mm 0,0 UV-I 0 W/m 3,9 C 4,3 C 1,6 km/h (1 Bft) 93,62 %
27.04.2017 05:26 4,3 C 10,0 C 97 % 1010,2 hPa 0,0 l/m 0,7 km/h (0 Bft) N-NO 15 0 min 0,000 mm 0,0 UV-I 0 W/m 3,9 C 4,3 C 3,2 km/h (1 Bft) 96,23 %
27.04.2017 05:28 4,3 C 10,0 C 97 % 1010,1 hPa 0,0 l/m 1,0 km/h (0 Bft) N-NO 15 0 min 0,000 mm 0,0 UV-I 0 W/m 3,9 C 4,3 C 4,8 km/h (1 Bft) 89,36 %
27.04.2017 05:30 4,3 C 10,0 C 97 % 1010,1 hPa 0,0 l/m 1,9 km/h (1 Bft) N-NO 15 0 min 0,000 mm 0,0 UV-I 0 W/m 3,9 C 4,3 C 3,2 km/h (1 Bft) 94,74 %
27.04.2017 05:32 4,3 C 10,0 C 97 % 1010,1 hPa 0,2 l/m 0,8 km/h (0 Bft) N-NO 15 0 min 0,000 mm 0,0 UV-I 0 W/m 3,9 C 4,3 C 4,8 km/h (1 Bft) 91,07 %
27.04.2017 05:34 4,3 C 10,0 C 97 % 1010,1 hPa 0,0 l/m 0,7 km/h (0 Bft) N-NO 15 0 min 0,000 mm 0,0 UV-I 0 W/m 3,9 C 4,3 C 3,2 km/h (1 Bft) 93,62 %
27.04.2017 05:36 4,3 C 10,0 C 97 % 1010,1 hPa 0,0 l/m 0,4 km/h (0 Bft) N-NO 15 0 min 0,000 mm 0,0 UV-I 0 W/m 3,9 C 4,3 C 1,6 km/h (1 Bft) 96,00 %
27.04.2017 05:38 4,3 C 10,0 C 97 % 1010,2 hPa 0,0 l/m 1,0 km/h (0 Bft) N-NO 16 0 min 0,000 mm 0,0 UV-I 0 W/m 3,9 C 4,3 C 4,8 km/h (1 Bft) 91,49 %
27.04.2017 05:40 4,3 C 10,0 C 97 % 1010,1 hPa 0,0 l/m 0,6 km/h (0 Bft) N-NO 16 0 min 0,000 mm 0,0 UV-I 0 W/m 3,9 C 4,3 C 3,2 km/h (1 Bft) 94,74 %
27.04.2017 05:42 4,3 C 10,0 C 97 % 1010,1 hPa 0,0 l/m 0,7 km/h (0 Bft) N-NO 16 0 min 0,000 mm 0,0 UV-I 0 W/m 3,9 C 4,3 C 3,2 km/h (1 Bft) 93,62 %
27.04.2017 05:44 4,3 C 10,0 C 97 % 1010,1 hPa 0,0 l/m 1,8 km/h (1 Bft) N-NO 16 0 min 0,000 mm 0,0 UV-I 0 W/m 3,9 C 4,3 C 4,8 km/h (1 Bft) 98,11 %
27.04.2017 05:46 4,3 C 10,0 C 97 % 1010,2 hPa 0,0 l/m 0,5 km/h (0 Bft) N-NO 16 0 min 0,000 mm 0,0 UV-I 0 W/m 3,9 C 4,3 C 3,2 km/h (1 Bft) 94,74 %
27.04.2017 05:48 4,3 C 10,0 C 97 % 1010,2 hPa 0,2 l/m 0,4 km/h (0 Bft) N-NO 16 0 min 0,000 mm 0,0 UV-I 0 W/m 3,9 C 4,3 C 1,6 km/h (1 Bft) 96,61 %
27.04.2017 05:50 4,3 C 10,0 C 97 % 1010,2 hPa 0,0 l/m 0,4 km/h (0 Bft) N-NO 16 0 min 0,000 mm 0,0 UV-I 0 W/m 3,9 C 4,3 C 1,6 km/h (1 Bft) 97,22 %
27.04.2017 05:52 4,3 C 10,0 C 97 % 1010,2 hPa 0,0 l/m 0,8 km/h (0 Bft) N-NO 16 0 min 0,000 mm 0,0 UV-I 0 W/m 3,9 C 4,3 C 3,2 km/h (1 Bft) 95,74 %
27.04.2017 05:54 4,4 C 10,0 C 97 % 1010,2 hPa 0,0 l/m 0,9 km/h (0 Bft) N-NO 16 0 min 0,000 mm 0,0 UV-I 0 W/m 4,0 C 4,4 C 4,8 km/h (1 Bft) 94,34 %
27.04.2017 05:56 4,4 C 10,0 C 97 % 1010,2 hPa 0,0 l/m 2,3 km/h (1 Bft) N-NO 15 0 min 0,000 mm 0,0 UV-I 0 W/m 4,0 C 4,4 C 4,8 km/h (1 Bft) 97,87 %
27.04.2017 05:58 4,4 C 10,0 C 97 % 1010,3 hPa 0,0 l/m 0,1 km/h (0 Bft) N-NO 15 0 min 0,000 mm 0,0 UV-I 0 W/m 4,0 C 4,4 C 1,6 km/h (1 Bft) 96,00 %
27.04.2017 06:00 4,3 C 10,0 C 97 % 1010,4 hPa 0,0 l/m 0,1 km/h (0 Bft) N-NO 15 0 min 0,000 mm 0,0 UV-I 3 W/m 3,9 C 4,3 C 1,6 km/h (1 Bft) 94,87 %
27.04.2017 06:02 4,3 C 10,0 C 97 % 1010,3 hPa 0,0 l/m 1,6 km/h (1 Bft) N-NO 15 0 min 0,000 mm 0,0 UV-I 5 W/m 3,9 C 4,3 C 4,8 km/h (1 Bft) 96,00 %
27.04.2017 06:04 4,3 C 10,0 C 97 % 1010,3 hPa 0,0 l/m 1,5 km/h (1 Bft) N-NO 15 0 min 0,000 mm 0,0 UV-I 5 W/m 3,9 C 4,3 C 4,8 km/h (1 Bft) 95,65 %
27.04.2017 06:06 4,3 C 10,0 C 97 % 1010,4 hPa 0,0 l/m 1,0 km/h (0 Bft) N-NO 15 0 min 0,000 mm 0,0 UV-I 5 W/m 3,9 C 4,3 C 3,2 km/h (1 Bft) 97,18 %
27.04.2017 06:08 4,2 C 10,0 C 97 % 1010,5 hPa 0,0 l/m 1,4 km/h (1 Bft) N 11 0 min 0,000 mm 0,0 UV-I 5 W/m 3,8 C 4,2 C 3,2 km/h (1 Bft) 96,00 %
27.04.2017 06:10 4,2 C 10,0 C 97 % 1010,5 hPa 0,0 l/m 0,8 km/h (0 Bft) N 11 0 min 0,000 mm 0,0 UV-I 5 W/m 3,8 C 4,2 C 3,2 km/h (1 Bft) 95,12 %
27.04.2017 06:12 4,2 C 10,0 C 97 % 1010,6 hPa 0,0 l/m 0,7 km/h (0 Bft) N 11 0 min 0,000 mm 0,0 UV-I 7 W/m 3,8 C 4,2 C 3,2 km/h (1 Bft) 98,11 %
27.04.2017 06:14 4,2 C 10,0 C 97 % 1010,6 hPa 0,0 l/m 0,2 km/h (0 Bft) N 11 0 min 0,000 mm 0,0 UV-I 7 W/m 3,8 C 4,2 C 3,2 km/h (1 Bft) 97,37 %
27.04.2017 06:16 4,2 C 10,0 C 97 % 1010,5 hPa 0,0 l/m 0,1 km/h (0 Bft) N 11 0 min 0,000 mm 0,0 UV-I 7 W/m 3,8 C 4,2 C 1,6 km/h (1 Bft) 100,00 %
27.04.2017 06:18 4,2 C 10,0 C 97 % 1010,5 hPa 0,0 l/m 0,2 km/h (0 Bft) N 11 0 min 0,000 mm 0,0 UV-I 7 W/m 3,8 C 4,2 C 1,6 km/h (1 Bft) 96,00 %
27.04.2017 06:20 4,2 C 10,0 C 97 % 1010,6 hPa 0,0 l/m 0,0 km/h (0 Bft) N 11 0 min 0,000 mm 0,0 UV-I 7 W/m 3,8 C 4,2 C 0,0 km/h (0 Bft) 100,00 %
27.04.2017 06:22 4,3 C 10,0 C 97 % 1010,7 hPa 0,0 l/m 0,3 km/h (0 Bft) N 11 0 min 0,000 mm 0,0 UV-I 7 W/m 3,9 C 4,3 C 1,6 km/h (1 Bft) 94,74 %
27.04.2017 06:24 4,2 C 10,0 C 97 % 1010,7 hPa 0,0 l/m 0,8 km/h (0 Bft) N 5 0 min 0,000 mm 0,0 UV-I 7 W/m 3,8 C 4,2 C 4,8 km/h (1 Bft) 95,74 %
27.04.2017 06:26 4,2 C 10,0 C 97 % 1010,8 hPa 0,0 l/m 1,4 km/h (1 Bft) N 9 0 min 0,000 mm 0,0 UV-I 8 W/m 3,8 C 4,2 C 6,4 km/h (2 Bft) 100,00 %
27.04.2017 06:28 4,3 C 10,0 C 97 % 1010,8 hPa 0,2 l/m 1,3 km/h (1 Bft) N 11 0 min 0,000 mm 0,0 UV-I 9 W/m 3,9 C 4,3 C 4,8 km/h (1 Bft) 97,87 %
27.04.2017 06:30 4,2 C 10,0 C 97 % 1010,8 hPa 0,0 l/m 1,2 km/h (1 Bft) N-NW 336 0 min 0,000 mm 0,0 UV-I 9 W/m 3,8 C 4,2 C 4,8 km/h (1 Bft) 100,00 %
27.04.2017 06:32 4,2 C 10,0 C 97 % 1010,8 hPa 0,0 l/m 0,6 km/h (0 Bft) N-NW 338 0 min 0,000 mm 0,0 UV-I 10 W/m 3,8 C 4,2 C 3,2 km/h (1 Bft) 98,11 %
27.04.2017 06:34 4,2 C 10,0 C 97 % 1010,7 hPa 0,0 l/m 1,3 km/h (1 Bft) N-NW 339 0 min 0,000 mm 0,0 UV-I 11 W/m 3,8 C 4,2 C 4,8 km/h (1 Bft) 100,00 %
27.04.2017 06:36 4,2 C 10,0 C 97 % 1010,7 hPa 0,0 l/m 1,1 km/h (1 Bft) N-NW 346 0 min 0,000 mm 0,0 UV-I 12 W/m 3,8 C 4,2 C 4,8 km/h (1 Bft) 95,74 %
27.04.2017 06:38 4,2 C 10,0 C 97 % 1010,7 hPa 0,0 l/m 0,9 km/h (0 Bft) N-NW 346 0 min 0,000 mm 0,0 UV-I 12 W/m 3,8 C 4,2 C 4,8 km/h (1 Bft) 97,87 %
27.04.2017 06:40 4,2 C 10,0 C 97 % 1010,7 hPa 0,0 l/m 2,0 km/h (1 Bft) N-NO 29 0 min 0,000 mm 0,0 UV-I 12 W/m 3,8 C 4,2 C 6,4 km/h (2 Bft) 97,78 %
27.04.2017 06:42 4,2 C 10,0 C 97 % 1010,6 hPa 0,0 l/m 2,9 km/h (1 Bft) N-NO 28 0 min 0,000 mm 0,0 UV-I 12 W/m 3,8 C 4,2 C 6,4 km/h (2 Bft) 98,08 %
27.04.2017 06:44 4,2 C 10,0 C 97 % 1010,6 hPa 0,0 l/m 2,6 km/h (1 Bft) N-NO 28 0 min 0,000 mm 0,0 UV-I 14 W/m 3,8 C 4,2 C 4,8 km/h (1 Bft) 100,00 %
27.04.2017 06:46 4,2 C 10,0 C 97 % 1010,6 hPa 0,2 l/m 1,7 km/h (1 Bft) N-NO 28 0 min 0,000 mm 0,0 UV-I 15 W/m 3,8 C 4,2 C 4,8 km/h (1 Bft) 100,00 %
27.04.2017 06:48 4,2 C 9,4 C 97 % 1010,7 hPa 0,0 l/m 3,7 km/h (1 Bft) N-NO 28 0 min 0,000 mm 0,0 UV-I 17 W/m 3,8 C 4,2 C 6,4 km/h (2 Bft) 95,74 %
27.04.2017 06:50 4,2 C 9,4 C 97 % 1010,7 hPa 0,0 l/m 1,6 km/h (1 Bft) N-NO 28 0 min 0,000 mm 0,0 UV-I 18 W/m 3,8 C 4,2 C 4,8 km/h (1 Bft) 100,00 %
27.04.2017 06:52 4,2 C 9,4 C 97 % 1010,8 hPa 0,0 l/m 3,6 km/h (1 Bft) N-NO 28 0 min 0,000 mm 0,0 UV-I 18 W/m 3,8 C 4,2 C 6,4 km/h (2 Bft) 97,14 %
27.04.2017 06:54 4,2 C 9,4 C 97 % 1010,9 hPa 0,0 l/m 1,3 km/h (1 Bft) N-NO 28 0 min 0,000 mm 0,0 UV-I 17 W/m 3,8 C 4,2 C 3,2 km/h (1 Bft) 100,00 %
27.04.2017 06:56 4,2 C 9,4 C 97 % 1010,9 hPa 0,0 l/m 0,2 km/h (0 Bft) N-NO 26 0 min 0,000 mm 0,0 UV-I 16 W/m 3,8 C 4,2 C 1,6 km/h (1 Bft) 96,00 %
27.04.2017 06:58 4,2 C 9,4 C 97 % 1010,9 hPa 0,0 l/m 0,7 km/h (0 Bft) N-NO 26 0 min 0,000 mm 0,0 UV-I 16 W/m 3,8 C 4,2 C 3,2 km/h (1 Bft) 94,29 %
27.04.2017 07:00 4,2 C 9,4 C 97 % 1010,9 hPa 0,0 l/m 1,2 km/h (1 Bft) N-NO 26 0 min 0,000 mm 0,0 UV-I 16 W/m 3,8 C 4,2 C 4,8 km/h (1 Bft) 98,11 %
27.04.2017 07:02 4,2 C 9,4 C 97 % 1010,9 hPa 0,0 l/m 2,8 km/h (1 Bft) N-NO 26 0 min 0,000 mm 0,0 UV-I 16 W/m 3,8 C 4,2 C 4,8 km/h (1 Bft) 97,87 %
27.04.2017 07:04 4,2 C 9,4 C 97 % 1010,9 hPa 0,0 l/m 0,7 km/h (0 Bft) N-NO 26 0 min 0,000 mm 0,0 UV-I 16 W/m 3,8 C 4,2 C 4,8 km/h (1 Bft) 98,00 %
27.04.2017 07:06 4,2 C 9,4 C 97 % 1011,0 hPa 0,0 l/m 0,5 km/h (0 Bft) N-NO 26 0 min 0,000 mm 0,0 UV-I 17 W/m 3,8 C 4,2 C 1,6 km/h (1 Bft) 97,37 %
27.04.2017 07:08 4,2 C 9,4 C 97 % 1011,0 hPa 0,0 l/m 0,4 km/h (0 Bft) N-NO 25 0 min 0,000 mm 0,0 UV-I 18 W/m 3,8 C 4,2 C 3,2 km/h (1 Bft) 92,45 %
27.04.2017 07:10 4,2 C 9,4 C 97 % 1010,9 hPa 0,0 l/m 0,4 km/h (0 Bft) N-NO 25 0 min 0,000 mm 0,0 UV-I 20 W/m 3,8 C 4,2 C 3,2 km/h (1 Bft) 89,36 %
27.04.2017 07:12 4,2 C 9,4 C 97 % 1011,0 hPa 0,0 l/m 0,2 km/h (0 Bft) N-NO 25 0 min 0,000 mm 0,0 UV-I 22 W/m 3,8 C 4,2 C 1,6 km/h (1 Bft) 95,12 %
27.04.2017 07:14 4,2 C 9,4 C 97 % 1010,9 hPa 0,0 l/m 0,7 km/h (0 Bft) N-NO 25 0 min 0,000 mm 0,0 UV-I 24 W/m 3,8 C 4,2 C 3,2 km/h (1 Bft) 98,00 %
27.04.2017 07:16 4,3 C 9,4 C 97 % 1011,0 hPa 0,0 l/m 0,1 km/h (0 Bft) N-NO 25 0 min 0,000 mm 0,0 UV-I 25 W/m 3,9 C 4,3 C 1,6 km/h (1 Bft) 94,00 %
27.04.2017 07:18 4,3 C 9,4 C 97 % 1011,0 hPa 0,0 l/m 0,1 km/h (0 Bft) N-NO 25 0 min 0,000 mm 0,0 UV-I 28 W/m 3,9 C 4,3 C 1,6 km/h (1 Bft) 93,62 %
27.04.2017 07:20 4,3 C 9,4 C 97 % 1011,0 hPa 0,0 l/m 0,0 km/h (0 Bft) N-NO 25 0 min 0,000 mm 0,0 UV-I 33 W/m 3,9 C 4,3 C 0,0 km/h (0 Bft) 95,24 %
27.04.2017 07:22 4,3 C 9,4 C 97 % 1011,0 hPa 0,0 l/m 0,5 km/h (0 Bft) N-NO 22 0 min 0,000 mm 0,0 UV-I 37 W/m 3,9 C 4,3 C 3,2 km/h (1 Bft) 96,00 %
27.04.2017 07:24 4,3 C 9,4 C 97 % 1011,1 hPa 0,0 l/m 0,4 km/h (0 Bft) N-NO 22 0 min 0,000 mm 0,0 UV-I 36 W/m 3,9 C 4,3 C 3,2 km/h (1 Bft) 94,00 %
27.04.2017 07:26 4,2 C 9,4 C 97 % 1011,0 hPa 0,0 l/m 0,6 km/h (0 Bft) N-NO 22 0 min 0,000 mm 0,0 UV-I 34 W/m 3,8 C 4,2 C 3,2 km/h (1 Bft) 94,74 %
27.04.2017 07:28 4,2 C 9,4 C 97 % 1011,0 hPa 0,0 l/m 0,0 km/h (0 Bft) N-NO 22 0 min 0,000 mm 0,0 UV-I 32 W/m 3,8 C 4,2 C 1,6 km/h (1 Bft) 96,43 %
27.04.2017 07:30 4,3 C 10,0 C 97 % 1011,0 hPa 0,0 l/m 0,1 km/h (0 Bft) N-NO 22 0 min 0,000 mm 0,0 UV-I 33 W/m 3,9 C 4,3 C 1,6 km/h (1 Bft) 97,56 %
27.04.2017 07:32 4,3 C 10,0 C 97 % 1011,0 hPa 0,0 l/m 0,2 km/h (0 Bft) N-NO 22 0 min 0,000 mm 0,0 UV-I 35 W/m 3,9 C 4,3 C 1,6 km/h (1 Bft) 94,34 %
27.04.2017 07:34 4,3 C 9,4 C 97 % 1011,0 hPa 0,2 l/m 0,2 km/h (0 Bft) N-NO 22 0 min 0,000 mm 0,0 UV-I 35 W/m 3,9 C 4,3 C 1,6 km/h (1 Bft) 95,74 %
27.04.2017 07:36 4,3 C 10,0 C 97 % 1010,9 hPa 0,0 l/m 0,2 km/h (0 Bft) N-NO 22 0 min 0,000 mm 0,0 UV-I 33 W/m 3,9 C 4,3 C 1,6 km/h (1 Bft) 95,74 %
27.04.2017 07:38 4,3 C 10,0 C 97 % 1011,0 hPa 0,0 l/m 0,0 km/h (0 Bft) N-NO 22 0 min 0,000 mm 0,0 UV-I 32 W/m 3,9 C 4,3 C 0,0 km/h (0 Bft) 97,37 %
27.04.2017 07:40 4,3 C 10,0 C 97 % 1011,1 hPa 0,0 l/m 0,6 km/h (0 Bft) N-NO 22 0 min 0,000 mm 0,0 UV-I 30 W/m 3,9 C 4,3 C 1,6 km/h (1 Bft) 95,74 %
27.04.2017 07:42 4,3 C 10,0 C 97 % 1011,1 hPa 0,0 l/m 0,3 km/h (0 Bft) N-NO 22 0 min 0,000 mm 0,0 UV-I 32 W/m 3,9 C 4,3 C 1,6 km/h (1 Bft) 94,00 %
27.04.2017 07:44 4,3 C 10,0 C 97 % 1011,1 hPa 0,0 l/m 1,0 km/h (0 Bft) N-NO 21 0 min 0,000 mm 0,0 UV-I 32 W/m 3,9 C 4,3 C 3,2 km/h (1 Bft) 100,00 %
27.04.2017 07:46 4,3 C 10,0 C 97 % 1011,2 hPa 0,0 l/m 0,3 km/h (0 Bft) N-NO 21 0 min 0,000 mm 0,0 UV-I 32 W/m 3,9 C 4,3 C 1,6 km/h (1 Bft) 91,49 %
27.04.2017 07:48 4,3 C 9,4 C 97 % 1011,2 hPa 0,0 l/m 1,2 km/h (1 Bft) N-NO 20 0 min 0,000 mm 0,0 UV-I 34 W/m 3,9 C 4,3 C 4,8 km/h (1 Bft) 91,49 %
27.04.2017 07:50 4,3 C 9,4 C 97 % 1011,3 hPa 0,0 l/m 1,1 km/h (1 Bft) N-NO 15 0 min 0,000 mm 0,0 UV-I 38 W/m 3,9 C 4,3 C 3,2 km/h (1 Bft) 94,34 %
27.04.2017 07:52 4,2 C 10,0 C 97 % 1011,2 hPa 0,0 l/m 0,5 km/h (0 Bft) N-NO 15 0 min 0,000 mm 0,0 UV-I 41 W/m 3,8 C 4,2 C 3,2 km/h (1 Bft) 97,56 %
27.04.2017 07:54 4,3 C 10,0 C 97 % 1011,3 hPa 0,0 l/m 1,1 km/h (1 Bft) N-NW 339 0 min 0,000 mm 0,0 UV-I 42 W/m 3,9 C 4,3 C 4,8 km/h (1 Bft) 100,00 %
27.04.2017 07:56 4,3 C 9,4 C 97 % 1011,4 hPa 0,0 l/m 1,0 km/h (0 Bft) N-NW 339 0 min 0,000 mm 0,0 UV-I 42 W/m 3,9 C 4,3 C 3,2 km/h (1 Bft) 96,00 %
27.04.2017 07:58 4,2 C 9,4 C 97 % 1011,4 hPa 0,0 l/m 1,4 km/h (1 Bft) N-NW 339 0 min 0,000 mm 0,0 UV-I 43 W/m 3,8 C 4,2 C 3,2 km/h (1 Bft) 98,11 %
27.04.2017 08:00 4,2 C 9,4 C 97 % 1011,4 hPa 0,0 l/m 0,4 km/h (0 Bft) N-NW 338 0 min 0,000 mm 0,0 UV-I 44 W/m 3,8 C 4,2 C 1,6 km/h (1 Bft) 97,44 %
27.04.2017 08:02 4,2 C 10,0 C 97 % 1011,5 hPa 0,0 l/m 0,0 km/h (0 Bft) N-NW 339 0 min 0,000 mm 0,0 UV-I 46 W/m 3,8 C 4,2 C 1,6 km/h (1 Bft) 94,34 %
27.04.2017 08:04 4,3 C 10,0 C 97 % 1011,4 hPa 0,0 l/m 0,2 km/h (0 Bft) N-NW 339 0 min 0,000 mm 0,0 UV-I 53 W/m 3,9 C 4,3 C 1,6 km/h (1 Bft) 95,74 %
27.04.2017 08:06 4,3 C 10,0 C 97 % 1011,4 hPa 0,0 l/m 0,1 km/h (0 Bft) N-NW 339 0 min 0,000 mm 0,0 UV-I 57 W/m 3,9 C 4,3 C 1,6 km/h (1 Bft) 100,00 %
27.04.2017 08:08 4,3 C 10,0 C 97 % 1011,4 hPa 0,0 l/m 0,0 km/h (0 Bft) N-NW 339 0 min 0,000 mm 0,0 UV-I 64 W/m 3,9 C 4,3 C 0,0 km/h (0 Bft) 96,23 %
27.04.2017 08:10 4,3 C 10,0 C 97 % 1011,5 hPa 0,0 l/m 0,3 km/h (0 Bft) N-NW 339 0 min 0,000 mm 0,0 UV-I 68 W/m 3,9 C 4,3 C 1,6 km/h (1 Bft) 100,00 %
27.04.2017 08:12 4,3 C 9,4 C 97 % 1011,5 hPa 0,0 l/m 0,4 km/h (0 Bft) N-NW 338 0 min 0,000 mm 0,0 UV-I 61 W/m 3,9 C 4,3 C 1,6 km/h (1 Bft) 98,00 %
27.04.2017 08:14 4,4 C 9,4 C 97 % 1011,5 hPa 0,0 l/m 0,9 km/h (0 Bft) N-NW 339 0 min 0,000 mm 0,0 UV-I 56 W/m 4,0 C 4,4 C 3,2 km/h (1 Bft) 100,00 %
27.04.2017 08:16 4,3 C 9,4 C 97 % 1011,6 hPa 0,0 l/m 0,0 km/h (0 Bft) N-NW 338 0 min 0,000 mm 0,0 UV-I 53 W/m 3,9 C 4,3 C 0,0 km/h (0 Bft) 100,00 %
27.04.2017 08:18 4,4 C 9,4 C 97 % 1011,8 hPa 0,0 l/m 0,8 km/h (0 Bft) N-NW 338 0 min 0,000 mm 0,0 UV-I 42 W/m 4,0 C 4,4 C 3,2 km/h (1 Bft) 97,56 %
27.04.2017 08:20 4,3 C 9,4 C 97 % 1011,8 hPa 0,0 l/m 0,9 km/h (0 Bft) N-NW 339 0 min 0,000 mm 0,0 UV-I 37 W/m 3,9 C 4,3 C 3,2 km/h (1 Bft) 97,87 %
27.04.2017 08:22 4,3 C 9,4 C 97 % 1011,8 hPa 0,0 l/m 0,0 km/h (0 Bft) N-NW 339 0 min 0,000 mm 0,0 UV-I 37 W/m 3,9 C 4,3 C 0,0 km/h (0 Bft) 97,87 %
27.04.2017 08:24 4,4 C 9,4 C 97 % 1011,8 hPa 0,0 l/m 0,0 km/h (0 Bft) N-NW 339 0 min 0,000 mm 0,0 UV-I 36 W/m 4,0 C 4,4 C 0,0 km/h (0 Bft) 98,11 %
27.04.2017 08:26 4,3 C 9,4 C 97 % 1011,9 hPa 0,0 l/m 0,0 km/h (0 Bft) N-NW 339 0 min 0,000 mm 0,0 UV-I 35 W/m 3,9 C 4,3 C 1,6 km/h (1 Bft) 97,37 %
27.04.2017 08:28 4,3 C 9,4 C 97 % 1011,9 hPa 0,0 l/m 0,5 km/h (0 Bft) N-NW 338 0 min 0,000 mm 0,0 UV-I 38 W/m 3,9 C 4,3 C 1,6 km/h (1 Bft) 97,22 %
27.04.2017 08:30 4,4 C 9,4 C 97 % 1011,8 hPa 0,0 l/m 0,0 km/h (0 Bft) N-NW 339 0 min 0,000 mm 0,0 UV-I 40 W/m 4,0 C 4,4 C 1,6 km/h (1 Bft) 98,51 %
27.04.2017 08:32 4,4 C 9,4 C 97 % 1011,9 hPa 0,0 l/m 0,1 km/h (0 Bft) N-NW 338 0 min 0,000 mm 0,0 UV-I 39 W/m 4,0 C 4,4 C 1,6 km/h (1 Bft) 100,00 %
27.04.2017 08:34 4,3 C 9,4 C 96 % 1012,0 hPa 0,0 l/m 0,0 km/h (0 Bft) N-NW 339 0 min 0,000 mm 0,0 UV-I 37 W/m 3,7 C 4,3 C 0,0 km/h (0 Bft) 97,37 %
27.04.2017 08:36 4,4 C 9,4 C 97 % 1012,0 hPa 0,0 l/m 0,7 km/h (0 Bft) N-NW 338 0 min 0,000 mm 0,0 UV-I 33 W/m 4,0 C 4,4 C 3,2 km/h (1 Bft) 100,00 %
27.04.2017 08:38 4,3 C 9,4 C 96 % 1012,2 hPa 0,0 l/m 0,7 km/h (0 Bft) N-NW 338 0 min 0,000 mm 0,0 UV-I 28 W/m 3,7 C 4,3 C 1,6 km/h (1 Bft) 95,12 %
27.04.2017 08:40 4,3 C 9,4 C 96 % 1012,1 hPa 0,0 l/m 3,2 km/h (1 Bft) W 279 0 min 0,000 mm 0,0 UV-I 26 W/m 3,7 C 4,3 C 4,8 km/h (1 Bft) 98,31 %
27.04.2017 08:42 4,3 C 9,4 C 96 % 1012,2 hPa 0,0 l/m 2,1 km/h (1 Bft) N-NW 346 0 min 0,000 mm 0,0 UV-I 27 W/m 3,7 C 4,3 C 4,8 km/h (1 Bft) 97,96 %
27.04.2017 08:45 4,3 C 9,4 C 96 % 1012,2 hPa 0,0 l/m 0,7 km/h (0 Bft) NW 304 0 min 0,000 mm 0,0 UV-I 28 W/m 3,7 C 4,3 C 4,8 km/h (1 Bft) 98,46 %
27.04.2017 08:46 4,2 C 9,4 C 96 % 1012,2 hPa 0,0 l/m 0,2 km/h (0 Bft) N-NW 347 0 min 0,000 mm 0,0 UV-I 30 W/m 3,6 C 4,2 C 1,6 km/h (1 Bft) 95,83 %
27.04.2017 08:48 4,2 C 9,4 C 96 % 1012,1 hPa 0,0 l/m 1,3 km/h (1 Bft) W-NW 296 0 min 0,000 mm 0,0 UV-I 30 W/m 3,6 C 4,2 C 4,8 km/h (1 Bft) 95,74 %
27.04.2017 08:50 4,2 C 9,4 C 97 % 1012,1 hPa 0,0 l/m 2,0 km/h (1 Bft) W-NW 295 0 min 0,000 mm 0,0 UV-I 33 W/m 3,8 C 4,2 C 4,8 km/h (1 Bft) 95,74 %
27.04.2017 08:52 4,1 C 9,4 C 96 % 1012,2 hPa 0,0 l/m 0,0 km/h (0 Bft) W-NW 295 0 min 0,000 mm 0,0 UV-I 35 W/m 3,5 C 4,1 C 0,0 km/h (0 Bft) 95,12 %
27.04.2017 08:54 4,1 C 9,4 C 97 % 1012,2 hPa 0,0 l/m 1,2 km/h (1 Bft) W-NW 296 0 min 0,000 mm 0,0 UV-I 33 W/m 3,7 C 4,1 C 3,2 km/h (1 Bft) 95,74 %
27.04.2017 08:56 4,1 C 9,4 C 97 % 1012,2 hPa 0,0 l/m 1,6 km/h (1 Bft) W-NW 296 0 min 0,000 mm 0,0 UV-I 34 W/m 3,7 C 4,1 C 3,2 km/h (1 Bft) 94,00 %
27.04.2017 08:58 4,1 C 9,4 C 97 % 1012,2 hPa 0,0 l/m 0,6 km/h (0 Bft) W-NW 296 0 min 0,000 mm 0,0 UV-I 39 W/m 3,7 C 4,1 C 3,2 km/h (1 Bft) 92,86 %
27.04.2017 09:00 4,1 C 9,4 C 97 % 1012,2 hPa 0,0 l/m 1,6 km/h (1 Bft) W-NW 287 0 min 0,025 mm 0,0 UV-I 42 W/m 3,7 C 4,1 C 4,8 km/h (1 Bft) 91,43 %
27.04.2017 09:02 4,1 C 9,4 C 97 % 1012,3 hPa 0,0 l/m 2,1 km/h (1 Bft) W-NW 298 0 min 0,000 mm 0,0 UV-I 39 W/m 3,7 C 4,1 C 4,8 km/h (1 Bft) 93,62 %
27.04.2017 09:04 4,1 C 9,4 C 97 % 1012,3 hPa 0,0 l/m 1,0 km/h (0 Bft) W-NW 298 0 min 0,000 mm 0,0 UV-I 30 W/m 3,7 C 4,1 C 3,2 km/h (1 Bft) 96,00 %
27.04.2017 09:06 4,2 C 9,4 C 97 % 1012,2 hPa 0,0 l/m 0,0 km/h (0 Bft) W-NW 298 0 min 0,000 mm 0,0 UV-I 26 W/m 3,8 C 4,2 C 0,0 km/h (0 Bft) 97,87 %
27.04.2017 09:08 4,2 C 9,4 C 97 % 1012,3 hPa 0,0 l/m 0,2 km/h (0 Bft) W-NW 298 0 min 0,000 mm 0,0 UV-I 32 W/m 3,8 C 4,2 C 1,6 km/h (1 Bft) 92,00 %
27.04.2017 09:10 4,2 C 9,4 C 97 % 1012,4 hPa 0,0 l/m 1,5 km/h (1 Bft) W-NW 298 0 min 0,000 mm 0,0 UV-I 44 W/m 3,8 C 4,2 C 3,2 km/h (1 Bft) 95,45 %
27.04.2017 09:12 4,2 C 9,4 C 97 % 1012,5 hPa 0,0 l/m 3,4 km/h (1 Bft) W 274 0 min 0,000 mm 0,0 UV-I 55 W/m 3,8 C 4,2 C 6,4 km/h (2 Bft) 90,00 %
27.04.2017 09:14 4,1 C 9,4 C 96 % 1012,4 hPa 0,0 l/m 2,2 km/h (1 Bft) W 273 0 min 0,000 mm 0,0 UV-I 58 W/m 3,5 C 4,1 C 4,8 km/h (1 Bft) 92,31 %
27.04.2017 09:16 4,2 C 9,4 C 97 % 1012,4 hPa 0,0 l/m 1,2 km/h (1 Bft) W 273 0 min 0,000 mm 0,0 UV-I 71 W/m 3,8 C 4,2 C 4,8 km/h (1 Bft) 93,62 %
27.04.2017 09:18 4,2 C 9,4 C 97 % 1012,4 hPa 0,0 l/m 3,6 km/h (1 Bft) W 273 0 min 0,000 mm 0,0 UV-I 87 W/m 3,8 C 4,2 C 4,8 km/h (1 Bft) 94,34 %
27.04.2017 09:20 4,2 C 9,4 C 97 % 1012,4 hPa 0,0 l/m 2,6 km/h (1 Bft) W 271 0 min 0,000 mm 0,0 UV-I 94 W/m 3,8 C 4,2 C 9,7 km/h (2 Bft) 93,88 %
27.04.2017 09:22 4,2 C 9,4 C 96 % 1012,5 hPa 0,0 l/m 3,0 km/h (1 Bft) W 276 0 min 0,000 mm 0,0 UV-I 97 W/m 3,6 C 4,2 C 6,4 km/h (2 Bft) 93,62 %
27.04.2017 09:24 4,1 C 9,4 C 96 % 1012,5 hPa 0,0 l/m 1,5 km/h (1 Bft) W 273 0 min 0,000 mm 0,2 UV-I 106 W/m 3,5 C 4,1 C 6,4 km/h (2 Bft) 94,87 %
27.04.2017 09:26 4,1 C 9,4 C 96 % 1012,5 hPa 0,0 l/m 1,0 km/h (0 Bft) W 273 0 min 0,000 mm 0,5 UV-I 109 W/m 3,5 C 4,1 C 3,2 km/h (1 Bft) 93,18 %
27.04.2017 09:28 4,1 C 9,4 C 96 % 1012,5 hPa 0,2 l/m 1,8 km/h (1 Bft) W 273 0 min 0,000 mm 0,0 UV-I 96 W/m 3,5 C 4,1 C 4,8 km/h (1 Bft) 92,45 %
27.04.2017 09:30 4,2 C 9,4 C 96 % 1012,5 hPa 0,0 l/m 1,0 km/h (0 Bft) NW 315 0 min 0,000 mm 0,0 UV-I 78 W/m 3,6 C 4,2 C 3,2 km/h (1 Bft) 90,00 %
27.04.2017 09:32 4,2 C 9,4 C 96 % 1012,5 hPa 0,0 l/m 3,0 km/h (1 Bft) NW 325 0 min 0,000 mm 0,0 UV-I 73 W/m 3,6 C 4,2 C 6,4 km/h (2 Bft) 93,62 %
27.04.2017 09:34 4,2 C 9,4 C 96 % 1012,4 hPa 0,0 l/m 1,3 km/h (1 Bft) W-NW 290 0 min 0,000 mm 0,0 UV-I 71 W/m 3,6 C 4,2 C 6,4 km/h (2 Bft) 92,00 %
27.04.2017 09:36 4,2 C 9,4 C 96 % 1012,4 hPa 0,0 l/m 2,3 km/h (1 Bft) W-NW 296 0 min 0,000 mm 0,3 UV-I 90 W/m 3,6 C 4,2 C 6,4 km/h (2 Bft) 94,74 %
27.04.2017 09:38 4,2 C 9,4 C 96 % 1012,3 hPa 0,0 l/m 2,6 km/h (1 Bft) W 264 0 min 0,000 mm 0,7 UV-I 135 W/m 3,6 C 4,2 C 6,4 km/h (2 Bft) 96,00 %
27.04.2017 09:40 4,1 C 9,4 C 96 % 1012,3 hPa 0,0 l/m 2,2 km/h (1 Bft) W-SW 258 0 min 0,000 mm 0,8 UV-I 170 W/m 3,5 C 4,1 C 9,7 km/h (2 Bft) 93,18 %
27.04.2017 09:43 4,2 C 9,4 C 96 % 1012,4 hPa 0,0 l/m 3,1 km/h (1 Bft) W-SW 252 0 min 0,000 mm 0,8 UV-I 182 W/m 3,6 C 4,2 C 9,7 km/h (2 Bft) 94,59 %
27.04.2017 09:44 4,2 C 9,4 C 96 % 1012,4 hPa 0,0 l/m 3,3 km/h (1 Bft) W-SW 252 0 min 0,000 mm 0,9 UV-I 181 W/m 3,6 C 4,2 C 4,8 km/h (1 Bft) 95,65 %
27.04.2017 09:46 4,3 C 9,4 C 96 % 1012,3 hPa 0,0 l/m 3,1 km/h (1 Bft) NW 306 0 min 0,000 mm 1,0 UV-I 213 W/m 3,7 C 4,3 C 6,4 km/h (2 Bft) 100,00 %
27.04.2017 09:48 4,3 C 9,4 C 96 % 1012,3 hPa 0,0 l/m 4,9 km/h (1 Bft) W-SW 241 0 min 0,000 mm 1,1 UV-I 229 W/m 3,7 C 4,3 C 11,3 km/h (2 Bft) 97,56 %
27.04.2017 09:50 4,3 C 9,4 C 96 % 1012,3 hPa 0,0 l/m 4,8 km/h (1 Bft) W 271 0 min 0,000 mm 1,1 UV-I 229 W/m 3,7 C 4,3 C 11,3 km/h (2 Bft) 94,00 %
27.04.2017 09:52 4,3 C 9,4 C 96 % 1012,3 hPa 0,0 l/m 2,7 km/h (1 Bft) W 261 0 min 0,000 mm 1,2 UV-I 223 W/m 3,7 C 4,3 C 6,4 km/h (2 Bft) 97,87 %
27.04.2017 09:54 4,3 C 9,4 C 96 % 1012,4 hPa 0,0 l/m 4,4 km/h (1 Bft) W-NW 284 0 min 0,000 mm 1,3 UV-I 255 W/m 3,7 C 4,3 C 8,0 km/h (2 Bft) 100,00 %
27.04.2017 09:56 4,4 C 9,4 C 96 % 1012,4 hPa 0,0 l/m 3,4 km/h (1 Bft) W 265 0 min 0,000 mm 1,2 UV-I 253 W/m 3,8 C 4,4 C 11,3 km/h (2 Bft) 97,22 %
27.04.2017 09:58 4,4 C 9,4 C 96 % 1012,4 hPa 0,0 l/m 5,1 km/h (1 Bft) W 269 0 min 0,000 mm 0,8 UV-I 165 W/m 3,8 C 4,4 C 11,3 km/h (2 Bft) 100,00 %
27.04.2017 10:00 4,4 C 9,4 C 96 % 1012,4 hPa 0,0 l/m 2,6 km/h (1 Bft) W 263 0 min 0,000 mm 0,9 UV-I 176 W/m 3,8 C 4,4 C 6,4 km/h (2 Bft) 97,87 %
27.04.2017 10:02 4,5 C 9,4 C 96 % 1012,4 hPa 0,0 l/m 0,3 km/h (0 Bft) W 279 0 min 0,051 mm 1,1 UV-I 216 W/m 3,9 C 4,5 C 1,6 km/h (1 Bft) 96,23 %
27.04.2017 10:04 4,6 C 9,4 C 96 % 1012,4 hPa 0,0 l/m 3,7 km/h (1 Bft) W 267 0 min 0,000 mm 0,9 UV-I 179 W/m 4,0 C 4,6 C 6,4 km/h (2 Bft) 100,00 %
27.04.2017 10:06 4,6 C 9,4 C 96 % 1012,4 hPa 0,0 l/m 2,3 km/h (1 Bft) W 270 0 min 0,000 mm 0,9 UV-I 165 W/m 4,0 C 4,6 C 9,7 km/h (2 Bft) 98,00 %
27.04.2017 10:08 4,6 C 9,4 C 96 % 1012,4 hPa 0,0 l/m 3,3 km/h (1 Bft) W-NW 292 0 min 0,000 mm 0,9 UV-I 174 W/m 4,0 C 4,6 C 6,4 km/h (2 Bft) 100,00 %
27.04.2017 10:10 4,7 C 9,4 C 96 % 1012,4 hPa 0,0 l/m 1,2 km/h (1 Bft) NW 313 0 min 0,000 mm 0,7 UV-I 154 W/m 4,1 C 4,7 C 6,4 km/h (2 Bft) 98,00 %
27.04.2017 10:12 4,7 C 9,4 C 96 % 1012,5 hPa 0,0 l/m 2,7 km/h (1 Bft) W 273 0 min 0,000 mm 0,7 UV-I 154 W/m 4,1 C 4,7 C 6,4 km/h (2 Bft) 100,00 %
27.04.2017 10:14 4,7 C 10,0 C 96 % 1012,5 hPa 0,0 l/m 1,0 km/h (0 Bft) W 272 0 min 0,000 mm 0,8 UV-I 162 W/m 4,1 C 4,7 C 3,2 km/h (1 Bft) 98,00 %
27.04.2017 10:16 4,7 C 9,4 C 95 % 1012,6 hPa 0,0 l/m 0,1 km/h (0 Bft) W 272 0 min 0,000 mm 0,9 UV-I 168 W/m 4,0 C 4,7 C 1,6 km/h (1 Bft) 100,00 %
27.04.2017 10:18 4,7 C 9,4 C 96 % 1012,6 hPa 0,0 l/m 4,1 km/h (1 Bft) W 268 0 min 0,000 mm 0,7 UV-I 150 W/m 4,1 C 4,7 C 6,4 km/h (2 Bft) 98,00 %
27.04.2017 10:20 4,6 C 9,4 C 95 % 1012,6 hPa 0,0 l/m 5,1 km/h (1 Bft) SW 229 0 min 0,000 mm 0,7 UV-I 142 W/m 3,9 C 4,6 C 9,7 km/h (2 Bft) 98,00 %
27.04.2017 10:22 4,6 C 9,4 C 95 % 1012,7 hPa 0,0 l/m 2,2 km/h (1 Bft) SW 231 0 min 0,000 mm 0,9 UV-I 173 W/m 3,9 C 4,6 C 6,4 km/h (2 Bft) 98,11 %
27.04.2017 10:24 4,7 C 10,0 C 96 % 1012,7 hPa 0,0 l/m 4,3 km/h (1 Bft) SW 224 0 min 0,000 mm 1,1 UV-I 209 W/m 4,1 C 4,7 C 8,0 km/h (2 Bft) 95,12 %
27.04.2017 10:26 4,7 C 10,0 C 95 % 1012,8 hPa 0,0 l/m 4,9 km/h (1 Bft) W 265 0 min 0,000 mm 1,0 UV-I 180 W/m 4,0 C 4,7 C 9,7 km/h (2 Bft) 98,00 %
27.04.2017 10:28 4,8 C 10,0 C 96 % 1012,9 hPa 0,0 l/m 5,0 km/h (1 Bft) W-SW 239 0 min 0,000 mm 0,7 UV-I 120 W/m 4,2 C 4,8 C 9,7 km/h (2 Bft) 97,73 %
27.04.2017 10:30 4,7 C 9,4 C 95 % 1013,0 hPa 0,0 l/m 6,5 km/h (2 Bft) W-SW 245 0 min 0,000 mm 0,6 UV-I 103 W/m 4,0 C 4,6 C 14,5 km/h (3 Bft) 96,00 %
27.04.2017 10:32 4,6 C 9,4 C 95 % 1013,0 hPa 0,0 l/m 4,5 km/h (1 Bft) W 272 0 min 0,000 mm 0,5 UV-I 98 W/m 3,9 C 4,6 C 11,3 km/h (2 Bft) 98,00 %
27.04.2017 10:34 4,6 C 9,4 C 95 % 1013,1 hPa 0,0 l/m 6,4 km/h (2 Bft) W-SW 255 0 min 0,000 mm 0,5 UV-I 96 W/m 3,9 C 4,6 C 12,9 km/h (3 Bft) 100,00 %
27.04.2017 10:36 4,6 C 9,4 C 95 % 1013,1 hPa 0,0 l/m 5,8 km/h (2 Bft) W-SW 244 0 min 0,000 mm 0,5 UV-I 100 W/m 3,9 C 4,6 C 11,3 km/h (2 Bft) 98,00 %
27.04.2017 10:38 4,6 C 9,4 C 95 % 1013,1 hPa 0,0 l/m 5,8 km/h (2 Bft) W-SW 240 0 min 0,000 mm 0,5 UV-I 103 W/m 3,9 C 4,6 C 11,3 km/h (2 Bft) 96,15 %
27.04.2017 10:40 4,5 C 9,4 C 95 % 1013,1 hPa 0,0 l/m 5,1 km/h (1 Bft) W 273 0 min 0,000 mm 0,6 UV-I 105 W/m 3,8 C 4,5 C 9,7 km/h (2 Bft) 100,00 %
27.04.2017 10:42 4,5 C 9,4 C 95 % 1013,1 hPa 0,0 l/m 3,4 km/h (1 Bft) W-SW 244 0 min 0,000 mm 0,6 UV-I 106 W/m 3,8 C 4,5 C 8,0 km/h (2 Bft) 98,11 %
27.04.2017 10:44 4,5 C 9,4 C 95 % 1013,2 hPa 0,0 l/m 4,0 km/h (1 Bft) W-SW 250 0 min 0,000 mm 0,5 UV-I 99 W/m 3,8 C 4,5 C 6,4 km/h (2 Bft) 100,00 %
27.04.2017 10:46 4,6 C 9,4 C 95 % 1013,3 hPa 0,0 l/m 5,3 km/h (1 Bft) W 275 0 min 0,000 mm 0,5 UV-I 88 W/m 3,9 C 4,6 C 8,0 km/h (2 Bft) 100,00 %
27.04.2017 10:48 4,6 C 9,4 C 95 % 1013,3 hPa 0,0 l/m 5,2 km/h (1 Bft) W-SW 245 0 min 0,000 mm 0,5 UV-I 90 W/m 3,9 C 4,6 C 9,7 km/h (2 Bft) 96,00 %
27.04.2017 10:50 4,6 C 9,4 C 95 % 1013,4 hPa 0,0 l/m 2,7 km/h (1 Bft) W-SW 247 0 min 0,000 mm 0,6 UV-I 113 W/m 3,9 C 4,6 C 6,4 km/h (2 Bft) 100,00 %
27.04.2017 10:52 4,5 C 9,4 C 95 % 1013,3 hPa 0,0 l/m 2,3 km/h (1 Bft) W-NW 302 0 min 0,000 mm 0,8 UV-I 142 W/m 3,8 C 4,5 C 4,8 km/h (1 Bft) 97,56 %
27.04.2017 10:54 4,6 C 9,4 C 95 % 1013,3 hPa 0,0 l/m 4,4 km/h (1 Bft) W 267 0 min 0,000 mm 0,9 UV-I 152 W/m 3,9 C 4,6 C 9,7 km/h (2 Bft) 93,62 %
27.04.2017 10:56 4,6 C 9,4 C 95 % 1013,3 hPa 0,0 l/m 6,2 km/h (2 Bft) W 260 0 min 0,000 mm 0,8 UV-I 142 W/m 3,9 C 4,6 C 11,3 km/h (2 Bft) 98,00 %
27.04.2017 10:58 4,5 C 9,4 C 95 % 1013,4 hPa 0,0 l/m 4,0 km/h (1 Bft) W 270 0 min 0,000 mm 0,7 UV-I 118 W/m 3,8 C 4,5 C 6,4 km/h (2 Bft) 98,11 %
27.04.2017 11:00 4,6 C 9,4 C 95 % 1013,3 hPa 0,0 l/m 4,2 km/h (1 Bft) W 273 0 min 0,000 mm 0,6 UV-I 107 W/m 3,9 C 4,6 C 6,4 km/h (2 Bft) 97,14 %
27.04.2017 11:02 4,6 C 9,4 C 95 % 1013,3 hPa 0,0 l/m 2,5 km/h (1 Bft) NW 310 0 min 0,051 mm 0,6 UV-I 108 W/m 3,9 C 4,6 C 4,8 km/h (1 Bft) 100,00 %
27.04.2017 11:04 4,6 C 9,4 C 95 % 1013,3 hPa 0,0 l/m 5,9 km/h (2 Bft) W-NW 284 0 min 0,000 mm 0,7 UV-I 120 W/m 3,9 C 4,6 C 12,9 km/h (3 Bft) 98,11 %
27.04.2017 11:06 4,6 C 9,4 C 95 % 1013,4 hPa 0,0 l/m 2,3 km/h (1 Bft) W 265 0 min 0,000 mm 0,7 UV-I 118 W/m 3,9 C 4,6 C 4,8 km/h (1 Bft) 94,74 %
27.04.2017 11:08 4,6 C 9,4 C 95 % 1013,4 hPa 0,0 l/m 4,5 km/h (1 Bft) W 262 0 min 0,000 mm 0,7 UV-I 121 W/m 3,9 C 4,6 C 8,0 km/h (2 Bft) 96,67 %
27.04.2017 11:10 4,6 C 9,4 C 95 % 1013,4 hPa 0,0 l/m 4,2 km/h (1 Bft) W-SW 245 0 min 0,000 mm 0,7 UV-I 114 W/m 3,9 C 4,6 C 8,0 km/h (2 Bft) 100,00 %
27.04.2017 11:12 4,5 C 9,4 C 95 % 1013,4 hPa 0,0 l/m 6,7 km/h (2 Bft) W-SW 238 0 min 0,000 mm 0,6 UV-I 108 W/m 3,8 C 4,2 C 11,3 km/h (2 Bft) 93,62 %
27.04.2017 11:14 4,4 C 9,4 C 94 % 1013,5 hPa 0,0 l/m 5,9 km/h (2 Bft) W 269 0 min 0,000 mm 0,6 UV-I 105 W/m 3,5 C 4,4 C 12,9 km/h (3 Bft) 91,49 %
27.04.2017 11:16 4,4 C 9,4 C 94 % 1013,5 hPa 0,0 l/m 6,2 km/h (2 Bft) W-SW 256 0 min 0,000 mm 0,6 UV-I 104 W/m 3,5 C 4,4 C 11,3 km/h (2 Bft) 98,00 %
27.04.2017 11:18 4,4 C 10,0 C 95 % 1013,5 hPa 0,0 l/m 4,2 km/h (1 Bft) W-SW 243 0 min 0,000 mm 0,7 UV-I 112 W/m 3,7 C 4,4 C 8,0 km/h (2 Bft) 94,87 %
27.04.2017 11:20 4,4 C 10,0 C 95 % 1013,5 hPa 0,0 l/m 5,5 km/h (1 Bft) SW 236 0 min 0,000 mm 0,7 UV-I 112 W/m 3,7 C 4,4 C 11,3 km/h (2 Bft) 94,00 %
27.04.2017 11:22 4,5 C 10,0 C 95 % 1013,5 hPa 0,0 l/m 4,7 km/h (1 Bft) W 263 0 min 0,000 mm 0,7 UV-I 109 W/m 3,8 C 4,5 C 9,7 km/h (2 Bft) 98,11 %
27.04.2017 11:24 4,5 C 10,0 C 95 % 1013,6 hPa 0,0 l/m 5,2 km/h (1 Bft) W-NW 284 0 min 0,000 mm 0,7 UV-I 104 W/m 3,8 C 4,5 C 9,7 km/h (2 Bft) 97,37 %
27.04.2017 11:26 4,5 C 10,0 C 95 % 1013,5 hPa 0,0 l/m 2,8 km/h (1 Bft) W-SW 240 0 min 0,000 mm 0,6 UV-I 94 W/m 3,8 C 4,5 C 6,4 km/h (2 Bft) 92,00 %
27.04.2017 11:28 4,6 C 10,0 C 95 % 1013,4 hPa 0,0 l/m 1,3 km/h (1 Bft) W-NW 285 0 min 0,000 mm 0,6 UV-I 99 W/m 3,9 C 4,6 C 6,4 km/h (2 Bft) 98,00 %
27.04.2017 11:30 4,6 C 10,0 C 95 % 1013,5 hPa 0,0 l/m 4,6 km/h (1 Bft) W-SW 249 0 min 0,000 mm 0,7 UV-I 101 W/m 3,9 C 4,6 C 6,4 km/h (2 Bft) 92,11 %
27.04.2017 11:32 4,6 C 10,0 C 95 % 1013,5 hPa 0,0 l/m 3,7 km/h (1 Bft) W 267 0 min 0,000 mm 0,6 UV-I 96 W/m 3,9 C 4,6 C 6,4 km/h (2 Bft) 98,11 %
27.04.2017 11:34 4,7 C 10,0 C 95 % 1013,4 hPa 0,0 l/m 2,2 km/h (1 Bft) W 267 0 min 0,000 mm 0,7 UV-I 103 W/m 4,0 C 4,7 C 3,2 km/h (1 Bft) 95,74 %
27.04.2017 11:36 4,7 C 10,0 C 95 % 1013,4 hPa 0,0 l/m 3,7 km/h (1 Bft) W 270 0 min 0,000 mm 0,8 UV-I 123 W/m 4,0 C 4,7 C 12,9 km/h (3 Bft) 97,87 %
27.04.2017 11:38 4,7 C 10,0 C 95 % 1013,4 hPa 0,0 l/m 4,9 km/h (1 Bft) W-NW 284 0 min 0,000 mm 0,9 UV-I 134 W/m 4,0 C 4,7 C 11,3 km/h (2 Bft) 96,00 %
27.04.2017 11:40 4,7 C 10,0 C 95 % 1013,4 hPa 0,0 l/m 5,6 km/h (1 Bft) W-SW 247 0 min 0,000 mm 0,9 UV-I 139 W/m 4,0 C 4,7 C 8,0 km/h (2 Bft) 97,56 %
27.04.2017 11:42 4,7 C 10,0 C 94 % 1013,3 hPa 0,0 l/m 5,7 km/h (1 Bft) W 269 0 min 0,000 mm 0,9 UV-I 143 W/m 3,8 C 4,7 C 12,9 km/h (3 Bft) 89,47 %
27.04.2017 11:44 4,7 C 10,0 C 94 % 1013,2 hPa 0,0 l/m 1,6 km/h (1 Bft) W-SW 249 0 min 0,000 mm 1,0 UV-I 150 W/m 3,8 C 4,7 C 4,8 km/h (1 Bft) 94,34 %
27.04.2017 11:46 4,7 C 10,0 C 94 % 1013,2 hPa 0,0 l/m 3,6 km/h (1 Bft) W-SW 250 0 min 0,000 mm 1,1 UV-I 163 W/m 3,8 C 4,7 C 6,4 km/h (2 Bft) 96,00 %
27.04.2017 11:48 4,7 C 10,0 C 94 % 1013,2 hPa 0,0 l/m 4,5 km/h (1 Bft) W 271 0 min 0,000 mm 1,2 UV-I 177 W/m 3,8 C 4,7 C 6,4 km/h (2 Bft) 100,00 %
27.04.2017 11:50 4,8 C 10,0 C 94 % 1013,3 hPa 0,0 l/m 3,7 km/h (1 Bft) W-NW 288 0 min 0,000 mm 1,2 UV-I 185 W/m 3,9 C 4,8 C 6,4 km/h (2 Bft) 100,00 %
27.04.2017 11:52 4,8 C 10,0 C 94 % 1013,3 hPa 0,0 l/m 5,0 km/h (1 Bft) W-NW 295 0 min 0,000 mm 1,1 UV-I 177 W/m 3,9 C 4,8 C 9,7 km/h (2 Bft) 100,00 %
27.04.2017 11:54 4,7 C 10,0 C 94 % 1013,3 hPa 0,0 l/m 2,1 km/h (1 Bft) W-NW 292 0 min 0,000 mm 1,1 UV-I 166 W/m 3,8 C 4,7 C 4,8 km/h (1 Bft) 100,00 %
27.04.2017 11:56 4,8 C 10,0 C 94 % 1013,3 hPa 0,0 l/m 2,2 km/h (1 Bft) W-NW 286 0 min 0,000 mm 1,0 UV-I 159 W/m 3,9 C 4,8 C 4,8 km/h (1 Bft) 100,00 %
27.04.2017 11:58 4,8 C 10,0 C 94 % 1013,2 hPa 0,0 l/m 3,1 km/h (1 Bft) W 278 0 min 0,000 mm 1,1 UV-I 170 W/m 3,9 C 4,8 C 6,4 km/h (2 Bft) 100,00 %
27.04.2017 12:00 4,7 C 10,0 C 93 % 1013,2 hPa 0,0 l/m 1,6 km/h (1 Bft) W-NW 292 0 min 0,051 mm 1,2 UV-I 185 W/m 3,7 C 4,7 C 6,4 km/h (2 Bft) 100,00 %
27.04.2017 12:02 4,8 C 10,0 C 93 % 1013,2 hPa 0,0 l/m 2,9 km/h (1 Bft) W-NW 296 0 min 0,000 mm 1,3 UV-I 194 W/m 3,8 C 4,8 C 4,8 km/h (1 Bft) 98,11 %
27.04.2017 12:04 4,8 C 10,0 C 93 % 1013,2 hPa 0,0 l/m 1,9 km/h (1 Bft) W-NW 293 0 min 0,000 mm 1,2 UV-I 190 W/m 3,8 C 4,8 C 3,2 km/h (1 Bft) 100,00 %
27.04.2017 12:06 4,9 C 10,0 C 94 % 1013,3 hPa 0,0 l/m 3,6 km/h (1 Bft) W 280 0 min 0,000 mm 1,2 UV-I 180 W/m 4,0 C 4,9 C 9,7 km/h (2 Bft) 100,00 %
27.04.2017 12:08 4,9 C 10,0 C 93 % 1013,2 hPa 0,0 l/m 4,8 km/h (1 Bft) W 275 0 min 0,000 mm 1,1 UV-I 180 W/m 3,9 C 4,9 C 6,4 km/h (2 Bft) 94,00 %
27.04.2017 12:10 4,9 C 10,0 C 93 % 1013,2 hPa 0,0 l/m 6,5 km/h (2 Bft) W 265 0 min 0,000 mm 1,3 UV-I 197 W/m 3,9 C 4,8 C 11,3 km/h (2 Bft) 94,74 %
27.04.2017 12:12 4,9 C 10,0 C 93 % 1013,2 hPa 0,0 l/m 6,8 km/h (2 Bft) W-SW 258 0 min 0,000 mm 1,3 UV-I 204 W/m 3,9 C 4,6 C 11,3 km/h (2 Bft) 97,87 %
27.04.2017 12:14 4,9 C 10,0 C 93 % 1013,3 hPa 0,0 l/m 6,0 km/h (2 Bft) W-SW 243 0 min 0,000 mm 1,3 UV-I 208 W/m 3,9 C 4,9 C 11,3 km/h (2 Bft) 98,00 %
27.04.2017 12:16 5,1 C 10,0 C 93 % 1013,3 hPa 0,0 l/m 4,7 km/h (1 Bft) NW 316 0 min 0,000 mm 1,2 UV-I 196 W/m 4,1 C 5,1 C 6,4 km/h (2 Bft) 98,00 %
27.04.2017 12:18 5,1 C 10,0 C 93 % 1013,3 hPa 0,0 l/m 5,6 km/h (1 Bft) W 269 0 min 0,000 mm 1,2 UV-I 191 W/m 4,1 C 5,1 C 9,7 km/h (2 Bft) 100,00 %
27.04.2017 12:20 5,1 C 10,0 C 93 % 1013,4 hPa 0,0 l/m 3,0 km/h (1 Bft) W 269 0 min 0,000 mm 1,1 UV-I 178 W/m 4,1 C 5,1 C 4,8 km/h (1 Bft) 97,73 %
27.04.2017 12:22 5,0 C 10,0 C 93 % 1013,4 hPa 0,0 l/m 2,8 km/h (1 Bft) W 271 0 min 0,000 mm 1,1 UV-I 171 W/m 4,0 C 5,0 C 6,4 km/h (2 Bft) 100,00 %
27.04.2017 12:24 5,0 C 10,0 C 92 % 1013,3 hPa 0,0 l/m 1,9 km/h (1 Bft) W 273 0 min 0,000 mm 1,1 UV-I 178 W/m 3,8 C 5,0 C 3,2 km/h (1 Bft) 100,00 %
27.04.2017 12:26 5,0 C 10,0 C 93 % 1013,3 hPa 0,0 l/m 2,8 km/h (1 Bft) W-NW 284 0 min 0,000 mm 1,1 UV-I 165 W/m 4,0 C 5,0 C 6,4 km/h (2 Bft) 100,00 %
27.04.2017 12:28 5,0 C 10,0 C 93 % 1013,4 hPa 0,0 l/m 4,4 km/h (1 Bft) W 271 0 min 0,000 mm 1,0 UV-I 152 W/m 4,0 C 5,0 C 6,4 km/h (2 Bft) 96,00 %
27.04.2017 12:30 4,9 C 10,0 C 92 % 1013,5 hPa 0,0 l/m 4,4 km/h (1 Bft) W-SW 238 0 min 0,000 mm 0,8 UV-I 133 W/m 3,7 C 4,9 C 8,0 km/h (2 Bft) 97,56 %
27.04.2017 12:32 5,0 C 10,0 C 93 % 1013,5 hPa 0,0 l/m 6,3 km/h (2 Bft) W-SW 252 0 min 0,000 mm 0,7 UV-I 116 W/m 4,0 C 5,0 C 9,7 km/h (2 Bft) 97,92 %
27.04.2017 12:34 5,0 C 10,0 C 92 % 1013,5 hPa 0,0 l/m 6,1 km/h (2 Bft) W-SW 248 0 min 0,000 mm 0,7 UV-I 111 W/m 3,8 C 5,0 C 11,3 km/h (2 Bft) 96,15 %
27.04.2017 12:36 5,1 C 10,0 C 93 % 1013,5 hPa 0,0 l/m 4,8 km/h (1 Bft) W-SW 254 0 min 0,000 mm 0,8 UV-I 124 W/m 4,1 C 5,1 C 8,0 km/h (2 Bft) 97,62 %
27.04.2017 12:38 5,0 C 10,0 C 93 % 1013,5 hPa 0,0 l/m 6,6 km/h (2 Bft) W-SW 244 0 min 0,000 mm 0,9 UV-I 141 W/m 4,0 C 4,8 C 11,3 km/h (2 Bft) 94,00 %
27.04.2017 12:40 5,0 C 10,0 C 92 % 1013,4 hPa 0,0 l/m 8,5 km/h (2 Bft) W-SW 257 0 min 0,000 mm 1,0 UV-I 148 W/m 3,8 C 3,2 C 11,3 km/h (2 Bft) 98,00 %
27.04.2017 12:42 5,0 C 10,0 C 93 % 1013,4 hPa 0,0 l/m 5,8 km/h (2 Bft) W-SW 258 0 min 0,000 mm 1,0 UV-I 149 W/m 4,0 C 5,0 C 9,7 km/h (2 Bft) 97,87 %
27.04.2017 12:44 5,0 C 10,0 C 93 % 1013,4 hPa 0,0 l/m 5,5 km/h (1 Bft) W-SW 250 0 min 0,000 mm 1,0 UV-I 163 W/m 4,0 C 5,0 C 9,7 km/h (2 Bft) 94,74 %
27.04.2017 12:46 5,1 C 10,0 C 93 % 1013,3 hPa 0,0 l/m 4,6 km/h (1 Bft) W 281 0 min 0,000 mm 1,1 UV-I 175 W/m 4,1 C 5,1 C 6,4 km/h (2 Bft) 96,23 %
27.04.2017 12:48 5,1 C 10,0 C 93 % 1013,3 hPa 0,0 l/m 4,3 km/h (1 Bft) W-NW 291 0 min 0,000 mm 1,2 UV-I 185 W/m 4,1 C 5,1 C 9,7 km/h (2 Bft) 98,11 %
27.04.2017 12:50 5,1 C 10,0 C 93 % 1013,3 hPa 0,0 l/m 2,8 km/h (1 Bft) W-NW 299 0 min 0,000 mm 1,1 UV-I 178 W/m 4,1 C 5,1 C 4,8 km/h (1 Bft) 97,56 %
27.04.2017 12:52 5,2 C 10,0 C 93 % 1013,3 hPa 0,0 l/m 2,7 km/h (1 Bft) W-SW 247 0 min 0,000 mm 0,9 UV-I 149 W/m 4,2 C 5,2 C 4,8 km/h (1 Bft) 97,73 %
27.04.2017 12:54 5,2 C 10,0 C 93 % 1013,4 hPa 0,0 l/m 7,9 km/h (2 Bft) W-SW 242 0 min 0,000 mm 0,8 UV-I 131 W/m 4,2 C 3,9 C 12,9 km/h (3 Bft) 98,00 %
27.04.2017 12:56 5,2 C 10,0 C 93 % 1013,4 hPa 0,0 l/m 3,9 km/h (1 Bft) W-SW 244 0 min 0,000 mm 0,8 UV-I 131 W/m 4,2 C 5,2 C 8,0 km/h (2 Bft) 97,56 %
27.04.2017 12:58 5,2 C 10,0 C 93 % 1013,3 hPa 0,0 l/m 2,9 km/h (1 Bft) W-SW 244 0 min 0,000 mm 0,9 UV-I 140 W/m 4,2 C 5,2 C 6,4 km/h (2 Bft) 96,00 %
27.04.2017 13:00 5,2 C 10,0 C 93 % 1013,2 hPa 0,0 l/m 3,5 km/h (1 Bft) SW 225 0 min 0,000 mm 0,9 UV-I 137 W/m 4,2 C 5,2 C 6,4 km/h (2 Bft) 96,00 %
27.04.2017 13:02 5,2 C 10,0 C 93 % 1013,1 hPa 0,0 l/m 1,8 km/h (1 Bft) SW 229 0 min 0,076 mm 1,0 UV-I 149 W/m 4,2 C 5,2 C 4,8 km/h (1 Bft) 97,56 %
27.04.2017 13:04 5,2 C 10,0 C 93 % 1013,1 hPa 0,0 l/m 2,5 km/h (1 Bft) W-NW 295 0 min 0,000 mm 1,1 UV-I 170 W/m 4,2 C 5,2 C 4,8 km/h (1 Bft) 98,21 %
27.04.2017 13:06 5,2 C 10,0 C 93 % 1013,1 hPa 0,0 l/m 4,0 km/h (1 Bft) W-SW 258 0 min 0,000 mm 1,1 UV-I 171 W/m 4,2 C 5,2 C 9,7 km/h (2 Bft) 96,67 %
27.04.2017 13:08 5,2 C 10,0 C 93 % 1013,1 hPa 0,0 l/m 2,0 km/h (1 Bft) W-NW 288 0 min 0,000 mm 1,1 UV-I 166 W/m 4,2 C 5,2 C 4,8 km/h (1 Bft) 96,88 %
27.04.2017 13:10 5,2 C 10,0 C 92 % 1013,1 hPa 0,0 l/m 3,3 km/h (1 Bft) W 280 0 min 0,000 mm 1,2 UV-I 173 W/m 4,0 C 5,2 C 6,4 km/h (2 Bft) 95,74 %
27.04.2017 13:12 5,2 C 10,0 C 92 % 1013,1 hPa 0,0 l/m 0,8 km/h (0 Bft) W-SW 252 0 min 0,000 mm 1,3 UV-I 186 W/m 4,0 C 5,2 C 3,2 km/h (1 Bft) 92,31 %
27.04.2017 13:14 5,2 C 10,0 C 93 % 1013,1 hPa 0,0 l/m 2,7 km/h (1 Bft) W-SW 252 0 min 0,000 mm 1,3 UV-I 191 W/m 4,2 C 5,2 C 4,8 km/h (1 Bft) 96,15 %
27.04.2017 13:16 5,2 C 10,0 C 92 % 1013,0 hPa 0,0 l/m 2,8 km/h (1 Bft) NW 319 0 min 0,000 mm 1,3 UV-I 192 W/m 4,0 C 5,2 C 6,4 km/h (2 Bft) 96,00 %
27.04.2017 13:18 5,2 C 10,0 C 92 % 1013,0 hPa 0,0 l/m 1,1 km/h (1 Bft) NW 304 0 min 0,000 mm 1,3 UV-I 190 W/m 4,0 C 5,2 C 3,2 km/h (1 Bft) 95,24 %
27.04.2017 13:20 5,3 C 10,0 C 92 % 1013,1 hPa 0,0 l/m 0,5 km/h (0 Bft) NW 304 0 min 0,000 mm 1,2 UV-I 187 W/m 4,1 C 5,3 C 3,2 km/h (1 Bft) 92,00 %
27.04.2017 13:22 5,4 C 10,0 C 92 % 1013,1 hPa 0,0 l/m 1,8 km/h (1 Bft) NW 316 0 min 0,000 mm 1,1 UV-I 176 W/m 4,2 C 5,4 C 4,8 km/h (1 Bft) 95,45 %
27.04.2017 13:24 5,4 C 10,0 C 92 % 1013,1 hPa 0,0 l/m 1,2 km/h (1 Bft) NW 316 0 min 0,000 mm 1,0 UV-I 158 W/m 4,2 C 5,4 C 3,2 km/h (1 Bft) 95,74 %
27.04.2017 13:26 5,4 C 10,0 C 92 % 1013,1 hPa 0,0 l/m 1,7 km/h (1 Bft) NW 314 0 min 0,000 mm 1,1 UV-I 162 W/m 4,2 C 5,4 C 4,8 km/h (1 Bft) 93,62 %
27.04.2017 13:28 5,4 C 10,0 C 92 % 1013,1 hPa 0,0 l/m 3,3 km/h (1 Bft) W-SW 250 0 min 0,000 mm 1,1 UV-I 163 W/m 4,2 C 5,4 C 4,8 km/h (1 Bft) 96,00 %
27.04.2017 13:30 5,4 C 10,0 C 92 % 1013,1 hPa 0,0 l/m 3,2 km/h (1 Bft) W-SW 257 0 min 0,000 mm 1,0 UV-I 154 W/m 4,2 C 5,4 C 4,8 km/h (1 Bft) 95,12 %
27.04.2017 13:32 5,5 C 10,0 C 92 % 1013,2 hPa 0,0 l/m 5,5 km/h (1 Bft) W-SW 254 0 min 0,000 mm 0,9 UV-I 141 W/m 4,3 C 5,5 C 8,0 km/h (2 Bft) 96,23 %
27.04.2017 13:34 5,4 C 10,0 C 92 % 1013,3 hPa 0,0 l/m 3,6 km/h (1 Bft) W 260 0 min 0,000 mm 0,8 UV-I 126 W/m 4,2 C 5,4 C 6,4 km/h (2 Bft) 94,74 %
27.04.2017 13:36 5,4 C 10,0 C 92 % 1013,2 hPa 0,0 l/m 4,1 km/h (1 Bft) W 278 0 min 0,000 mm 0,7 UV-I 121 W/m 4,2 C 5,4 C 6,4 km/h (2 Bft) 96,08 %
27.04.2017 13:38 5,3 C 10,0 C 91 % 1013,2 hPa 0,0 l/m 1,4 km/h (1 Bft) W 278 0 min 0,000 mm 0,9 UV-I 137 W/m 4,0 C 5,3 C 3,2 km/h (1 Bft) 97,87 %
27.04.2017 13:40 5,3 C 10,0 C 92 % 1013,1 hPa 0,0 l/m 2,5 km/h (1 Bft) W 275 0 min 0,000 mm 1,0 UV-I 160 W/m 4,1 C 5,3 C 6,4 km/h (2 Bft) 95,74 %
27.04.2017 13:42 5,3 C 10,0 C 92 % 1013,0 hPa 0,0 l/m 1,9 km/h (1 Bft) W-NW 291 0 min 0,000 mm 1,2 UV-I 199 W/m 4,1 C 5,3 C 4,8 km/h (1 Bft) 92,68 %
27.04.2017 13:44 5,4 C 10,0 C 92 % 1013,0 hPa 0,0 l/m 2,5 km/h (1 Bft) W-NW 290 0 min 0,000 mm 1,3 UV-I 208 W/m 4,2 C 5,4 C 4,8 km/h (1 Bft) 91,49 %
27.04.2017 13:46 5,3 C 10,0 C 91 % 1013,2 hPa 0,0 l/m 3,4 km/h (1 Bft) W-NW 282 0 min 0,000 mm 1,2 UV-I 195 W/m 4,0 C 5,3 C 6,4 km/h (2 Bft) 96,43 %
27.04.2017 13:48 5,4 C 10,0 C 92 % 1013,2 hPa 0,0 l/m 2,2 km/h (1 Bft) W-NW 283 0 min 0,000 mm 1,1 UV-I 174 W/m 4,2 C 5,4 C 4,8 km/h (1 Bft) 100,00 %
27.04.2017 13:50 5,4 C 10,0 C 92 % 1013,3 hPa 0,0 l/m 2,3 km/h (1 Bft) W-SW 257 0 min 0,000 mm 1,0 UV-I 156 W/m 4,2 C 5,4 C 6,4 km/h (2 Bft) 96,00 %
27.04.2017 13:52 5,5 C 10,0 C 92 % 1013,3 hPa 0,0 l/m 3,1 km/h (1 Bft) W-NW 294 0 min 0,000 mm 0,9 UV-I 145 W/m 4,3 C 5,5 C 6,4 km/h (2 Bft) 96,23 %
27.04.2017 13:54 5,5 C 10,0 C 92 % 1013,3 hPa 0,0 l/m 4,5 km/h (1 Bft) W-NW 284 0 min 0,000 mm 0,9 UV-I 140 W/m 4,3 C 5,5 C 9,7 km/h (2 Bft) 93,62 %
27.04.2017 13:56 5,5 C 10,0 C 92 % 1013,3 hPa 0,0 l/m 1,9 km/h (1 Bft) W-NW 294 0 min 0,000 mm 0,9 UV-I 143 W/m 4,3 C 5,5 C 4,8 km/h (1 Bft) 100,00 %
27.04.2017 13:58 5,5 C 10,0 C 92 % 1013,3 hPa 0,0 l/m 2,7 km/h (1 Bft) W 259 0 min 0,000 mm 1,0 UV-I 160 W/m 4,3 C 5,5 C 4,8 km/h (1 Bft) 100,00 %
27.04.2017 14:00 5,5 C 10,0 C 92 % 1013,2 hPa 0,0 l/m 2,6 km/h (1 Bft) W 261 0 min 0,000 mm 1,0 UV-I 173 W/m 4,3 C 5,5 C 3,2 km/h (1 Bft) 100,00 %
27.04.2017 14:02 5,5 C 10,0 C 91 % 1013,2 hPa 0,0 l/m 2,4 km/h (1 Bft) W 267 0 min 0,076 mm 1,0 UV-I 167 W/m 4,2 C 5,5 C 6,4 km/h (2 Bft) 96,23 %
27.04.2017 14:04 5,4 C 10,0 C 91 % 1013,2 hPa 0,0 l/m 2,7 km/h (1 Bft) W 277 0 min 0,000 mm 1,1 UV-I 176 W/m 4,1 C 5,4 C 4,8 km/h (1 Bft) 97,56 %
27.04.2017 14:06 5,4 C 10,0 C 91 % 1013,2 hPa 0,0 l/m 3,2 km/h (1 Bft) W 259 0 min 0,000 mm 1,1 UV-I 183 W/m 4,1 C 5,4 C 6,4 km/h (2 Bft) 98,00 %
27.04.2017 14:08 5,6 C 10,0 C 92 % 1013,2 hPa 0,0 l/m 2,8 km/h (1 Bft) W 263 0 min 0,000 mm 1,1 UV-I 181 W/m 4,4 C 5,6 C 4,8 km/h (1 Bft) 98,00 %
27.04.2017 14:10 5,6 C 10,0 C 91 % 1013,3 hPa 0,0 l/m 5,8 km/h (2 Bft) SW 236 0 min 0,000 mm 1,1 UV-I 185 W/m 4,2 C 5,6 C 8,0 km/h (2 Bft) 100,00 %
27.04.2017 14:12 5,6 C 10,0 C 91 % 1013,3 hPa 0,0 l/m 4,2 km/h (1 Bft) W-NW 283 0 min 0,000 mm 1,1 UV-I 189 W/m 4,2 C 5,6 C 8,0 km/h (2 Bft) 98,21 %
27.04.2017 14:14 5,6 C 10,0 C 91 % 1013,3 hPa 0,0 l/m 4,7 km/h (1 Bft) W 267 0 min 0,000 mm 1,0 UV-I 169 W/m 4,2 C 5,6 C 6,4 km/h (2 Bft) 100,00 %
27.04.2017 14:16 5,6 C 10,0 C 90 % 1013,2 hPa 0,0 l/m 3,1 km/h (1 Bft) W 271 0 min 0,000 mm 1,0 UV-I 160 W/m 4,1 C 5,6 C 4,8 km/h (1 Bft) 98,11 %
27.04.2017 14:18 5,6 C 10,0 C 90 % 1013,3 hPa 0,0 l/m 4,3 km/h (1 Bft) W 273 0 min 0,000 mm 1,0 UV-I 160 W/m 4,1 C 5,6 C 9,7 km/h (2 Bft) 95,12 %
27.04.2017 14:20 5,6 C 10,0 C 90 % 1013,3 hPa 0,0 l/m 4,5 km/h (1 Bft) W 271 0 min 0,000 mm 1,0 UV-I 163 W/m 4,1 C 5,6 C 11,3 km/h (2 Bft) 100,00 %
27.04.2017 14:22 5,6 C 10,0 C 90 % 1013,4 hPa 0,0 l/m 4,3 km/h (1 Bft) W-NW 284 0 min 0,000 mm 0,9 UV-I 163 W/m 4,1 C 5,6 C 8,0 km/h (2 Bft) 97,87 %
27.04.2017 14:24 5,6 C 10,0 C 90 % 1013,4 hPa 0,0 l/m 2,7 km/h (1 Bft) W-NW 299 0 min 0,000 mm 1,0 UV-I 170 W/m 4,1 C 5,6 C 6,4 km/h (2 Bft) 98,21 %
27.04.2017 14:26 5,6 C 10,0 C 90 % 1013,4 hPa 0,0 l/m 1,6 km/h (1 Bft) W-SW 257 0 min 0,000 mm 1,0 UV-I 168 W/m 4,1 C 5,6 C 4,8 km/h (1 Bft) 100,00 %
27.04.2017 14:28 5,6 C 10,0 C 90 % 1013,4 hPa 0,0 l/m 3,6 km/h (1 Bft) W 260 0 min 0,000 mm 0,9 UV-I 159 W/m 4,1 C 5,6 C 6,4 km/h (2 Bft) 100,00 %
27.04.2017 14:30 5,6 C 10,0 C 89 % 1013,4 hPa 0,0 l/m 2,9 km/h (1 Bft) W-NW 289 0 min 0,000 mm 0,9 UV-I 158 W/m 3,9 C 5,6 C 6,4 km/h (2 Bft) 97,56 %
27.04.2017 14:32 5,7 C 10,0 C 90 % 1013,4 hPa 0,0 l/m 3,4 km/h (1 Bft) W 266 0 min 0,000 mm 0,9 UV-I 164 W/m 4,2 C 5,7 C 4,8 km/h (1 Bft) 96,00 %
27.04.2017 14:34 5,7 C 10,0 C 90 % 1013,4 hPa 0,0 l/m 1,5 km/h (1 Bft) W 266 0 min 0,000 mm 0,9 UV-I 163 W/m 4,2 C 5,7 C 3,2 km/h (1 Bft) 100,00 %
27.04.2017 14:36 5,8 C 10,0 C 90 % 1013,5 hPa 0,0 l/m 3,8 km/h (1 Bft) W 262 0 min 0,000 mm 0,8 UV-I 151 W/m 4,3 C 5,8 C 6,4 km/h (2 Bft) 97,44 %
27.04.2017 14:38 5,8 C 10,0 C 90 % 1013,5 hPa 0,0 l/m 3,1 km/h (1 Bft) W 269 0 min 0,000 mm 0,8 UV-I 144 W/m 4,3 C 5,8 C 4,8 km/h (1 Bft) 95,74 %
27.04.2017 14:40 5,7 C 10,0 C 89 % 1013,4 hPa 0,0 l/m 3,6 km/h (1 Bft) W 279 0 min 0,000 mm 0,8 UV-I 143 W/m 4,0 C 5,7 C 9,7 km/h (2 Bft) 95,74 %
27.04.2017 14:42 5,6 C 10,0 C 89 % 1013,4 hPa 0,0 l/m 2,8 km/h (1 Bft) W-SW 254 0 min 0,000 mm 0,8 UV-I 150 W/m 3,9 C 5,6 C 4,8 km/h (1 Bft) 100,00 %
27.04.2017 14:44 5,6 C 10,0 C 89 % 1013,4 hPa 0,0 l/m 5,4 km/h (1 Bft) W-SW 245 0 min 0,000 mm 0,9 UV-I 158 W/m 3,9 C 5,6 C 9,7 km/h (2 Bft) 95,12 %
27.04.2017 14:46 5,7 C 10,0 C 90 % 1013,4 hPa 0,0 l/m 3,2 km/h (1 Bft) W-SW 245 0 min 0,000 mm 0,9 UV-I 155 W/m 4,2 C 5,7 C 4,8 km/h (1 Bft) 95,74 %
27.04.2017 14:48 5,7 C 10,0 C 89 % 1013,4 hPa 0,0 l/m 2,8 km/h (1 Bft) W-NW 282 0 min 0,000 mm 0,8 UV-I 153 W/m 4,0 C 5,7 C 4,8 km/h (1 Bft) 98,11 %
27.04.2017 14:50 5,7 C 10,0 C 89 % 1013,4 hPa 0,0 l/m 2,1 km/h (1 Bft) W-NW 286 0 min 0,000 mm 0,8 UV-I 149 W/m 4,0 C 5,7 C 4,8 km/h (1 Bft) 97,87 %
27.04.2017 14:52 5,7 C 10,0 C 89 % 1013,4 hPa 0,0 l/m 3,8 km/h (1 Bft) W-SW 254 0 min 0,000 mm 0,8 UV-I 144 W/m 4,0 C 5,7 C 6,4 km/h (2 Bft) 97,87 %
27.04.2017 14:54 5,7 C 10,0 C 88 % 1013,4 hPa 0,0 l/m 3,5 km/h (1 Bft) W-SW 254 0 min 0,000 mm 0,8 UV-I 141 W/m 3,9 C 5,7 C 4,8 km/h (1 Bft) 100,00 %
27.04.2017 14:56 5,7 C 10,0 C 88 % 1013,4 hPa 0,0 l/m 2,9 km/h (1 Bft) W 268 0 min 0,000 mm 0,7 UV-I 135 W/m 3,9 C 5,7 C 6,4 km/h (2 Bft) 92,68 %
27.04.2017 14:58 5,7 C 10,0 C 88 % 1013,5 hPa 0,0 l/m 3,0 km/h (1 Bft) W 271 0 min 0,000 mm 0,7 UV-I 125 W/m 3,9 C 5,7 C 4,8 km/h (1 Bft) 94,64 %
27.04.2017 15:00 5,7 C 10,0 C 87 % 1013,5 hPa 0,0 l/m 4,4 km/h (1 Bft) W 266 0 min 0,076 mm 0,6 UV-I 120 W/m 3,7 C 5,7 C 6,4 km/h (2 Bft) 100,00 %
27.04.2017 15:02 5,7 C 10,0 C 88 % 1013,5 hPa 0,0 l/m 2,1 km/h (1 Bft) W-NW 286 0 min 0,000 mm 0,6 UV-I 119 W/m 3,9 C 5,7 C 4,8 km/h (1 Bft) 100,00 %
27.04.2017 15:04 5,6 C 10,0 C 87 % 1013,5 hPa 0,0 l/m 2,6 km/h (1 Bft) W-NW 291 0 min 0,000 mm 0,6 UV-I 113 W/m 3,6 C 5,6 C 6,4 km/h (2 Bft) 100,00 %
27.04.2017 15:06 5,6 C 10,0 C 88 % 1013,4 hPa 0,0 l/m 0,1 km/h (0 Bft) W-NW 291 0 min 0,000 mm 0,6 UV-I 113 W/m 3,8 C 5,6 C 1,6 km/h (1 Bft) 94,00 %
27.04.2017 15:08 5,7 C 10,0 C 89 % 1013,4 hPa 0,0 l/m 2,6 km/h (1 Bft) W-NW 291 0 min 0,000 mm 0,6 UV-I 118 W/m 4,0 C 5,7 C 4,8 km/h (1 Bft) 97,37 %
27.04.2017 15:10 5,7 C 10,0 C 87 % 1013,4 hPa 0,0 l/m 1,8 km/h (1 Bft) W-NW 283 0 min 0,000 mm 0,6 UV-I 123 W/m 3,7 C 5,7 C 3,2 km/h (1 Bft) 100,00 %
27.04.2017 15:12 5,7 C 10,0 C 88 % 1013,4 hPa 0,0 l/m 1,6 km/h (1 Bft) W-NW 283 0 min 0,000 mm 0,6 UV-I 116 W/m 3,9 C 5,7 C 3,2 km/h (1 Bft) 92,00 %
27.04.2017 15:14 5,7 C 10,0 C 88 % 1013,4 hPa 0,0 l/m 2,8 km/h (1 Bft) W-NW 283 0 min 0,000 mm 0,5 UV-I 110 W/m 3,9 C 5,7 C 4,8 km/h (1 Bft) 100,00 %
27.04.2017 15:16 5,7 C 10,0 C 88 % 1013,3 hPa 0,0 l/m 2,5 km/h (1 Bft) W-NW 285 0 min 0,000 mm 0,5 UV-I 112 W/m 3,9 C 5,7 C 4,8 km/h (1 Bft) 94,23 %
27.04.2017 15:19 5,7 C 10,0 C 88 % 1013,3 hPa 0,0 l/m 1,2 km/h (1 Bft) W-NW 285 0 min 0,000 mm 0,6 UV-I 123 W/m 3,9 C 5,7 C 3,2 km/h (1 Bft) 96,92 %
27.04.2017 15:20 5,7 C 10,0 C 88 % 1013,3 hPa 0,0 l/m 1,3 km/h (1 Bft) W-NW 285 0 min 0,000 mm 0,6 UV-I 127 W/m 3,9 C 5,7 C 3,2 km/h (1 Bft) 91,67 %
27.04.2017 15:22 5,7 C 10,0 C 89 % 1013,2 hPa 0,0 l/m 2,8 km/h (1 Bft) W 280 0 min 0,000 mm 0,6 UV-I 124 W/m 4,0 C 5,7 C 4,8 km/h (1 Bft) 96,00 %
27.04.2017 15:24 5,7 C 10,0 C 89 % 1013,2 hPa 0,0 l/m 0,5 km/h (0 Bft) W 280 0 min 0,000 mm 0,6 UV-I 119 W/m 4,0 C 5,7 C 3,2 km/h (1 Bft) 91,49 %
27.04.2017 15:26 5,7 C 10,0 C 89 % 1013,3 hPa 0,0 l/m 0,7 km/h (0 Bft) W-NW 284 0 min 0,000 mm 0,6 UV-I 118 W/m 4,0 C 5,7 C 1,6 km/h (1 Bft) 97,37 %
27.04.2017 15:28 5,7 C 10,0 C 89 % 1013,2 hPa 0,0 l/m 0,0 km/h (0 Bft) W-NW 284 0 min 0,000 mm 0,6 UV-I 118 W/m 4,0 C 5,7 C 1,6 km/h (1 Bft) 95,74 %
27.04.2017 15:30 5,8 C 10,0 C 89 % 1013,2 hPa 0,0 l/m 0,3 km/h (0 Bft) W-NW 284 0 min 0,000 mm 0,6 UV-I 117 W/m 4,1 C 5,8 C 1,6 km/h (1 Bft) 96,00 %
27.04.2017 15:32 5,8 C 10,0 C 89 % 1013,3 hPa 0,0 l/m 2,7 km/h (1 Bft) W-NW 294 0 min 0,000 mm 0,5 UV-I 110 W/m 4,1 C 5,8 C 6,4 km/h (2 Bft) 98,11 %
27.04.2017 15:34 5,8 C 10,0 C 89 % 1013,3 hPa 0,0 l/m 2,5 km/h (1 Bft) W-NW 294 0 min 0,000 mm 0,5 UV-I 109 W/m 4,1 C 5,8 C 4,8 km/h (1 Bft) 94,74 %
27.04.2017 15:36 5,7 C 10,0 C 89 % 1013,3 hPa 0,0 l/m 2,4 km/h (1 Bft) W-NW 294 0 min 0,000 mm 0,5 UV-I 103 W/m 4,0 C 5,7 C 4,8 km/h (1 Bft) 97,87 %
27.04.2017 15:39 5,7 C 10,0 C 89 % 1013,4 hPa 0,0 l/m 0,7 km/h (0 Bft) W-NW 294 0 min 0,000 mm 0,2 UV-I 94 W/m 4,0 C 5,7 C 3,2 km/h (1 Bft) 94,37 %
27.04.2017 15:40 5,7 C 10,0 C 89 % 1013,5 hPa 0,0 l/m 0,1 km/h (0 Bft) W-NW 294 0 min 0,000 mm 0,0 UV-I 94 W/m 4,0 C 5,7 C 1,6 km/h (1 Bft) 100,00 %
27.04.2017 15:42 5,7 C 10,0 C 88 % 1013,4 hPa 0,0 l/m 1,2 km/h (1 Bft) W-NW 294 0 min 0,000 mm 0,1 UV-I 96 W/m 3,9 C 5,7 C 4,8 km/h (1 Bft) 96,23 %
27.04.2017 15:45 5,7 C 10,0 C 88 % 1013,4 hPa 0,0 l/m 0,9 km/h (0 Bft) W-NW 294 0 min 0,000 mm 0,5 UV-I 101 W/m 3,9 C 5,7 C 4,8 km/h (1 Bft) 91,18 %
27.04.2017 15:46 5,7 C 10,0 C 88 % 1013,4 hPa 0,0 l/m 1,2 km/h (1 Bft) W-NW 294 0 min 0,000 mm 0,5 UV-I 103 W/m 3,9 C 5,7 C 3,2 km/h (1 Bft) 96,15 %
27.04.2017 15:50 5,7 C 10,0 C 89 % 1013,4 hPa 0,0 l/m 0,7 km/h (0 Bft) W-NW 294 0 min 0,000 mm 0,1 UV-I 97 W/m 4,0 C 5,7 C 4,8 km/h (1 Bft) 95,35 %
27.04.2017 15:52 5,8 C 10,0 C 90 % 1013,4 hPa 0,0 l/m 0,1 km/h (0 Bft) W-NW 294 0 min 0,000 mm 0,0 UV-I 99 W/m 4,3 C 5,8 C 1,6 km/h (1 Bft) 95,74 %
27.04.2017 15:54 5,8 C 10,0 C 89 % 1013,5 hPa 0,0 l/m 0,7 km/h (0 Bft) W-NW 294 0 min 0,000 mm 0,0 UV-I 95 W/m 4,1 C 5,8 C 3,2 km/h (1 Bft) 98,00 %
27.04.2017 15:56 5,8 C 10,0 C 89 % 1013,5 hPa 0,0 l/m 1,2 km/h (1 Bft) W-NW 294 0 min 0,000 mm 0,0 UV-I 81 W/m 4,1 C 5,8 C 4,8 km/h (1 Bft) 100,00 %
27.04.2017 15:58 5,7 C 10,0 C 89 % 1013,5 hPa 0,0 l/m 2,6 km/h (1 Bft) W-NW 291 0 min 0,000 mm 0,0 UV-I 76 W/m 4,0 C 5,7 C 4,8 km/h (1 Bft) 98,00 %
27.04.2017 16:00 5,7 C 10,0 C 88 % 1013,4 hPa 0,0 l/m 2,3 km/h (1 Bft) W-NW 293 0 min 0,000 mm 0,0 UV-I 77 W/m 3,9 C 5,7 C 3,2 km/h (1 Bft) 91,49 %
27.04.2017 16:02 5,7 C 10,0 C 88 % 1013,5 hPa 0,0 l/m 2,7 km/h (1 Bft) W-NW 284 0 min 0,051 mm 0,0 UV-I 72 W/m 3,9 C 5,7 C 4,8 km/h (1 Bft) 98,00 %
27.04.2017 16:04 5,7 C 10,0 C 88 % 1013,5 hPa 0,0 l/m 1,5 km/h (1 Bft) W-NW 284 0 min 0,000 mm 0,0 UV-I 66 W/m 3,9 C 5,7 C 3,2 km/h (1 Bft) 96,00 %
27.04.2017 16:06 5,7 C 10,0 C 89 % 1013,5 hPa 0,0 l/m 0,5 km/h (0 Bft) W-NW 284 0 min 0,000 mm 0,0 UV-I 67 W/m 4,0 C 5,7 C 3,2 km/h (1 Bft) 93,62 %
27.04.2017 16:08 5,7 C 10,0 C 88 % 1013,6 hPa 0,0 l/m 0,3 km/h (0 Bft) W-NW 284 0 min 0,000 mm 0,0 UV-I 69 W/m 3,9 C 5,7 C 1,6 km/h (1 Bft) 97,87 %
27.04.2017 16:10 5,7 C 10,0 C 89 % 1013,5 hPa 0,0 l/m 0,8 km/h (0 Bft) W-NW 284 0 min 0,000 mm 0,0 UV-I 69 W/m 4,0 C 5,7 C 3,2 km/h (1 Bft) 100,00 %
27.04.2017 16:12 5,7 C 10,0 C 88 % 1013,5 hPa 0,0 l/m 0,3 km/h (0 Bft) W-NW 284 0 min 0,000 mm 0,0 UV-I 63 W/m 3,9 C 5,7 C 3,2 km/h (1 Bft) 98,21 %
27.04.2017 16:14 5,7 C 10,0 C 89 % 1013,4 hPa 0,0 l/m 0,2 km/h (0 Bft) W-NW 284 0 min 0,000 mm 0,0 UV-I 58 W/m 4,0 C 5,7 C 1,6 km/h (1 Bft) 92,31 %
27.04.2017 16:16 5,7 C 10,0 C 89 % 1013,4 hPa 0,0 l/m 2,1 km/h (1 Bft) W-NW 284 0 min 0,000 mm 0,0 UV-I 60 W/m 4,0 C 5,7 C 4,8 km/h (1 Bft) 95,77 %
27.04.2017 16:18 5,7 C 10,0 C 89 % 1013,4 hPa 0,0 l/m 1,4 km/h (1 Bft) W-NW 284 0 min 0,000 mm 0,0 UV-I 62 W/m 4,0 C 5,7 C 3,2 km/h (1 Bft) 97,56 %
27.04.2017 16:20 5,7 C 10,0 C 89 % 1013,4 hPa 0,0 l/m 1,2 km/h (1 Bft) W-NW 284 0 min 0,000 mm 0,0 UV-I 61 W/m 4,0 C 5,7 C 4,8 km/h (1 Bft) 97,56 %
27.04.2017 16:22 5,6 C 10,0 C 89 % 1013,4 hPa 0,0 l/m 0,2 km/h (0 Bft) W-NW 284 0 min 0,000 mm 0,0 UV-I 61 W/m 3,9 C 5,6 C 1,6 km/h (1 Bft) 97,87 %
27.04.2017 16:24 5,6 C 10,0 C 89 % 1013,4 hPa 0,0 l/m 1,9 km/h (1 Bft) W-NW 284 0 min 0,000 mm 0,0 UV-I 63 W/m 3,9 C 5,6 C 3,2 km/h (1 Bft) 91,49 %
27.04.2017 16:26 5,6 C 10,0 C 89 % 1013,3 hPa 0,0 l/m 0,0 km/h (0 Bft) W-NW 284 0 min 0,000 mm 0,0 UV-I 63 W/m 3,9 C 5,6 C 0,0 km/h (0 Bft) 98,21 %
27.04.2017 16:28 5,6 C 10,0 C 89 % 1013,4 hPa 0,0 l/m 0,3 km/h (0 Bft) W-NW 284 0 min 0,000 mm 0,0 UV-I 67 W/m 3,9 C 5,6 C 1,6 km/h (1 Bft) 100,00 %
27.04.2017 16:30 5,6 C 10,0 C 89 % 1013,4 hPa 0,0 l/m 0,2 km/h (0 Bft) W-NW 284 0 min 0,000 mm 0,0 UV-I 67 W/m 3,9 C 5,6 C 1,6 km/h (1 Bft) 95,74 %
27.04.2017 16:32 5,7 C 10,0 C 89 % 1013,4 hPa 0,0 l/m 2,1 km/h (1 Bft) W-NW 284 0 min 0,000 mm 0,0 UV-I 69 W/m 4,0 C 5,7 C 3,2 km/h (1 Bft) 91,49 %
27.04.2017 16:34 5,6 C 10,0 C 89 % 1013,3 hPa 0,0 l/m 0,1 km/h (0 Bft) W-NW 284 0 min 0,000 mm 0,0 UV-I 71 W/m 3,9 C 5,6 C 1,6 km/h (1 Bft) 96,00 %
27.04.2017 16:36 5,7 C 10,0 C 90 % 1013,3 hPa 0,0 l/m 0,0 km/h (0 Bft) W-NW 284 0 min 0,000 mm 0,0 UV-I 76 W/m 4,2 C 5,7 C 0,0 km/h (0 Bft) 95,74 %
27.04.2017 16:38 5,7 C 10,0 C 90 % 1013,3 hPa 0,0 l/m 0,7 km/h (0 Bft) W-NW 284 0 min 0,000 mm 0,0 UV-I 82 W/m 4,2 C 5,7 C 3,2 km/h (1 Bft) 94,00 %
27.04.2017 16:40 5,7 C 10,0 C 89 % 1013,3 hPa 0,0 l/m 0,0 km/h (0 Bft) W-NW 284 0 min 0,000 mm 0,0 UV-I 83 W/m 4,0 C 5,7 C 1,6 km/h (1 Bft) 97,87 %
27.04.2017 16:42 5,7 C 10,0 C 90 % 1013,3 hPa 0,0 l/m 0,2 km/h (0 Bft) W-NW 284 0 min 0,000 mm 0,0 UV-I 77 W/m 4,2 C 5,7 C 1,6 km/h (1 Bft) 97,37 %
27.04.2017 16:44 5,7 C 10,0 C 90 % 1013,3 hPa 0,0 l/m 0,3 km/h (0 Bft) W-NW 284 0 min 0,000 mm 0,0 UV-I 77 W/m 4,2 C 5,7 C 1,6 km/h (1 Bft) 94,34 %
27.04.2017 16:46 5,7 C 10,0 C 90 % 1013,3 hPa 0,0 l/m 0,5 km/h (0 Bft) W-NW 284 0 min 0,000 mm 0,0 UV-I 77 W/m 4,2 C 5,7 C 3,2 km/h (1 Bft) 95,12 %
27.04.2017 16:48 5,8 C 10,0 C 90 % 1013,3 hPa 0,0 l/m 0,3 km/h (0 Bft) W-NW 284 0 min 0,000 mm 0,0 UV-I 76 W/m 4,3 C 5,8 C 1,6 km/h (1 Bft) 94,34 %
27.04.2017 16:50 5,7 C 10,0 C 89 % 1013,2 hPa 0,0 l/m 1,0 km/h (0 Bft) W-NW 284 0 min 0,000 mm 0,0 UV-I 79 W/m 4,0 C 5,7 C 4,8 km/h (1 Bft) 94,00 %
27.04.2017 16:52 5,7 C 10,0 C 90 % 1013,2 hPa 0,0 l/m 0,0 km/h (0 Bft) W-NW 284 0 min 0,000 mm 0,0 UV-I 84 W/m 4,2 C 5,7 C 0,0 km/h (0 Bft) 95,12 %
27.04.2017 16:54 5,6 C 10,0 C 89 % 1013,1 hPa 0,0 l/m 0,0 km/h (0 Bft) W-NW 284 0 min 0,000 mm 0,0 UV-I 84 W/m 3,9 C 5,6 C 0,0 km/h (0 Bft) 90,00 %
27.04.2017 16:56 5,7 C 10,0 C 90 % 1013,1 hPa 0,0 l/m 0,6 km/h (0 Bft) W-NW 284 0 min 0,000 mm 0,0 UV-I 83 W/m 4,2 C 5,7 C 1,6 km/h (1 Bft) 97,87 %
27.04.2017 16:58 5,7 C 10,0 C 90 % 1013,0 hPa 0,0 l/m 1,1 km/h (1 Bft) N-NW 345 0 min 0,000 mm 0,0 UV-I 84 W/m 4,2 C 5,7 C 4,8 km/h (1 Bft) 96,00 %
27.04.2017 17:00 5,7 C 10,0 C 90 % 1013,0 hPa 0,0 l/m 0,7 km/h (0 Bft) N-NW 347 0 min 0,026 mm 0,0 UV-I 92 W/m 4,2 C 5,7 C 3,2 km/h (1 Bft) 92,11 %
27.04.2017 17:02 5,6 C 10,0 C 90 % 1013,0 hPa 0,0 l/m 0,7 km/h (0 Bft) NW 321 0 min 0,000 mm 0,0 UV-I 95 W/m 4,1 C 5,6 C 3,2 km/h (1 Bft) 96,00 %
27.04.2017 17:04 5,6 C 10,0 C 91 % 1013,2 hPa 0,0 l/m 1,1 km/h (1 Bft) N-NW 348 0 min 0,000 mm 0,0 UV-I 85 W/m 4,2 C 5,6 C 3,2 km/h (1 Bft) 93,18 %
27.04.2017 17:06 5,6 C 10,0 C 91 % 1013,3 hPa 0,0 l/m 0,1 km/h (0 Bft) N 349 0 min 0,000 mm 0,0 UV-I 74 W/m 4,2 C 5,6 C 1,6 km/h (1 Bft) 88,00 %
27.04.2017 17:08 5,6 C 10,0 C 92 % 1013,4 hPa 0,0 l/m 0,2 km/h (0 Bft) N 349 0 min 0,000 mm 0,0 UV-I 63 W/m 4,4 C 5,6 C 1,6 km/h (1 Bft) 96,23 %
27.04.2017 17:10 5,4 C 10,0 C 92 % 1013,5 hPa 0,0 l/m 0,2 km/h (0 Bft) N 349 0 min 0,000 mm 0,0 UV-I 58 W/m 4,2 C 5,4 C 1,6 km/h (1 Bft) 94,44 %
27.04.2017 17:12 5,4 C 10,0 C 92 % 1013,4 hPa 0,0 l/m 0,0 km/h (0 Bft) N 349 0 min 0,000 mm 0,0 UV-I 57 W/m 4,2 C 5,4 C 0,0 km/h (0 Bft) 96,23 %
27.04.2017 17:14 5,4 C 10,0 C 92 % 1013,4 hPa 0,0 l/m 0,0 km/h (0 Bft) N 349 0 min 0,000 mm 0,0 UV-I 61 W/m 4,2 C 5,4 C 0,0 km/h (0 Bft) 95,74 %
27.04.2017 17:16 5,3 C 10,0 C 92 % 1013,4 hPa 0,0 l/m 0,0 km/h (0 Bft) N 349 0 min 0,000 mm 0,0 UV-I 64 W/m 4,1 C 5,3 C 0,0 km/h (0 Bft) 94,00 %
27.04.2017 17:18 5,3 C 10,0 C 93 % 1013,4 hPa 0,0 l/m 0,1 km/h (0 Bft) N 349 0 min 0,000 mm 0,0 UV-I 66 W/m 4,3 C 5,3 C 1,6 km/h (1 Bft) 89,47 %
27.04.2017 17:20 5,3 C 10,0 C 93 % 1013,4 hPa 0,0 l/m 0,0 km/h (0 Bft) N 349 0 min 0,000 mm 0,0 UV-I 70 W/m 4,3 C 5,3 C 0,0 km/h (0 Bft) 94,00 %
27.04.2017 17:22 5,3 C 10,0 C 93 % 1013,3 hPa 0,0 l/m 0,1 km/h (0 Bft) N 349 0 min 0,000 mm 0,0 UV-I 77 W/m 4,3 C 5,3 C 1,6 km/h (1 Bft) 96,00 %
27.04.2017 17:24 5,3 C 10,0 C 93 % 1013,3 hPa 0,0 l/m 1,9 km/h (1 Bft) N 349 0 min 0,000 mm 0,0 UV-I 80 W/m 4,3 C 5,3 C 4,8 km/h (1 Bft) 96,00 %
27.04.2017 17:26 5,3 C 10,0 C 93 % 1013,2 hPa 0,0 l/m 3,4 km/h (1 Bft) N 350 0 min 0,000 mm 0,0 UV-I 84 W/m 4,3 C 5,3 C 4,8 km/h (1 Bft) 90,24 %
27.04.2017 17:28 5,3 C 10,0 C 93 % 1013,2 hPa 0,0 l/m 2,2 km/h (1 Bft) N 350 0 min 0,000 mm 0,0 UV-I 89 W/m 4,3 C 5,3 C 3,2 km/h (1 Bft) 92,45 %
27.04.2017 17:30 5,3 C 10,0 C 93 % 1013,2 hPa 0,0 l/m 0,1 km/h (0 Bft) N 350 0 min 0,000 mm 0,0 UV-I 81 W/m 4,3 C 5,3 C 1,6 km/h (1 Bft) 97,37 %
27.04.2017 17:32 5,3 C 10,0 C 93 % 1013,2 hPa 0,0 l/m 0,0 km/h (0 Bft) N 350 0 min 0,000 mm 0,0 UV-I 73 W/m 4,3 C 5,3 C 0,0 km/h (0 Bft) 92,00 %
27.04.2017 17:34 5,3 C 10,0 C 93 % 1013,2 hPa 0,0 l/m 0,4 km/h (0 Bft) N 350 0 min 0,000 mm 0,0 UV-I 70 W/m 4,3 C 5,3 C 1,6 km/h (1 Bft) 89,36 %
27.04.2017 17:36 5,3 C 10,0 C 93 % 1013,1 hPa 0,0 l/m 0,7 km/h (0 Bft) N 350 0 min 0,000 mm 0,0 UV-I 70 W/m 4,3 C 5,3 C 1,6 km/h (1 Bft) 89,36 %
27.04.2017 17:38 5,3 C 10,0 C 93 % 1013,0 hPa 0,0 l/m 2,3 km/h (1 Bft) N 355 0 min 0,000 mm 0,0 UV-I 70 W/m 4,3 C 5,3 C 4,8 km/h (1 Bft) 93,62 %
27.04.2017 17:40 5,4 C 10,0 C 94 % 1013,0 hPa 0,0 l/m 0,1 km/h (0 Bft) N 355 0 min 0,000 mm 0,0 UV-I 75 W/m 4,5 C 5,4 C 1,6 km/h (1 Bft) 95,12 %
27.04.2017 17:42 5,4 C 10,0 C 94 % 1012,9 hPa 0,0 l/m 0,2 km/h (0 Bft) N-NW 348 0 min 0,000 mm 0,0 UV-I 77 W/m 4,5 C 5,4 C 1,6 km/h (1 Bft) 87,18 %
27.04.2017 17:44 5,3 C 10,0 C 94 % 1013,0 hPa 0,0 l/m 0,3 km/h (0 Bft) N-NW 348 0 min 0,000 mm 0,0 UV-I 69 W/m 4,4 C 5,3 C 1,6 km/h (1 Bft) 95,31 %
27.04.2017 17:46 5,3 C 10,0 C 94 % 1013,0 hPa 0,0 l/m 0,5 km/h (0 Bft) N 351 0 min 0,000 mm 0,0 UV-I 58 W/m 4,4 C 5,3 C 3,2 km/h (1 Bft) 95,74 %
27.04.2017 17:48 5,3 C 10,0 C 94 % 1012,9 hPa 0,0 l/m 0,4 km/h (0 Bft) N 351 0 min 0,000 mm 0,0 UV-I 54 W/m 4,4 C 5,3 C 1,6 km/h (1 Bft) 91,49 %
27.04.2017 17:50 5,3 C 10,0 C 94 % 1012,9 hPa 0,0 l/m 0,5 km/h (0 Bft) N 351 0 min 0,000 mm 0,0 UV-I 53 W/m 4,4 C 5,3 C 1,6 km/h (1 Bft) 93,62 %
27.04.2017 17:52 5,3 C 10,0 C 94 % 1012,8 hPa 0,0 l/m 0,6 km/h (0 Bft) N 351 0 min 0,000 mm 0,0 UV-I 51 W/m 4,4 C 5,3 C 3,2 km/h (1 Bft) 97,44 %
27.04.2017 17:54 5,3 C 10,0 C 94 % 1012,8 hPa 0,0 l/m 0,8 km/h (0 Bft) N 351 0 min 0,000 mm 0,0 UV-I 42 W/m 4,4 C 5,3 C 3,2 km/h (1 Bft) 95,74 %
27.04.2017 17:56 5,3 C 10,0 C 94 % 1012,8 hPa 0,0 l/m 0,1 km/h (0 Bft) N 351 0 min 0,000 mm 0,0 UV-I 35 W/m 4,4 C 5,3 C 1,6 km/h (1 Bft) 90,00 %
27.04.2017 17:58 5,2 C 10,0 C 94 % 1012,9 hPa 0,0 l/m 0,9 km/h (0 Bft) N 351 0 min 0,000 mm 0,0 UV-I 31 W/m 4,3 C 5,2 C 3,2 km/h (1 Bft) 94,00 %
27.04.2017 18:00 5,2 C 10,0 C 94 % 1012,9 hPa 0,0 l/m 0,1 km/h (0 Bft) N-NW 348 0 min 0,000 mm 0,0 UV-I 28 W/m 4,3 C 5,2 C 1,6 km/h (1 Bft) 97,37 %
27.04.2017 18:02 5,2 C 10,0 C 94 % 1012,9 hPa 0,0 l/m 0,0 km/h (0 Bft) N-NW 348 0 min 0,025 mm 0,0 UV-I 30 W/m 4,3 C 5,2 C 0,0 km/h (0 Bft) 92,59 %
27.04.2017 18:04 5,1 C 10,0 C 94 % 1012,9 hPa 0,0 l/m 0,0 km/h (0 Bft) N-NW 348 0 min 0,000 mm 0,0 UV-I 27 W/m 4,2 C 5,1 C 1,6 km/h (1 Bft) 87,23 %
27.04.2017 18:06 5,1 C 10,0 C 95 % 1012,9 hPa 0,0 l/m 0,6 km/h (0 Bft) N-NW 348 0 min 0,000 mm 0,0 UV-I 25 W/m 4,4 C 5,1 C 3,2 km/h (1 Bft) 98,00 %
27.04.2017 18:08 5,1 C 10,0 C 95 % 1012,9 hPa 0,0 l/m 2,2 km/h (1 Bft) N-NW 348 0 min 0,000 mm 0,0 UV-I 25 W/m 4,4 C 5,1 C 3,2 km/h (1 Bft) 93,62 %
27.04.2017 18:10 5,1 C 10,0 C 95 % 1012,9 hPa 0,0 l/m 0,2 km/h (0 Bft) N-NW 348 0 min 0,000 mm 0,0 UV-I 25 W/m 4,4 C 5,1 C 3,2 km/h (1 Bft) 95,74 %
27.04.2017 18:12 5,1 C 10,0 C 95 % 1012,8 hPa 0,0 l/m 0,0 km/h (0 Bft) N-NW 348 0 min 0,000 mm 0,0 UV-I 24 W/m 4,4 C 5,1 C 0,0 km/h (0 Bft) 97,87 %
27.04.2017 18:14 5,1 C 10,0 C 95 % 1012,8 hPa 0,0 l/m 0,0 km/h (0 Bft) N-NW 348 0 min 0,000 mm 0,0 UV-I 22 W/m 4,4 C 5,1 C 0,0 km/h (0 Bft) 93,62 %
27.04.2017 18:16 5,1 C 10,0 C 95 % 1012,8 hPa 0,0 l/m 0,0 km/h (0 Bft) N-NW 348 0 min 0,000 mm 0,0 UV-I 20 W/m 4,4 C 5,1 C 0,0 km/h (0 Bft) 95,74 %
27.04.2017 18:18 5,1 C 10,0 C 95 % 1012,8 hPa 0,0 l/m 0,0 km/h (0 Bft) N-NW 348 0 min 0,000 mm 0,0 UV-I 17 W/m 4,4 C 5,1 C 0,0 km/h (0 Bft) 97,87 %
27.04.2017 18:20 5,1 C 10,0 C 95 % 1012,8 hPa 0,0 l/m 0,0 km/h (0 Bft) N-NW 348 0 min 0,000 mm 0,0 UV-I 16 W/m 4,4 C 5,1 C 0,0 km/h (0 Bft) 95,74 %
27.04.2017 18:22 5,1 C 10,0 C 95 % 1012,8 hPa 0,0 l/m 0,9 km/h (0 Bft) N-NW 348 0 min 0,000 mm 0,0 UV-I 15 W/m 4,4 C 5,1 C 3,2 km/h (1 Bft) 97,14 %
27.04.2017 18:24 5,1 C 10,0 C 95 % 1012,8 hPa 0,2 l/m 1,1 km/h (1 Bft) N-NW 348 0 min 0,000 mm 0,0 UV-I 14 W/m 4,4 C 5,1 C 3,2 km/h (1 Bft) 98,00 %
27.04.2017 18:26 5,0 C 10,0 C 95 % 1012,7 hPa 0,0 l/m 1,7 km/h (1 Bft) N-NW 348 0 min 0,000 mm 0,0 UV-I 13 W/m 4,3 C 5,0 C 4,8 km/h (1 Bft) 100,00 %
27.04.2017 18:28 5,0 C 10,0 C 95 % 1012,7 hPa 0,0 l/m 1,5 km/h (1 Bft) N-NW 348 0 min 0,000 mm 0,0 UV-I 12 W/m 4,3 C 5,0 C 3,2 km/h (1 Bft) 95,74 %
27.04.2017 18:30 5,1 C 10,0 C 95 % 1012,7 hPa 0,0 l/m 0,4 km/h (0 Bft) N-NW 348 0 min 0,000 mm 0,0 UV-I 12 W/m 4,4 C 5,1 C 3,2 km/h (1 Bft) 100,00 %
27.04.2017 18:32 5,1 C 10,0 C 95 % 1012,7 hPa 0,0 l/m 1,3 km/h (1 Bft) N 5 0 min 0,000 mm 0,0 UV-I 12 W/m 4,4 C 5,1 C 4,8 km/h (1 Bft) 93,62 %
27.04.2017 18:34 5,0 C 10,0 C 94 % 1012,7 hPa 0,0 l/m 4,4 km/h (1 Bft) N-NO 22 0 min 0,000 mm 0,0 UV-I 11 W/m 4,1 C 5,0 C 9,7 km/h (2 Bft) 93,75 %
27.04.2017 18:36 5,0 C 10,0 C 95 % 1012,7 hPa 0,0 l/m 1,6 km/h (1 Bft) N-NO 19 0 min 0,000 mm 0,0 UV-I 11 W/m 4,3 C 5,0 C 4,8 km/h (1 Bft) 100,00 %
27.04.2017 18:38 5,0 C 10,0 C 95 % 1012,7 hPa 0,0 l/m 3,3 km/h (1 Bft) N-NO 26 0 min 0,000 mm 0,0 UV-I 9 W/m 4,3 C 5,0 C 8,0 km/h (2 Bft) 97,87 %
27.04.2017 18:40 5,0 C 10,0 C 95 % 1012,7 hPa 0,0 l/m 1,5 km/h (1 Bft) N-NO 26 0 min 0,000 mm 0,0 UV-I 9 W/m 4,3 C 5,0 C 3,2 km/h (1 Bft) 95,74 %
27.04.2017 18:42 5,0 C 10,0 C 95 % 1012,7 hPa 0,0 l/m 2,1 km/h (1 Bft) N-NO 26 0 min 0,000 mm 0,0 UV-I 9 W/m 4,3 C 5,0 C 4,8 km/h (1 Bft) 98,00 %
27.04.2017 18:44 5,0 C 10,0 C 95 % 1012,7 hPa 0,0 l/m 1,6 km/h (1 Bft) N-NO 26 0 min 0,000 mm 0,0 UV-I 9 W/m 4,3 C 5,0 C 4,8 km/h (1 Bft) 95,74 %
27.04.2017 18:46 5,0 C 10,0 C 95 % 1012,8 hPa 0,0 l/m 0,1 km/h (0 Bft) N-NO 26 0 min 0,000 mm 0,0 UV-I 10 W/m 4,3 C 5,0 C 1,6 km/h (1 Bft) 100,00 %
27.04.2017 18:48 4,9 C 10,0 C 95 % 1012,8 hPa 0,0 l/m 0,2 km/h (0 Bft) N-NO 26 0 min 0,000 mm 0,0 UV-I 11 W/m 4,2 C 4,9 C 1,6 km/h (1 Bft) 97,96 %
27.04.2017 18:50 4,9 C 10,0 C 95 % 1012,9 hPa 0,0 l/m 0,0 km/h (0 Bft) N-NO 26 0 min 0,000 mm 0,0 UV-I 9 W/m 4,2 C 4,9 C 0,0 km/h (0 Bft) 97,87 %
27.04.2017 18:52 4,9 C 10,0 C 95 % 1012,9 hPa 0,0 l/m 0,0 km/h (0 Bft) N-NO 26 0 min 0,000 mm 0,0 UV-I 9 W/m 4,2 C 4,9 C 0,0 km/h (0 Bft) 97,87 %
27.04.2017 18:54 5,0 C 10,0 C 95 % 1012,9 hPa 0,0 l/m 0,1 km/h (0 Bft) N-NO 26 0 min 0,000 mm 0,0 UV-I 9 W/m 4,3 C 5,0 C 1,6 km/h (1 Bft) 91,49 %
27.04.2017 18:56 5,0 C 10,0 C 95 % 1013,0 hPa 0,0 l/m 0,0 km/h (0 Bft) N-NO 26 0 min 0,000 mm 0,0 UV-I 9 W/m 4,3 C 5,0 C 0,0 km/h (0 Bft) 97,87 %
27.04.2017 18:58 5,0 C 10,0 C 95 % 1012,9 hPa 0,0 l/m 0,0 km/h (0 Bft) N-NO 26 0 min 0,000 mm 0,0 UV-I 9 W/m 4,3 C 5,0 C 1,6 km/h (1 Bft) 98,11 %
27.04.2017 19:00 5,0 C 10,0 C 95 % 1012,9 hPa 0,0 l/m 2,0 km/h (1 Bft) N-NO 26 0 min 0,000 mm 0,0 UV-I 9 W/m 4,3 C 5,0 C 6,4 km/h (2 Bft) 95,12 %
27.04.2017 19:02 5,0 C 10,0 C 95 % 1012,9 hPa 0,0 l/m 1,9 km/h (1 Bft) N-NO 26 0 min 0,000 mm 0,0 UV-I 9 W/m 4,3 C 5,0 C 4,8 km/h (1 Bft) 96,00 %
27.04.2017 19:04 5,0 C 10,0 C 95 % 1012,9 hPa 0,0 l/m 2,2 km/h (1 Bft) N-NO 26 0 min 0,000 mm 0,0 UV-I 7 W/m 4,3 C 5,0 C 4,8 km/h (1 Bft) 97,73 %
27.04.2017 19:06 5,0 C 10,0 C 95 % 1012,8 hPa 0,2 l/m 4,0 km/h (1 Bft) N-NO 29 0 min 0,000 mm 0,0 UV-I 7 W/m 4,3 C 5,0 C 6,4 km/h (2 Bft) 98,11 %
27.04.2017 19:08 5,0 C 10,0 C 95 % 1012,7 hPa 0,0 l/m 3,6 km/h (1 Bft) N-NO 22 0 min 0,000 mm 0,0 UV-I 7 W/m 4,3 C 5,0 C 6,4 km/h (2 Bft) 100,00 %
27.04.2017 19:10 5,0 C 10,0 C 95 % 1012,7 hPa 0,0 l/m 3,9 km/h (1 Bft) N-NO 22 0 min 0,000 mm 0,0 UV-I 7 W/m 4,3 C 5,0 C 6,4 km/h (2 Bft) 97,87 %
27.04.2017 19:12 5,0 C 10,0 C 95 % 1012,6 hPa 0,0 l/m 1,0 km/h (0 Bft) N-NO 22 0 min 0,000 mm 0,0 UV-I 8 W/m 4,3 C 5,0 C 4,8 km/h (1 Bft) 97,87 %
27.04.2017 19:14 5,0 C 10,0 C 95 % 1012,7 hPa 0,0 l/m 0,0 km/h (0 Bft) N-NO 22 0 min 0,000 mm 0,0 UV-I 9 W/m 4,3 C 5,0 C 1,6 km/h (1 Bft) 97,87 %
27.04.2017 19:16 5,0 C 10,0 C 95 % 1012,7 hPa 0,0 l/m 0,2 km/h (0 Bft) N-NO 22 0 min 0,000 mm 0,0 UV-I 9 W/m 4,3 C 5,0 C 1,6 km/h (1 Bft) 100,00 %
27.04.2017 19:18 5,0 C 10,0 C 95 % 1012,7 hPa 0,2 l/m 2,1 km/h (1 Bft) N-NO 22 0 min 0,000 mm 0,0 UV-I 11 W/m 4,3 C 5,0 C 3,2 km/h (1 Bft) 97,87 %
27.04.2017 19:20 4,9 C 10,0 C 95 % 1012,6 hPa 0,0 l/m 1,2 km/h (1 Bft) N-NO 22 0 min 0,000 mm 0,0 UV-I 11 W/m 4,2 C 4,9 C 3,2 km/h (1 Bft) 97,87 %
27.04.2017 19:22 4,9 C 10,0 C 95 % 1012,6 hPa 0,0 l/m 0,5 km/h (0 Bft) N-NO 22 0 min 0,000 mm 0,0 UV-I 11 W/m 4,2 C 4,9 C 3,2 km/h (1 Bft) 100,00 %
27.04.2017 19:24 4,9 C 10,0 C 95 % 1012,7 hPa 0,0 l/m 1,1 km/h (1 Bft) N-NO 22 0 min 0,000 mm 0,0 UV-I 11 W/m 4,2 C 4,9 C 3,2 km/h (1 Bft) 97,87 %
27.04.2017 19:26 4,9 C 10,0 C 95 % 1012,7 hPa 0,2 l/m 3,8 km/h (1 Bft) N-NO 23 0 min 0,000 mm 0,0 UV-I 11 W/m 4,2 C 4,9 C 6,4 km/h (2 Bft) 100,00 %
27.04.2017 19:28 4,9 C 10,0 C 95 % 1012,7 hPa 0,0 l/m 2,7 km/h (1 Bft) N-NO 27 0 min 0,000 mm 0,0 UV-I 11 W/m 4,2 C 4,9 C 8,0 km/h (2 Bft) 100,00 %
27.04.2017 19:30 4,8 C 10,0 C 95 % 1012,7 hPa 0,0 l/m 5,3 km/h (1 Bft) N-NO 28 0 min 0,000 mm 0,0 UV-I 10 W/m 4,1 C 4,8 C 6,4 km/h (2 Bft) 95,74 %
27.04.2017 19:32 4,8 C 10,0 C 95 % 1012,7 hPa 0,0 l/m 0,9 km/h (0 Bft) N-NO 28 0 min 0,000 mm 0,0 UV-I 9 W/m 4,1 C 4,8 C 4,8 km/h (1 Bft) 97,37 %
27.04.2017 19:34 4,9 C 10,0 C 95 % 1012,7 hPa 0,0 l/m 2,0 km/h (1 Bft) N-NO 28 0 min 0,000 mm 0,0 UV-I 9 W/m 4,2 C 4,9 C 4,8 km/h (1 Bft) 96,00 %
27.04.2017 19:36 4,8 C 10,0 C 95 % 1012,8 hPa 0,2 l/m 3,7 km/h (1 Bft) N-NO 27 0 min 0,000 mm 0,0 UV-I 9 W/m 4,1 C 4,8 C 6,4 km/h (2 Bft) 96,00 %
27.04.2017 19:38 4,8 C 10,0 C 95 % 1012,7 hPa 0,0 l/m 5,3 km/h (1 Bft) N-NO 23 0 min 0,000 mm 0,0 UV-I 9 W/m 4,1 C 4,8 C 8,0 km/h (2 Bft) 97,56 %
27.04.2017 19:40 4,8 C 10,0 C 95 % 1012,7 hPa 0,0 l/m 5,3 km/h (1 Bft) N-NO 30 0 min 0,000 mm 0,0 UV-I 8 W/m 4,1 C 4,8 C 8,0 km/h (2 Bft) 98,00 %
27.04.2017 19:42 4,8 C 10,0 C 95 % 1012,7 hPa 0,0 l/m 6,2 km/h (2 Bft) NO 40 0 min 0,000 mm 0,0 UV-I 7 W/m 4,1 C 4,8 C 8,0 km/h (2 Bft) 98,00 %
27.04.2017 19:44 4,8 C 10,0 C 95 % 1012,6 hPa 0,0 l/m 4,2 km/h (1 Bft) NO 42 0 min 0,000 mm 0,0 UV-I 7 W/m 4,1 C 4,8 C 6,4 km/h (2 Bft) 96,00 %
27.04.2017 19:46 4,8 C 10,0 C 95 % 1012,6 hPa 0,0 l/m 4,6 km/h (1 Bft) N-NO 30 0 min 0,000 mm 0,0 UV-I 7 W/m 4,1 C 4,8 C 9,7 km/h (2 Bft) 86,36 %
27.04.2017 19:48 4,8 C 9,4 C 95 % 1012,6 hPa 0,0 l/m 5,9 km/h (2 Bft) NO 53 0 min 0,000 mm 0,0 UV-I 7 W/m 4,1 C 4,8 C 8,0 km/h (2 Bft) 94,00 %
27.04.2017 19:50 4,7 C 9,4 C 95 % 1012,7 hPa 0,2 l/m 5,0 km/h (1 Bft) NO 34 0 min 0,000 mm 0,0 UV-I 7 W/m 4,0 C 4,7 C 8,0 km/h (2 Bft) 100,00 %
27.04.2017 19:52 4,7 C 9,4 C 95 % 1012,7 hPa 0,0 l/m 4,2 km/h (1 Bft) NO 47 0 min 0,000 mm 0,0 UV-I 6 W/m 4,0 C 4,7 C 9,7 km/h (2 Bft) 94,34 %
27.04.2017 19:54 4,7 C 9,4 C 95 % 1012,7 hPa 0,0 l/m 5,3 km/h (1 Bft) NO 44 0 min 0,000 mm 0,0 UV-I 5 W/m 4,0 C 4,7 C 8,0 km/h (2 Bft) 98,00 %
27.04.2017 19:56 4,7 C 9,4 C 95 % 1012,9 hPa 0,0 l/m 4,2 km/h (1 Bft) NO 43 0 min 0,000 mm 0,0 UV-I 5 W/m 4,0 C 4,7 C 6,4 km/h (2 Bft) 97,87 %
27.04.2017 19:58 4,7 C 9,4 C 95 % 1012,9 hPa 0,0 l/m 3,0 km/h (1 Bft) NO 43 0 min 0,000 mm 0,0 UV-I 5 W/m 4,0 C 4,7 C 6,4 km/h (2 Bft) 92,11 %
27.04.2017 20:00 4,7 C 9,4 C 95 % 1012,9 hPa 0,0 l/m 4,4 km/h (1 Bft) NO 55 0 min 0,000 mm 0,0 UV-I 1 W/m 4,0 C 4,7 C 8,0 km/h (2 Bft) 96,00 %
27.04.2017 20:02 4,7 C 9,4 C 94 % 1012,9 hPa 0,0 l/m 6,0 km/h (2 Bft) NO 55 0 min 0,000 mm 0,0 UV-I 0 W/m 3,8 C 4,7 C 8,0 km/h (2 Bft) 94,00 %
27.04.2017 20:04 4,7 C 9,4 C 94 % 1012,8 hPa 0,0 l/m 5,1 km/h (1 Bft) NO 44 0 min 0,000 mm 0,0 UV-I 0 W/m 3,8 C 4,7 C 8,0 km/h (2 Bft) 95,74 %
27.04.2017 20:06 4,7 C 9,4 C 94 % 1012,8 hPa 0,0 l/m 5,5 km/h (1 Bft) NO 50 0 min 0,000 mm 0,0 UV-I 0 W/m 3,8 C 4,7 C 8,0 km/h (2 Bft) 100,00 %
27.04.2017 20:08 4,7 C 9,4 C 94 % 1012,7 hPa 0,0 l/m 5,4 km/h (1 Bft) NO 42 0 min 0,000 mm 0,0 UV-I 0 W/m 3,8 C 4,7 C 8,0 km/h (2 Bft) 100,00 %
27.04.2017 20:10 4,7 C 9,4 C 94 % 1012,8 hPa 0,2 l/m 4,3 km/h (1 Bft) NO 40 0 min 0,000 mm 0,0 UV-I 0 W/m 3,8 C 4,7 C 8,0 km/h (2 Bft) 90,91 %
27.04.2017 20:12 4,7 C 9,4 C 94 % 1012,8 hPa 0,0 l/m 4,7 km/h (1 Bft) NO 40 0 min 0,000 mm 0,0 UV-I 0 W/m 3,8 C 4,7 C 8,0 km/h (2 Bft) 98,00 %
27.04.2017 20:14 4,7 C 9,4 C 94 % 1012,9 hPa 0,0 l/m 4,0 km/h (1 Bft) NO 40 0 min 0,000 mm 0,0 UV-I 0 W/m 3,8 C 4,7 C 6,4 km/h (2 Bft) 96,00 %
27.04.2017 20:16 4,6 C 9,4 C 94 % 1012,9 hPa 0,0 l/m 4,0 km/h (1 Bft) NO 40 0 min 0,000 mm 0,0 UV-I 0 W/m 3,7 C 4,6 C 6,4 km/h (2 Bft) 93,62 %
27.04.2017 20:18 4,6 C 9,4 C 94 % 1012,9 hPa 0,0 l/m 2,4 km/h (1 Bft) NO 40 0 min 0,000 mm 0,0 UV-I 0 W/m 3,7 C 4,6 C 4,8 km/h (1 Bft) 92,11 %
27.04.2017 20:20 4,7 C 9,4 C 94 % 1012,9 hPa 0,2 l/m 3,9 km/h (1 Bft) NO 40 0 min 0,000 mm 0,0 UV-I 0 W/m 3,8 C 4,7 C 6,4 km/h (2 Bft) 98,00 %
27.04.2017 20:22 4,6 C 9,4 C 95 % 1012,9 hPa 0,0 l/m 3,8 km/h (1 Bft) NO 40 0 min 0,000 mm 0,0 UV-I 0 W/m 3,9 C 4,6 C 4,8 km/h (1 Bft) 96,23 %
27.04.2017 20:24 4,6 C 9,4 C 95 % 1012,9 hPa 0,0 l/m 2,2 km/h (1 Bft) NO 40 0 min 0,000 mm 0,0 UV-I 0 W/m 3,9 C 4,6 C 6,4 km/h (2 Bft) 97,87 %
27.04.2017 20:26 4,6 C 9,4 C 95 % 1012,9 hPa 0,0 l/m 3,5 km/h (1 Bft) NO 40 0 min 0,000 mm 0,0 UV-I 0 W/m 3,9 C 4,6 C 6,4 km/h (2 Bft) 89,36 %
27.04.2017 20:28 4,6 C 9,4 C 95 % 1012,8 hPa 0,0 l/m 3,8 km/h (1 Bft) NO 40 0 min 0,000 mm 0,0 UV-I 0 W/m 3,9 C 4,6 C 6,4 km/h (2 Bft) 100,00 %
27.04.2017 20:30 4,6 C 9,4 C 95 % 1012,9 hPa 0,0 l/m 1,2 km/h (1 Bft) NO 40 0 min 0,000 mm 0,0 UV-I 0 W/m 3,9 C 4,6 C 3,2 km/h (1 Bft) 92,00 %
27.04.2017 20:32 4,6 C 9,4 C 95 % 1012,9 hPa 0,0 l/m 2,1 km/h (1 Bft) NO 40 0 min 0,000 mm 0,0 UV-I 0 W/m 3,9 C 4,6 C 3,2 km/h (1 Bft) 96,23 %
27.04.2017 20:34 4,6 C 9,4 C 95 % 1012,8 hPa 0,2 l/m 1,8 km/h (1 Bft) NO 40 0 min 0,000 mm 0,0 UV-I 0 W/m 3,9 C 4,6 C 4,8 km/h (1 Bft) 96,00 %
27.04.2017 20:36 4,6 C 9,4 C 95 % 1012,8 hPa 0,0 l/m 1,1 km/h (1 Bft) NO 40 0 min 0,000 mm 0,0 UV-I 0 W/m 3,9 C 4,6 C 4,8 km/h (1 Bft) 94,74 %
27.04.2017 20:38 4,6 C 9,4 C 95 % 1012,9 hPa 0,0 l/m 0,0 km/h (0 Bft) NO 40 0 min 0,000 mm 0,0 UV-I 0 W/m 3,9 C 4,6 C 0,0 km/h (0 Bft) 92,45 %
27.04.2017 20:40 4,6 C 9,4 C 95 % 1012,9 hPa 0,0 l/m 0,5 km/h (0 Bft) NO 39 0 min 0,000 mm 0,0 UV-I 0 W/m 3,9 C 4,6 C 3,2 km/h (1 Bft) 93,62 %
27.04.2017 20:42 4,6 C 9,4 C 95 % 1012,9 hPa 0,0 l/m 0,2 km/h (0 Bft) NO 40 0 min 0,000 mm 0,0 UV-I 0 W/m 3,9 C 4,6 C 1,6 km/h (1 Bft) 97,56 %
27.04.2017 20:44 4,6 C 9,4 C 95 % 1012,9 hPa 0,2 l/m 1,2 km/h (1 Bft) NO 40 0 min 0,000 mm 0,0 UV-I 0 W/m 3,9 C 4,6 C 3,2 km/h (1 Bft) 96,00 %
27.04.2017 20:46 4,5 C 9,4 C 95 % 1012,9 hPa 0,0 l/m 1,5 km/h (1 Bft) NO 40 0 min 0,000 mm 0,0 UV-I 0 W/m 3,8 C 4,5 C 3,2 km/h (1 Bft) 89,36 %
27.04.2017 20:48 4,5 C 9,4 C 95 % 1012,8 hPa 0,0 l/m 1,6 km/h (1 Bft) NO 40 0 min 0,000 mm 0,0 UV-I 0 W/m 3,8 C 4,5 C 4,8 km/h (1 Bft) 89,36 %
27.04.2017 20:50 4,5 C 9,4 C 95 % 1012,9 hPa 0,0 l/m 3,5 km/h (1 Bft) NO 40 0 min 0,000 mm 0,0 UV-I 0 W/m 3,8 C 4,5 C 4,8 km/h (1 Bft) 93,62 %
27.04.2017 20:52 4,5 C 9,4 C 95 % 1012,8 hPa 0,0 l/m 4,2 km/h (1 Bft) NO 40 0 min 0,000 mm 0,0 UV-I 0 W/m 3,8 C 4,5 C 6,4 km/h (2 Bft) 100,00 %
27.04.2017 20:54 4,4 C 9,4 C 95 % 1012,8 hPa 0,0 l/m 4,8 km/h (1 Bft) NO 40 0 min 0,000 mm 0,0 UV-I 0 W/m 3,7 C 4,4 C 8,0 km/h (2 Bft) 92,45 %
27.04.2017 20:56 4,4 C 9,4 C 96 % 1012,8 hPa 0,2 l/m 4,5 km/h (1 Bft) NO 38 0 min 0,000 mm 0,0 UV-I 0 W/m 3,8 C 4,4 C 8,0 km/h (2 Bft) 95,74 %
27.04.2017 20:58 4,4 C 9,4 C 96 % 1012,8 hPa 0,0 l/m 1,7 km/h (1 Bft) NO 38 0 min 0,000 mm 0,0 UV-I 0 W/m 3,8 C 4,4 C 3,2 km/h (1 Bft) 96,00 %
27.04.2017 21:00 4,4 C 9,4 C 96 % 1012,9 hPa 0,0 l/m 2,6 km/h (1 Bft) NO 40 0 min 0,000 mm 0,0 UV-I 0 W/m 3,8 C 4,4 C 4,8 km/h (1 Bft) 95,74 %
27.04.2017 21:02 4,4 C 9,4 C 96 % 1012,9 hPa 0,2 l/m 3,8 km/h (1 Bft) NO 41 0 min 0,000 mm 0,0 UV-I 0 W/m 3,8 C 4,4 C 4,8 km/h (1 Bft) 94,29 %
27.04.2017 21:04 4,4 C 9,4 C 96 % 1012,9 hPa 0,0 l/m 3,1 km/h (1 Bft) NO 41 0 min 0,000 mm 0,0 UV-I 0 W/m 3,8 C 4,4 C 4,8 km/h (1 Bft) 94,00 %
27.04.2017 21:06 4,4 C 9,4 C 96 % 1012,9 hPa 0,0 l/m 4,6 km/h (1 Bft) NO 38 0 min 0,000 mm 0,0 UV-I 0 W/m 3,8 C 4,4 C 6,4 km/h (2 Bft) 91,67 %
27.04.2017 21:08 4,4 C 9,4 C 95 % 1012,9 hPa 0,0 l/m 3,6 km/h (1 Bft) NO 38 0 min 0,000 mm 0,0 UV-I 0 W/m 3,7 C 4,4 C 4,8 km/h (1 Bft) 86,54 %
27.04.2017 21:10 4,4 C 9,4 C 95 % 1013,0 hPa 0,2 l/m 2,5 km/h (1 Bft) NO 38 0 min 0,000 mm 0,0 UV-I 0 W/m 3,7 C 4,4 C 4,8 km/h (1 Bft) 97,44 %
27.04.2017 21:12 4,4 C 9,4 C 95 % 1013,0 hPa 0,0 l/m 2,6 km/h (1 Bft) NO 38 0 min 0,000 mm 0,0 UV-I 0 W/m 3,7 C 4,4 C 4,8 km/h (1 Bft) 98,00 %
27.04.2017 21:14 4,4 C 9,4 C 95 % 1012,9 hPa 0,2 l/m 0,1 km/h (0 Bft) NO 38 0 min 0,000 mm 0,0 UV-I 0 W/m 3,7 C 4,4 C 1,6 km/h (1 Bft) 95,74 %
27.04.2017 21:16 4,4 C 9,4 C 96 % 1012,9 hPa 0,0 l/m 2,3 km/h (1 Bft) NO 38 0 min 0,000 mm 0,0 UV-I 0 W/m 3,8 C 4,4 C 6,4 km/h (2 Bft) 100,00 %
27.04.2017 21:18 4,4 C 9,4 C 96 % 1012,8 hPa 0,0 l/m 3,8 km/h (1 Bft) NO 38 0 min 0,000 mm 0,0 UV-I 0 W/m 3,8 C 4,4 C 6,4 km/h (2 Bft) 94,00 %
27.04.2017 21:20 4,4 C 9,4 C 96 % 1012,8 hPa 0,0 l/m 3,2 km/h (1 Bft) NO 38 0 min 0,000 mm 0,0 UV-I 0 W/m 3,8 C 4,4 C 4,8 km/h (1 Bft) 100,00 %
27.04.2017 21:22 4,4 C 9,4 C 96 % 1012,8 hPa 0,0 l/m 2,4 km/h (1 Bft) NO 38 0 min 0,000 mm 0,0 UV-I 0 W/m 3,8 C 4,4 C 4,8 km/h (1 Bft) 94,29 %
27.04.2017 21:24 4,4 C 9,4 C 95 % 1012,8 hPa 0,2 l/m 2,5 km/h (1 Bft) NO 38 0 min 0,000 mm 0,0 UV-I 0 W/m 3,7 C 4,4 C 3,2 km/h (1 Bft) 92,00 %
27.04.2017 21:26 4,4 C 9,4 C 95 % 1012,8 hPa 0,0 l/m 0,4 km/h (0 Bft) NO 38 0 min 0,000 mm 0,0 UV-I 0 W/m 3,7 C 4,4 C 3,2 km/h (1 Bft) 98,11 %
27.04.2017 21:28 4,4 C 9,4 C 96 % 1012,8 hPa 0,0 l/m 2,8 km/h (1 Bft) NO 38 0 min 0,000 mm 0,0 UV-I 0 W/m 3,8 C 4,4 C 6,4 km/h (2 Bft) 97,87 %
27.04.2017 21:30 4,4 C 9,4 C 96 % 1012,8 hPa 0,2 l/m 3,0 km/h (1 Bft) NO 38 0 min 0,000 mm 0,0 UV-I 0 W/m 3,8 C 4,4 C 4,8 km/h (1 Bft) 100,00 %
27.04.2017 21:32 4,4 C 9,4 C 96 % 1012,8 hPa 0,0 l/m 1,6 km/h (1 Bft) NO 38 0 min 0,000 mm 0,0 UV-I 0 W/m 3,8 C 4,4 C 3,2 km/h (1 Bft) 96,23 %
27.04.2017 21:34 4,4 C 9,4 C 96 % 1012,8 hPa 0,0 l/m 0,5 km/h (0 Bft) NO 38 0 min 0,000 mm 0,0 UV-I 0 W/m 3,8 C 4,4 C 3,2 km/h (1 Bft) 94,00 %
27.04.2017 21:36 4,4 C 9,4 C 96 % 1012,8 hPa 0,0 l/m 0,7 km/h (0 Bft) NO 38 0 min 0,000 mm 0,0 UV-I 0 W/m 3,8 C 4,4 C 3,2 km/h (1 Bft) 94,74 %
27.04.2017 21:38 4,4 C 9,4 C 96 % 1012,8 hPa 0,2 l/m 0,0 km/h (0 Bft) NO 38 0 min 0,000 mm 0,0 UV-I 0 W/m 3,8 C 4,4 C 0,0 km/h (0 Bft) 98,00 %
27.04.2017 21:40 4,4 C 9,4 C 96 % 1012,8 hPa 0,0 l/m 0,0 km/h (0 Bft) NO 38 0 min 0,000 mm 0,0 UV-I 0 W/m 3,8 C 4,4 C 1,6 km/h (1 Bft) 94,00 %
27.04.2017 21:42 4,4 C 9,4 C 96 % 1012,7 hPa 0,2 l/m 0,3 km/h (0 Bft) NO 38 0 min 0,000 mm 0,0 UV-I 0 W/m 3,8 C 4,4 C 1,6 km/h (1 Bft) 97,22 %
27.04.2017 21:44 4,4 C 9,4 C 96 % 1012,7 hPa 0,0 l/m 0,6 km/h (0 Bft) NO 38 0 min 0,000 mm 0,0 UV-I 0 W/m 3,8 C 4,4 C 3,2 km/h (1 Bft) 97,37 %
27.04.2017 21:46 4,4 C 9,4 C 96 % 1012,8 hPa 0,0 l/m 0,1 km/h (0 Bft) NO 38 0 min 0,000 mm 0,0 UV-I 0 W/m 3,8 C 4,4 C 1,6 km/h (1 Bft) 92,19 %
27.04.2017 21:48 4,4 C 9,4 C 96 % 1012,8 hPa 0,0 l/m 0,3 km/h (0 Bft) NO 38 0 min 0,000 mm 0,0 UV-I 0 W/m 3,8 C 4,4 C 3,2 km/h (1 Bft) 92,00 %
27.04.2017 21:50 4,4 C 9,4 C 96 % 1012,8 hPa 0,2 l/m 0,0 km/h (0 Bft) NO 38 0 min 0,000 mm 0,0 UV-I 0 W/m 3,8 C 4,4 C 1,6 km/h (1 Bft) 97,44 %
27.04.2017 21:52 4,3 C 9,4 C 96 % 1012,7 hPa 0,2 l/m 0,1 km/h (0 Bft) NO 38 0 min 0,000 mm 0,0 UV-I 0 W/m 3,7 C 4,3 C 1,6 km/h (1 Bft) 94,64 %
27.04.2017 21:54 4,3 C 9,4 C 96 % 1012,7 hPa 0,0 l/m 0,1 km/h (0 Bft) NO 38 0 min 0,000 mm 0,0 UV-I 0 W/m 3,7 C 4,3 C 1,6 km/h (1 Bft) 95,74 %
27.04.2017 21:56 4,3 C 9,4 C 96 % 1012,7 hPa 0,0 l/m 0,0 km/h (0 Bft) NO 38 0 min 0,000 mm 0,0 UV-I 0 W/m 3,7 C 4,3 C 1,6 km/h (1 Bft) 95,74 %
27.04.2017 21:58 4,3 C 9,4 C 96 % 1012,7 hPa 0,0 l/m 0,0 km/h (0 Bft) NO 38 0 min 0,000 mm 0,0 UV-I 0 W/m 3,7 C 4,3 C 0,0 km/h (0 Bft) 97,87 %
27.04.2017 22:00 4,3 C 9,4 C 96 % 1012,7 hPa 0,0 l/m 0,0 km/h (0 Bft) NO 38 0 min 0,000 mm 0,0 UV-I 0 W/m 3,7 C 4,3 C 0,0 km/h (0 Bft) 95,74 %
27.04.2017 22:02 4,3 C 9,4 C 96 % 1012,6 hPa 0,2 l/m 0,1 km/h (0 Bft) NO 38 0 min 0,000 mm 0,0 UV-I 0 W/m 3,7 C 4,3 C 1,6 km/h (1 Bft) 97,87 %
27.04.2017 22:04 4,4 C 9,4 C 96 % 1012,5 hPa 0,0 l/m 0,0 km/h (0 Bft) NO 38 0 min 0,000 mm 0,0 UV-I 0 W/m 3,8 C 4,4 C 1,6 km/h (1 Bft) 97,37 %
27.04.2017 22:06 4,4 C 9,4 C 96 % 1012,5 hPa 0,0 l/m 0,3 km/h (0 Bft) NO 38 0 min 0,000 mm 0,0 UV-I 0 W/m 3,8 C 4,4 C 1,6 km/h (1 Bft) 98,00 %
27.04.2017 22:08 4,4 C 9,4 C 96 % 1012,5 hPa 0,0 l/m 2,2 km/h (1 Bft) NO 38 0 min 0,000 mm 0,0 UV-I 0 W/m 3,8 C 4,4 C 6,4 km/h (2 Bft) 97,56 %
27.04.2017 22:10 4,3 C 9,4 C 96 % 1012,6 hPa 0,0 l/m 0,1 km/h (0 Bft) NO 38 0 min 0,000 mm 0,0 UV-I 0 W/m 3,7 C 4,3 C 1,6 km/h (1 Bft) 98,00 %
27.04.2017 22:13 4,3 C 9,4 C 96 % 1012,6 hPa 0,2 l/m 2,5 km/h (1 Bft) NO 37 0 min 0,000 mm 0,0 UV-I 0 W/m 3,7 C 4,3 C 8,0 km/h (2 Bft) 98,53 %
27.04.2017 22:14 4,3 C 9,4 C 96 % 1012,6 hPa 0,0 l/m 2,9 km/h (1 Bft) NO 36 0 min 0,000 mm 0,0 UV-I 0 W/m 3,7 C 4,3 C 6,4 km/h (2 Bft) 100,00 %
27.04.2017 22:16 4,3 C 9,4 C 96 % 1012,5 hPa 0,0 l/m 2,8 km/h (1 Bft) N-NO 17 0 min 0,000 mm 0,0 UV-I 0 W/m 3,7 C 4,3 C 6,4 km/h (2 Bft) 95,74 %
27.04.2017 22:18 4,2 C 9,4 C 96 % 1012,4 hPa 0,0 l/m 4,9 km/h (1 Bft) N-NO 32 0 min 0,000 mm 0,0 UV-I 0 W/m 3,6 C 4,2 C 12,9 km/h (3 Bft) 100,00 %
27.04.2017 22:20 4,2 C 9,4 C 96 % 1012,4 hPa 0,2 l/m 6,0 km/h (2 Bft) N-NO 30 0 min 0,000 mm 0,0 UV-I 0 W/m 3,6 C 4,2 C 12,9 km/h (3 Bft) 98,21 %
27.04.2017 22:22 4,1 C 9,4 C 96 % 1012,4 hPa 0,0 l/m 4,7 km/h (1 Bft) N-NO 19 0 min 0,000 mm 0,0 UV-I 0 W/m 3,5 C 4,1 C 12,9 km/h (3 Bft) 100,00 %
27.04.2017 22:24 4,1 C 9,4 C 96 % 1012,4 hPa 0,0 l/m 4,2 km/h (1 Bft) N-NO 17 0 min 0,000 mm 0,0 UV-I 0 W/m 3,5 C 4,1 C 11,3 km/h (2 Bft) 100,00 %
27.04.2017 22:26 4,1 C 9,4 C 96 % 1012,3 hPa 0,0 l/m 3,3 km/h (1 Bft) N-NO 27 0 min 0,000 mm 0,0 UV-I 0 W/m 3,5 C 4,1 C 9,7 km/h (2 Bft) 97,87 %
27.04.2017 22:28 4,1 C 9,4 C 96 % 1012,2 hPa 0,2 l/m 3,6 km/h (1 Bft) N 5 0 min 0,000 mm 0,0 UV-I 0 W/m 3,5 C 4,1 C 11,3 km/h (2 Bft) 100,00 %
27.04.2017 22:30 4,0 C 9,4 C 96 % 1012,2 hPa 0,0 l/m 3,8 km/h (1 Bft) N 355 0 min 0,000 mm 0,0 UV-I 0 W/m 3,4 C 4,0 C 8,0 km/h (2 Bft) 100,00 %
27.04.2017 22:32 3,9 C 9,4 C 96 % 1012,2 hPa 0,0 l/m 3,0 km/h (1 Bft) N 11 0 min 0,000 mm 0,0 UV-I 0 W/m 3,3 C 3,9 C 6,4 km/h (2 Bft) 100,00 %
27.04.2017 22:34 3,9 C 9,4 C 96 % 1012,2 hPa 0,0 l/m 1,6 km/h (1 Bft) N 11 0 min 0,000 mm 0,0 UV-I 0 W/m 3,3 C 3,9 C 6,4 km/h (2 Bft) 100,00 %
27.04.2017 22:36 3,9 C 9,4 C 96 % 1012,2 hPa 0,0 l/m 2,2 km/h (1 Bft) N-NO 13 0 min 0,000 mm 0,0 UV-I 0 W/m 3,3 C 3,9 C 6,4 km/h (2 Bft) 97,37 %
27.04.2017 22:38 3,9 C 9,4 C 96 % 1012,1 hPa 0,0 l/m 2,4 km/h (1 Bft) N-NO 19 0 min 0,000 mm 0,0 UV-I 0 W/m 3,3 C 3,9 C 6,4 km/h (2 Bft) 97,87 %
27.04.2017 22:40 3,9 C 9,4 C 96 % 1012,1 hPa 0,0 l/m 1,9 km/h (1 Bft) N-NO 14 0 min 0,000 mm 0,0 UV-I 0 W/m 3,3 C 3,9 C 4,8 km/h (1 Bft) 98,00 %
27.04.2017 22:42 3,9 C 9,4 C 96 % 1012,1 hPa 0,0 l/m 1,8 km/h (1 Bft) N-NW 348 0 min 0,000 mm 0,0 UV-I 0 W/m 3,3 C 3,9 C 6,4 km/h (2 Bft) 98,00 %
27.04.2017 22:44 3,9 C 9,4 C 96 % 1012,1 hPa 0,0 l/m 1,6 km/h (1 Bft) N 360 0 min 0,000 mm 0,0 UV-I 0 W/m 3,3 C 3,9 C 3,2 km/h (1 Bft) 100,00 %
27.04.2017 22:46 3,9 C 9,4 C 96 % 1012,1 hPa 0,0 l/m 2,9 km/h (1 Bft) N-NO 18 0 min 0,000 mm 0,0 UV-I 0 W/m 3,3 C 3,9 C 6,4 km/h (2 Bft) 96,00 %
27.04.2017 22:48 3,9 C 9,4 C 96 % 1012,0 hPa 0,0 l/m 1,9 km/h (1 Bft) N-NO 17 0 min 0,000 mm 0,0 UV-I 0 W/m 3,3 C 3,9 C 4,8 km/h (1 Bft) 100,00 %
27.04.2017 22:50 3,9 C 9,4 C 96 % 1012,0 hPa 0,0 l/m 1,1 km/h (1 Bft) N-NO 17 0 min 0,000 mm 0,0 UV-I 0 W/m 3,3 C 3,9 C 3,2 km/h (1 Bft) 98,00 %
27.04.2017 22:52 3,9 C 9,4 C 96 % 1012,0 hPa 0,0 l/m 0,0 km/h (0 Bft) N-NO 17 0 min 0,000 mm 0,0 UV-I 0 W/m 3,3 C 3,9 C 1,6 km/h (1 Bft) 97,14 %
27.04.2017 22:54 3,9 C 9,4 C 96 % 1012,0 hPa 0,2 l/m 0,0 km/h (0 Bft) N-NO 17 0 min 0,000 mm 0,0 UV-I 0 W/m 3,3 C 3,9 C 0,0 km/h (0 Bft) 98,00 %
27.04.2017 22:56 3,9 C 9,4 C 96 % 1012,0 hPa 0,0 l/m 0,8 km/h (0 Bft) N-NO 17 0 min 0,000 mm 0,0 UV-I 0 W/m 3,3 C 3,9 C 3,2 km/h (1 Bft) 100,00 %
27.04.2017 22:58 3,9 C 9,4 C 96 % 1011,9 hPa 0,0 l/m 0,8 km/h (0 Bft) N-NO 17 0 min 0,000 mm 0,0 UV-I 0 W/m 3,3 C 3,9 C 3,2 km/h (1 Bft) 93,62 %
27.04.2017 23:00 3,9 C 9,4 C 96 % 1011,9 hPa 0,0 l/m 0,4 km/h (0 Bft) N-NO 17 0 min 0,000 mm 0,0 UV-I 0 W/m 3,3 C 3,9 C 3,2 km/h (1 Bft) 100,00 %
27.04.2017 23:02 3,9 C 9,4 C 96 % 1011,9 hPa 0,0 l/m 1,4 km/h (1 Bft) N 10 0 min 0,000 mm 0,0 UV-I 0 W/m 3,3 C 3,9 C 4,8 km/h (1 Bft) 96,43 %
27.04.2017 23:04 3,9 C 9,4 C 96 % 1011,9 hPa 0,0 l/m 1,1 km/h (1 Bft) N 10 0 min 0,000 mm 0,0 UV-I 0 W/m 3,3 C 3,9 C 3,2 km/h (1 Bft) 100,00 %
27.04.2017 23:06 3,9 C 9,4 C 96 % 1011,8 hPa 0,0 l/m 0,5 km/h (0 Bft) N 10 0 min 0,000 mm 0,0 UV-I 0 W/m 3,3 C 3,9 C 3,2 km/h (1 Bft) 98,39 %
27.04.2017 23:08 3,8 C 9,4 C 96 % 1011,8 hPa 0,0 l/m 0,8 km/h (0 Bft) N 10 0 min 0,000 mm 0,0 UV-I 0 W/m 3,2 C 3,8 C 3,2 km/h (1 Bft) 100,00 %
27.04.2017 23:10 3,8 C 9,4 C 96 % 1011,8 hPa 0,0 l/m 0,5 km/h (0 Bft) N 10 0 min 0,000 mm 0,0 UV-I 0 W/m 3,2 C 3,8 C 1,6 km/h (1 Bft) 98,08 %
27.04.2017 23:12 3,8 C 9,4 C 96 % 1011,7 hPa 0,0 l/m 0,4 km/h (0 Bft) N 5 0 min 0,000 mm 0,0 UV-I 0 W/m 3,2 C 3,8 C 3,2 km/h (1 Bft) 97,87 %
27.04.2017 23:14 3,8 C 9,4 C 96 % 1011,6 hPa 0,0 l/m 0,2 km/h (0 Bft) N 5 0 min 0,000 mm 0,0 UV-I 0 W/m 3,2 C 3,8 C 1,6 km/h (1 Bft) 100,00 %
27.04.2017 23:16 3,8 C 9,4 C 96 % 1011,6 hPa 0,2 l/m 0,2 km/h (0 Bft) N 5 0 min 0,000 mm 0,0 UV-I 0 W/m 3,2 C 3,8 C 1,6 km/h (1 Bft) 97,73 %
27.04.2017 23:18 3,8 C 9,4 C 96 % 1011,6 hPa 0,0 l/m 0,2 km/h (0 Bft) N 5 0 min 0,000 mm 0,0 UV-I 0 W/m 3,2 C 3,8 C 1,6 km/h (1 Bft) 100,00 %
27.04.2017 23:20 3,8 C 9,4 C 96 % 1011,5 hPa 0,0 l/m 0,2 km/h (0 Bft) N 5 0 min 0,000 mm 0,0 UV-I 0 W/m 3,2 C 3,8 C 1,6 km/h (1 Bft) 98,00 %
27.04.2017 23:22 3,8 C 9,4 C 96 % 1011,5 hPa 0,0 l/m 0,7 km/h (0 Bft) N 360 0 min 0,000 mm 0,0 UV-I 0 W/m 3,2 C 3,8 C 3,2 km/h (1 Bft) 100,00 %
27.04.2017 23:24 3,8 C 9,4 C 96 % 1011,5 hPa 0,0 l/m 1,0 km/h (0 Bft) N 355 0 min 0,000 mm 0,0 UV-I 0 W/m 3,2 C 3,8 C 3,2 km/h (1 Bft) 96,23 %
27.04.2017 23:26 3,8 C 9,4 C 97 % 1011,6 hPa 0,0 l/m 1,5 km/h (1 Bft) N 355 0 min 0,000 mm 0,0 UV-I 0 W/m 3,4 C 3,8 C 4,8 km/h (1 Bft) 97,87 %
27.04.2017 23:28 3,8 C 9,4 C 97 % 1011,6 hPa 0,0 l/m 0,4 km/h (0 Bft) N 355 0 min 0,000 mm 0,0 UV-I 0 W/m 3,4 C 3,8 C 1,6 km/h (1 Bft) 100,00 %
27.04.2017 23:30 3,8 C 9,4 C 97 % 1011,5 hPa 0,0 l/m 0,2 km/h (0 Bft) N 355 0 min 0,000 mm 0,0 UV-I 0 W/m 3,4 C 3,8 C 1,6 km/h (1 Bft) 97,96 %
27.04.2017 23:32 3,8 C 9,4 C 97 % 1011,5 hPa 0,0 l/m 0,1 km/h (0 Bft) N 355 0 min 0,000 mm 0,0 UV-I 0 W/m 3,4 C 3,8 C 1,6 km/h (1 Bft) 92,00 %
27.04.2017 23:34 3,8 C 9,4 C 97 % 1011,4 hPa 0,0 l/m 1,0 km/h (0 Bft) N 355 0 min 0,000 mm 0,0 UV-I 0 W/m 3,4 C 3,8 C 4,8 km/h (1 Bft) 100,00 %
27.04.2017 23:36 3,8 C 9,4 C 97 % 1011,4 hPa 0,2 l/m 1,6 km/h (1 Bft) N-NW 342 0 min 0,000 mm 0,0 UV-I 0 W/m 3,4 C 3,8 C 6,4 km/h (2 Bft) 96,23 %
27.04.2017 23:38 3,8 C 9,4 C 97 % 1011,5 hPa 0,0 l/m 0,4 km/h (0 Bft) N-NW 342 0 min 0,000 mm 0,0 UV-I 0 W/m 3,4 C 3,8 C 1,6 km/h (1 Bft) 97,87 %
27.04.2017 23:40 3,8 C 9,4 C 97 % 1011,5 hPa 0,0 l/m 0,5 km/h (0 Bft) N-NW 342 0 min 0,000 mm 0,0 UV-I 0 W/m 3,4 C 3,8 C 1,6 km/h (1 Bft) 95,74 %
27.04.2017 23:42 3,8 C 9,4 C 97 % 1011,5 hPa 0,0 l/m 0,6 km/h (0 Bft) N-NW 342 0 min 0,000 mm 0,0 UV-I 0 W/m 3,4 C 3,8 C 3,2 km/h (1 Bft) 95,00 %
27.04.2017 23:44 3,8 C 9,4 C 97 % 1011,4 hPa 0,0 l/m 0,6 km/h (0 Bft) N-NW 342 0 min 0,000 mm 0,0 UV-I 0 W/m 3,4 C 3,8 C 1,6 km/h (1 Bft) 97,87 %
27.04.2017 23:46 3,8 C 9,4 C 96 % 1011,4 hPa 0,0 l/m 0,1 km/h (0 Bft) N-NW 342 0 min 0,000 mm 0,0 UV-I 0 W/m 3,2 C 3,8 C 1,6 km/h (1 Bft) 94,00 %
27.04.2017 23:48 3,8 C 9,4 C 97 % 1011,3 hPa 0,0 l/m 1,3 km/h (1 Bft) N-NW 342 0 min 0,000 mm 0,0 UV-I 0 W/m 3,4 C 3,8 C 3,2 km/h (1 Bft) 92,68 %
27.04.2017 23:50 3,8 C 9,4 C 96 % 1011,4 hPa 0,2 l/m 0,7 km/h (0 Bft) N-NW 342 0 min 0,000 mm 0,0 UV-I 0 W/m 3,2 C 3,8 C 3,2 km/h (1 Bft) 96,00 %
27.04.2017 23:52 3,8 C 9,4 C 96 % 1011,4 hPa 0,0 l/m 1,2 km/h (1 Bft) W-NW 294 0 min 0,000 mm 0,0 UV-I 0 W/m 3,2 C 3,8 C 6,4 km/h (2 Bft) 90,20 %
27.04.2017 23:54 3,7 C 9,4 C 96 % 1011,3 hPa 0,0 l/m 1,4 km/h (1 Bft) NW 320 0 min 0,000 mm 0,0 UV-I 0 W/m 3,1 C 3,7 C 4,8 km/h (1 Bft) 93,18 %
27.04.2017 23:56 3,7 C 9,4 C 96 % 1011,2 hPa 0,0 l/m 2,1 km/h (1 Bft) N 350 0 min 0,000 mm 0,0 UV-I 0 W/m 3,1 C 3,7 C 6,4 km/h (2 Bft) 94,34 %
27.04.2017 23:58 3,7 C 9,4 C 96 % 1011,1 hPa 0,0 l/m 0,5 km/h (0 Bft) N-NW 342 0 min 0,000 mm 0,0 UV-I 0 W/m 3,1 C 3,7 C 3,2 km/h (1 Bft) 92,11 %
_ Min-Zeit 23:54 06:48 15:00 04:14 - 01:06 - - - - - - 23:54 12:40 01:06 19:46
Minimum _ 3,7 C 9,4 C 87 % 1009,9 hPa - 0,0 km/h (0 Bft) - - - - - - 3,1 C 3,2 C 0,0 km/h (0 Bft) 86,36 %
_ Max-Zeit 14:36 00:00 02:26 11:24 00:06 12:40 - - 00:00 13:02 09:54 09:54 00:00 14:36 10:30 00:08
Maximum _ 5,8 C 10,0 C 97 % 1013,6 hPa 0,2 l/m 8,5 km/h
W-SW (2 Bft)
- - 0 min 0,076 mm 1,3 UV-I 255 W/m 4,7 C 5,8 C 14,5 km/h
W (3 Bft)
100,00 %
Durchschnitt _ 4,8 C 9,8 C 95 % 1012,0 hPa #10,4 l/m 1,9 km/h (1 Bft) W - #0 min. #0,508 mm 0,9 UV-I 87 W/m 4,0 C 4,8 C 4,3 km/h (1 Bft) 96,61 %